<?xml version="1.0" encoding="UTF-8"?>
<gpx version="1.1" creator="https://www.youtrack.es" xsi:schemaLocation="http://www.topografix.com/GPX/1/1 http://www.topografix.com/GPX/1/1/gpx.xsd http://www.garmin.com/xmlschemas/GpxExtensions/v3 http://www.garmin.com/xmlschemas/GpxExtensionsv3.xsd http://www.garmin.com/xmlschemas/TrackPointExtension/v1 http://www.garmin.com/xmlschemas/TrackPointExtensionv1.xsd" xmlns:gpxtpx="http://www.garmin.com/xmlschemas/TrackPointExtension/v1" xmlns:gpxx="http://www.garmin.com/xmlschemas/GpxExtensions/v3" xmlns:xsi="http://www.w3.org/2001/XMLSchema-instance">
  <metadata>
    <link href="https://www.youtrack.es">
      <text>YouTrack.es</text>
    </link>
    <time>2026-05-08T01:58:46Z</time>
  </metadata>
  <trk>
    <src>https://www.youtrack.es</src>
    <link href="https://www.youtrack.es/ruta/16002-sobe">
      <text>YouTrack.es</text>
    </link>
    <trkseg>
      <trkpt lat="40.7689320" lon="-8.1414020">
        <ele>398.8</ele>
        <time>2020-09-20T07:28:28Z</time>
      </trkpt>
      <trkpt lat="40.7689080" lon="-8.1413430">
        <ele>398.2</ele>
        <time>2020-09-20T07:28:29Z</time>
      </trkpt>
      <trkpt lat="40.7688800" lon="-8.1412790">
        <ele>397.4</ele>
        <time>2020-09-20T07:28:32Z</time>
      </trkpt>
      <trkpt lat="40.7688730" lon="-8.1411310">
        <ele>396.8</ele>
        <time>2020-09-20T07:28:36Z</time>
      </trkpt>
      <trkpt lat="40.7689230" lon="-8.1410350">
        <ele>398.0</ele>
        <time>2020-09-20T07:28:39Z</time>
      </trkpt>
      <trkpt lat="40.7689840" lon="-8.1409380">
        <ele>397.4</ele>
        <time>2020-09-20T07:28:42Z</time>
      </trkpt>
      <trkpt lat="40.7690510" lon="-8.1408360">
        <ele>397.2</ele>
        <time>2020-09-20T07:28:44Z</time>
      </trkpt>
      <trkpt lat="40.7690510" lon="-8.1408360">
        <ele>397.2</ele>
        <time>2020-09-20T07:28:45Z</time>
      </trkpt>
      <trkpt lat="40.7690640" lon="-8.1407460">
        <ele>397.2</ele>
        <time>2020-09-20T07:28:48Z</time>
      </trkpt>
      <trkpt lat="40.7690890" lon="-8.1405360">
        <ele>397.0</ele>
        <time>2020-09-20T07:28:53Z</time>
      </trkpt>
      <trkpt lat="40.7691100" lon="-8.1405160">
        <ele>397.0</ele>
        <time>2020-09-20T07:28:54Z</time>
      </trkpt>
      <trkpt lat="40.7691360" lon="-8.1404980">
        <ele>396.8</ele>
        <time>2020-09-20T07:28:55Z</time>
      </trkpt>
      <trkpt lat="40.7691930" lon="-8.1404750">
        <ele>396.4</ele>
        <time>2020-09-20T07:28:57Z</time>
      </trkpt>
      <trkpt lat="40.7692810" lon="-8.1404590">
        <ele>395.2</ele>
        <time>2020-09-20T07:29:00Z</time>
      </trkpt>
      <trkpt lat="40.7693360" lon="-8.1404500">
        <ele>394.6</ele>
        <time>2020-09-20T07:29:02Z</time>
      </trkpt>
      <trkpt lat="40.7693640" lon="-8.1404400">
        <ele>394.4</ele>
        <time>2020-09-20T07:29:03Z</time>
      </trkpt>
      <trkpt lat="40.7693910" lon="-8.1404270">
        <ele>394.2</ele>
        <time>2020-09-20T07:29:04Z</time>
      </trkpt>
      <trkpt lat="40.7694160" lon="-8.1404140">
        <ele>394.2</ele>
        <time>2020-09-20T07:29:05Z</time>
      </trkpt>
      <trkpt lat="40.7694720" lon="-8.1403870">
        <ele>394.0</ele>
        <time>2020-09-20T07:29:07Z</time>
      </trkpt>
      <trkpt lat="40.7695690" lon="-8.1403690">
        <ele>393.8</ele>
        <time>2020-09-20T07:29:10Z</time>
      </trkpt>
      <trkpt lat="40.7696260" lon="-8.1403460">
        <ele>393.8</ele>
        <time>2020-09-20T07:29:12Z</time>
      </trkpt>
      <trkpt lat="40.7697960" lon="-8.1402610">
        <ele>393.8</ele>
        <time>2020-09-20T07:29:18Z</time>
      </trkpt>
      <trkpt lat="40.7698970" lon="-8.1401150">
        <ele>394.2</ele>
        <time>2020-09-20T07:29:23Z</time>
      </trkpt>
      <trkpt lat="40.7699940" lon="-8.1399270">
        <ele>395.2</ele>
        <time>2020-09-20T07:29:28Z</time>
      </trkpt>
      <trkpt lat="40.7700140" lon="-8.1398920">
        <ele>395.2</ele>
        <time>2020-09-20T07:29:29Z</time>
      </trkpt>
      <trkpt lat="40.7700550" lon="-8.1398280">
        <ele>395.4</ele>
        <time>2020-09-20T07:29:31Z</time>
      </trkpt>
      <trkpt lat="40.7701890" lon="-8.1396350">
        <ele>395.8</ele>
        <time>2020-09-20T07:29:38Z</time>
      </trkpt>
      <trkpt lat="40.7702700" lon="-8.1395600">
        <ele>396.0</ele>
        <time>2020-09-20T07:29:42Z</time>
      </trkpt>
      <trkpt lat="40.7703400" lon="-8.1395170">
        <ele>396.0</ele>
        <time>2020-09-20T07:29:45Z</time>
      </trkpt>
      <trkpt lat="40.7703610" lon="-8.1395050">
        <ele>396.0</ele>
        <time>2020-09-20T07:29:46Z</time>
      </trkpt>
      <trkpt lat="40.7703860" lon="-8.1394950">
        <ele>396.2</ele>
        <time>2020-09-20T07:29:47Z</time>
      </trkpt>
      <trkpt lat="40.7704070" lon="-8.1394800">
        <ele>396.2</ele>
        <time>2020-09-20T07:29:48Z</time>
      </trkpt>
      <trkpt lat="40.7704300" lon="-8.1394580">
        <ele>396.2</ele>
        <time>2020-09-20T07:29:49Z</time>
      </trkpt>
      <trkpt lat="40.7704740" lon="-8.1394120">
        <ele>396.2</ele>
        <time>2020-09-20T07:29:51Z</time>
      </trkpt>
      <trkpt lat="40.7705940" lon="-8.1392290">
        <ele>397.0</ele>
        <time>2020-09-20T07:29:57Z</time>
      </trkpt>
      <trkpt lat="40.7706360" lon="-8.1391290">
        <ele>397.2</ele>
        <time>2020-09-20T07:30:00Z</time>
      </trkpt>
      <trkpt lat="40.7707250" lon="-8.1388990">
        <ele>397.8</ele>
        <time>2020-09-20T07:30:06Z</time>
      </trkpt>
      <trkpt lat="40.7708130" lon="-8.1386750">
        <ele>397.8</ele>
        <time>2020-09-20T07:30:12Z</time>
      </trkpt>
      <trkpt lat="40.7709690" lon="-8.1385180">
        <ele>397.6</ele>
        <time>2020-09-20T07:30:18Z</time>
      </trkpt>
      <trkpt lat="40.7711000" lon="-8.1383220">
        <ele>397.4</ele>
        <time>2020-09-20T07:30:24Z</time>
      </trkpt>
      <trkpt lat="40.7711640" lon="-8.1380820">
        <ele>397.2</ele>
        <time>2020-09-20T07:30:30Z</time>
      </trkpt>
      <trkpt lat="40.7711910" lon="-8.1378390">
        <ele>397.0</ele>
        <time>2020-09-20T07:30:36Z</time>
      </trkpt>
      <trkpt lat="40.7712280" lon="-8.1376060">
        <ele>397.0</ele>
        <time>2020-09-20T07:30:42Z</time>
      </trkpt>
      <trkpt lat="40.7713060" lon="-8.1373550">
        <ele>397.0</ele>
        <time>2020-09-20T07:30:49Z</time>
      </trkpt>
      <trkpt lat="40.7713990" lon="-8.1371260">
        <ele>397.4</ele>
        <time>2020-09-20T07:30:56Z</time>
      </trkpt>
      <trkpt lat="40.7714590" lon="-8.1369610">
        <ele>397.6</ele>
        <time>2020-09-20T07:31:01Z</time>
      </trkpt>
      <trkpt lat="40.7715040" lon="-8.1368700">
        <ele>398.0</ele>
        <time>2020-09-20T07:31:04Z</time>
      </trkpt>
      <trkpt lat="40.7715200" lon="-8.1368460">
        <ele>398.0</ele>
        <time>2020-09-20T07:31:05Z</time>
      </trkpt>
      <trkpt lat="40.7715400" lon="-8.1368300">
        <ele>398.4</ele>
        <time>2020-09-20T07:31:06Z</time>
      </trkpt>
      <trkpt lat="40.7715640" lon="-8.1368210">
        <ele>398.6</ele>
        <time>2020-09-20T07:31:07Z</time>
      </trkpt>
      <trkpt lat="40.7715900" lon="-8.1368150">
        <ele>398.6</ele>
        <time>2020-09-20T07:31:08Z</time>
      </trkpt>
      <trkpt lat="40.7717260" lon="-8.1368530">
        <ele>399.4</ele>
        <time>2020-09-20T07:31:13Z</time>
      </trkpt>
      <trkpt lat="40.7718150" lon="-8.1368570">
        <ele>400.4</ele>
        <time>2020-09-20T07:31:16Z</time>
      </trkpt>
      <trkpt lat="40.7719610" lon="-8.1367440">
        <ele>401.6</ele>
        <time>2020-09-20T07:31:22Z</time>
      </trkpt>
      <trkpt lat="40.7721320" lon="-8.1366080">
        <ele>402.2</ele>
        <time>2020-09-20T07:31:29Z</time>
      </trkpt>
      <trkpt lat="40.7723070" lon="-8.1365810">
        <ele>402.4</ele>
        <time>2020-09-20T07:31:35Z</time>
      </trkpt>
      <trkpt lat="40.7723410" lon="-8.1365850">
        <ele>402.4</ele>
        <time>2020-09-20T07:31:36Z</time>
      </trkpt>
      <trkpt lat="40.7723720" lon="-8.1365920">
        <ele>402.2</ele>
        <time>2020-09-20T07:31:37Z</time>
      </trkpt>
      <trkpt lat="40.7724040" lon="-8.1366010">
        <ele>402.2</ele>
        <time>2020-09-20T07:31:38Z</time>
      </trkpt>
      <trkpt lat="40.7725550" lon="-8.1367620">
        <ele>402.2</ele>
        <time>2020-09-20T07:31:45Z</time>
      </trkpt>
      <trkpt lat="40.7725860" lon="-8.1368880">
        <ele>402.6</ele>
        <time>2020-09-20T07:31:49Z</time>
      </trkpt>
      <trkpt lat="40.7726700" lon="-8.1371010">
        <ele>403.4</ele>
        <time>2020-09-20T07:31:56Z</time>
      </trkpt>
      <trkpt lat="40.7726850" lon="-8.1371280">
        <ele>403.8</ele>
        <time>2020-09-20T07:31:57Z</time>
      </trkpt>
      <trkpt lat="40.7727350" lon="-8.1372140">
        <ele>405.0</ele>
        <time>2020-09-20T07:32:00Z</time>
      </trkpt>
      <trkpt lat="40.7727940" lon="-8.1373360">
        <ele>406.2</ele>
        <time>2020-09-20T07:32:04Z</time>
      </trkpt>
      <trkpt lat="40.7728660" lon="-8.1375130">
        <ele>407.2</ele>
        <time>2020-09-20T07:32:09Z</time>
      </trkpt>
      <trkpt lat="40.7730190" lon="-8.1376440">
        <ele>407.6</ele>
        <time>2020-09-20T07:32:15Z</time>
      </trkpt>
      <trkpt lat="40.7732210" lon="-8.1376980">
        <ele>407.6</ele>
        <time>2020-09-20T07:32:22Z</time>
      </trkpt>
      <trkpt lat="40.7734240" lon="-8.1377480">
        <ele>407.8</ele>
        <time>2020-09-20T07:32:29Z</time>
      </trkpt>
      <trkpt lat="40.7735880" lon="-8.1377360">
        <ele>408.2</ele>
        <time>2020-09-20T07:32:35Z</time>
      </trkpt>
      <trkpt lat="40.7737760" lon="-8.1377010">
        <ele>409.0</ele>
        <time>2020-09-20T07:32:42Z</time>
      </trkpt>
      <trkpt lat="40.7738010" lon="-8.1377080">
        <ele>409.2</ele>
        <time>2020-09-20T07:32:43Z</time>
      </trkpt>
      <trkpt lat="40.7739050" lon="-8.1378200">
        <ele>410.4</ele>
        <time>2020-09-20T07:32:48Z</time>
      </trkpt>
      <trkpt lat="40.7740650" lon="-8.1379350">
        <ele>411.0</ele>
        <time>2020-09-20T07:32:55Z</time>
      </trkpt>
      <trkpt lat="40.7741670" lon="-8.1379610">
        <ele>411.4</ele>
        <time>2020-09-20T07:32:59Z</time>
      </trkpt>
      <trkpt lat="40.7743410" lon="-8.1380090">
        <ele>412.6</ele>
        <time>2020-09-20T07:33:06Z</time>
      </trkpt>
      <trkpt lat="40.7745290" lon="-8.1380900">
        <ele>413.2</ele>
        <time>2020-09-20T07:33:13Z</time>
      </trkpt>
      <trkpt lat="40.7745780" lon="-8.1381080">
        <ele>413.6</ele>
        <time>2020-09-20T07:33:15Z</time>
      </trkpt>
      <trkpt lat="40.7747750" lon="-8.1381840">
        <ele>414.2</ele>
        <time>2020-09-20T07:33:23Z</time>
      </trkpt>
      <trkpt lat="40.7748200" lon="-8.1382040">
        <ele>414.8</ele>
        <time>2020-09-20T07:33:25Z</time>
      </trkpt>
      <trkpt lat="40.7749080" lon="-8.1382330">
        <ele>415.8</ele>
        <time>2020-09-20T07:33:29Z</time>
      </trkpt>
      <trkpt lat="40.7750990" lon="-8.1382500">
        <ele>417.2</ele>
        <time>2020-09-20T07:33:36Z</time>
      </trkpt>
      <trkpt lat="40.7752130" lon="-8.1382520">
        <ele>418.0</ele>
        <time>2020-09-20T07:33:40Z</time>
      </trkpt>
      <trkpt lat="40.7753000" lon="-8.1382470">
        <ele>418.2</ele>
        <time>2020-09-20T07:33:43Z</time>
      </trkpt>
      <trkpt lat="40.7753550" lon="-8.1382450">
        <ele>419.2</ele>
        <time>2020-09-20T07:33:45Z</time>
      </trkpt>
      <trkpt lat="40.7754890" lon="-8.1382360">
        <ele>420.4</ele>
        <time>2020-09-20T07:33:50Z</time>
      </trkpt>
      <trkpt lat="40.7755420" lon="-8.1382290">
        <ele>420.8</ele>
        <time>2020-09-20T07:33:52Z</time>
      </trkpt>
      <trkpt lat="40.7756540" lon="-8.1381930">
        <ele>421.4</ele>
        <time>2020-09-20T07:33:56Z</time>
      </trkpt>
      <trkpt lat="40.7757050" lon="-8.1381690">
        <ele>421.6</ele>
        <time>2020-09-20T07:33:58Z</time>
      </trkpt>
      <trkpt lat="40.7757790" lon="-8.1381070">
        <ele>422.2</ele>
        <time>2020-09-20T07:34:01Z</time>
      </trkpt>
      <trkpt lat="40.7758290" lon="-8.1380540">
        <ele>422.4</ele>
        <time>2020-09-20T07:34:03Z</time>
      </trkpt>
      <trkpt lat="40.7759580" lon="-8.1378740">
        <ele>423.2</ele>
        <time>2020-09-20T07:34:09Z</time>
      </trkpt>
      <trkpt lat="40.7760610" lon="-8.1377640">
        <ele>423.4</ele>
        <time>2020-09-20T07:34:14Z</time>
      </trkpt>
      <trkpt lat="40.7762260" lon="-8.1377780">
        <ele>423.8</ele>
        <time>2020-09-20T07:34:21Z</time>
      </trkpt>
      <trkpt lat="40.7763730" lon="-8.1378290">
        <ele>424.4</ele>
        <time>2020-09-20T07:34:27Z</time>
      </trkpt>
      <trkpt lat="40.7765230" lon="-8.1378670">
        <ele>425.6</ele>
        <time>2020-09-20T07:34:34Z</time>
      </trkpt>
      <trkpt lat="40.7766120" lon="-8.1378960">
        <ele>426.6</ele>
        <time>2020-09-20T07:34:38Z</time>
      </trkpt>
      <trkpt lat="40.7767520" lon="-8.1379380">
        <ele>428.0</ele>
        <time>2020-09-20T07:34:44Z</time>
      </trkpt>
      <trkpt lat="40.7768670" lon="-8.1379640">
        <ele>429.0</ele>
        <time>2020-09-20T07:34:48Z</time>
      </trkpt>
      <trkpt lat="40.7769860" lon="-8.1380010">
        <ele>430.0</ele>
        <time>2020-09-20T07:34:52Z</time>
      </trkpt>
      <trkpt lat="40.7770150" lon="-8.1380100">
        <ele>430.2</ele>
        <time>2020-09-20T07:34:53Z</time>
      </trkpt>
      <trkpt lat="40.7772100" lon="-8.1380750">
        <ele>431.0</ele>
        <time>2020-09-20T07:35:00Z</time>
      </trkpt>
      <trkpt lat="40.7772350" lon="-8.1380840">
        <ele>431.2</ele>
        <time>2020-09-20T07:35:01Z</time>
      </trkpt>
      <trkpt lat="40.7774140" lon="-8.1381620">
        <ele>432.2</ele>
        <time>2020-09-20T07:35:09Z</time>
      </trkpt>
      <trkpt lat="40.7775830" lon="-8.1382470">
        <ele>433.2</ele>
        <time>2020-09-20T07:35:17Z</time>
      </trkpt>
      <trkpt lat="40.7776050" lon="-8.1382570">
        <ele>433.4</ele>
        <time>2020-09-20T07:35:18Z</time>
      </trkpt>
      <trkpt lat="40.7777120" lon="-8.1383160">
        <ele>434.6</ele>
        <time>2020-09-20T07:35:23Z</time>
      </trkpt>
      <trkpt lat="40.7778160" lon="-8.1383850">
        <ele>435.6</ele>
        <time>2020-09-20T07:35:28Z</time>
      </trkpt>
      <trkpt lat="40.7779280" lon="-8.1384490">
        <ele>437.0</ele>
        <time>2020-09-20T07:35:33Z</time>
      </trkpt>
      <trkpt lat="40.7780480" lon="-8.1385250">
        <ele>438.0</ele>
        <time>2020-09-20T07:35:38Z</time>
      </trkpt>
      <trkpt lat="40.7781230" lon="-8.1385650">
        <ele>439.0</ele>
        <time>2020-09-20T07:35:41Z</time>
      </trkpt>
      <trkpt lat="40.7782530" lon="-8.1385850">
        <ele>440.2</ele>
        <time>2020-09-20T07:35:46Z</time>
      </trkpt>
      <trkpt lat="40.7783370" lon="-8.1385510">
        <ele>441.4</ele>
        <time>2020-09-20T07:35:49Z</time>
      </trkpt>
      <trkpt lat="40.7785210" lon="-8.1384310">
        <ele>442.4</ele>
        <time>2020-09-20T07:35:56Z</time>
      </trkpt>
      <trkpt lat="40.7785460" lon="-8.1384200">
        <ele>442.8</ele>
        <time>2020-09-20T07:35:57Z</time>
      </trkpt>
      <trkpt lat="40.7786810" lon="-8.1384040">
        <ele>444.0</ele>
        <time>2020-09-20T07:36:02Z</time>
      </trkpt>
      <trkpt lat="40.7788300" lon="-8.1384720">
        <ele>444.6</ele>
        <time>2020-09-20T07:36:08Z</time>
      </trkpt>
      <trkpt lat="40.7789330" lon="-8.1385230">
        <ele>445.2</ele>
        <time>2020-09-20T07:36:12Z</time>
      </trkpt>
      <trkpt lat="40.7791080" lon="-8.1386140">
        <ele>446.2</ele>
        <time>2020-09-20T07:36:19Z</time>
      </trkpt>
      <trkpt lat="40.7792470" lon="-8.1386960">
        <ele>447.4</ele>
        <time>2020-09-20T07:36:25Z</time>
      </trkpt>
      <trkpt lat="40.7793860" lon="-8.1387620">
        <ele>448.6</ele>
        <time>2020-09-20T07:36:31Z</time>
      </trkpt>
      <trkpt lat="40.7794800" lon="-8.1388320">
        <ele>449.8</ele>
        <time>2020-09-20T07:36:35Z</time>
      </trkpt>
      <trkpt lat="40.7796320" lon="-8.1389620">
        <ele>451.0</ele>
        <time>2020-09-20T07:36:42Z</time>
      </trkpt>
      <trkpt lat="40.7797900" lon="-8.1390960">
        <ele>452.2</ele>
        <time>2020-09-20T07:36:49Z</time>
      </trkpt>
      <trkpt lat="40.7799820" lon="-8.1391590">
        <ele>452.8</ele>
        <time>2020-09-20T07:36:56Z</time>
      </trkpt>
      <trkpt lat="40.7801470" lon="-8.1392200">
        <ele>453.2</ele>
        <time>2020-09-20T07:37:03Z</time>
      </trkpt>
      <trkpt lat="40.7803170" lon="-8.1393090">
        <ele>453.6</ele>
        <time>2020-09-20T07:37:10Z</time>
      </trkpt>
      <trkpt lat="40.7804380" lon="-8.1393500">
        <ele>454.4</ele>
        <time>2020-09-20T07:37:15Z</time>
      </trkpt>
      <trkpt lat="40.7805810" lon="-8.1394300">
        <ele>455.4</ele>
        <time>2020-09-20T07:37:21Z</time>
      </trkpt>
      <trkpt lat="40.7807200" lon="-8.1395640">
        <ele>456.6</ele>
        <time>2020-09-20T07:37:28Z</time>
      </trkpt>
      <trkpt lat="40.7808040" lon="-8.1396170">
        <ele>457.8</ele>
        <time>2020-09-20T07:37:32Z</time>
      </trkpt>
      <trkpt lat="40.7809780" lon="-8.1396830">
        <ele>458.6</ele>
        <time>2020-09-20T07:37:40Z</time>
      </trkpt>
      <trkpt lat="40.7810260" lon="-8.1396880">
        <ele>459.2</ele>
        <time>2020-09-20T07:37:42Z</time>
      </trkpt>
      <trkpt lat="40.7810770" lon="-8.1396840">
        <ele>460.2</ele>
        <time>2020-09-20T07:37:44Z</time>
      </trkpt>
      <trkpt lat="40.7811650" lon="-8.1396760">
        <ele>461.4</ele>
        <time>2020-09-20T07:37:48Z</time>
      </trkpt>
      <trkpt lat="40.7813150" lon="-8.1396730">
        <ele>462.8</ele>
        <time>2020-09-20T07:37:55Z</time>
      </trkpt>
      <trkpt lat="40.7814080" lon="-8.1397020">
        <ele>464.2</ele>
        <time>2020-09-20T07:38:00Z</time>
      </trkpt>
      <trkpt lat="40.7814610" lon="-8.1397190">
        <ele>465.2</ele>
        <time>2020-09-20T07:38:03Z</time>
      </trkpt>
      <trkpt lat="40.7815380" lon="-8.1397500">
        <ele>466.6</ele>
        <time>2020-09-20T07:38:07Z</time>
      </trkpt>
      <trkpt lat="40.7816220" lon="-8.1397730">
        <ele>467.6</ele>
        <time>2020-09-20T07:38:11Z</time>
      </trkpt>
      <trkpt lat="40.7816710" lon="-8.1397930">
        <ele>469.2</ele>
        <time>2020-09-20T07:38:14Z</time>
      </trkpt>
      <trkpt lat="40.7817420" lon="-8.1398080">
        <ele>470.2</ele>
        <time>2020-09-20T07:38:18Z</time>
      </trkpt>
      <trkpt lat="40.7817990" lon="-8.1398220">
        <ele>471.4</ele>
        <time>2020-09-20T07:38:21Z</time>
      </trkpt>
      <trkpt lat="40.7818660" lon="-8.1398480">
        <ele>472.4</ele>
        <time>2020-09-20T07:38:25Z</time>
      </trkpt>
      <trkpt lat="40.7819290" lon="-8.1398710">
        <ele>473.6</ele>
        <time>2020-09-20T07:38:29Z</time>
      </trkpt>
      <trkpt lat="40.7819730" lon="-8.1398960">
        <ele>475.0</ele>
        <time>2020-09-20T07:38:32Z</time>
      </trkpt>
      <trkpt lat="40.7820360" lon="-8.1398980">
        <ele>476.2</ele>
        <time>2020-09-20T07:38:36Z</time>
      </trkpt>
      <trkpt lat="40.7821010" lon="-8.1399010">
        <ele>477.4</ele>
        <time>2020-09-20T07:38:40Z</time>
      </trkpt>
      <trkpt lat="40.7821790" lon="-8.1399000">
        <ele>478.8</ele>
        <time>2020-09-20T07:38:44Z</time>
      </trkpt>
      <trkpt lat="40.7822300" lon="-8.1399040">
        <ele>480.2</ele>
        <time>2020-09-20T07:38:47Z</time>
      </trkpt>
      <trkpt lat="40.7822880" lon="-8.1399100">
        <ele>481.4</ele>
        <time>2020-09-20T07:38:50Z</time>
      </trkpt>
      <trkpt lat="40.7823950" lon="-8.1399240">
        <ele>482.4</ele>
        <time>2020-09-20T07:38:55Z</time>
      </trkpt>
      <trkpt lat="40.7825190" lon="-8.1399430">
        <ele>483.6</ele>
        <time>2020-09-20T07:39:01Z</time>
      </trkpt>
      <trkpt lat="40.7826200" lon="-8.1399340">
        <ele>484.4</ele>
        <time>2020-09-20T07:39:06Z</time>
      </trkpt>
      <trkpt lat="40.7826580" lon="-8.1399160">
        <ele>484.6</ele>
        <time>2020-09-20T07:39:08Z</time>
      </trkpt>
      <trkpt lat="40.7826940" lon="-8.1398900">
        <ele>485.2</ele>
        <time>2020-09-20T07:39:10Z</time>
      </trkpt>
      <trkpt lat="40.7827280" lon="-8.1398610">
        <ele>485.8</ele>
        <time>2020-09-20T07:39:12Z</time>
      </trkpt>
      <trkpt lat="40.7827770" lon="-8.1398130">
        <ele>487.0</ele>
        <time>2020-09-20T07:39:15Z</time>
      </trkpt>
      <trkpt lat="40.7828190" lon="-8.1397660">
        <ele>488.0</ele>
        <time>2020-09-20T07:39:18Z</time>
      </trkpt>
      <trkpt lat="40.7828490" lon="-8.1397310">
        <ele>488.6</ele>
        <time>2020-09-20T07:39:20Z</time>
      </trkpt>
      <trkpt lat="40.7828980" lon="-8.1396940">
        <ele>489.2</ele>
        <time>2020-09-20T07:39:23Z</time>
      </trkpt>
      <trkpt lat="40.7829730" lon="-8.1396920">
        <ele>490.4</ele>
        <time>2020-09-20T07:39:27Z</time>
      </trkpt>
      <trkpt lat="40.7830280" lon="-8.1397100">
        <ele>491.2</ele>
        <time>2020-09-20T07:39:30Z</time>
      </trkpt>
      <trkpt lat="40.7830600" lon="-8.1397170">
        <ele>491.4</ele>
        <time>2020-09-20T07:39:32Z</time>
      </trkpt>
      <trkpt lat="40.7831290" lon="-8.1397450">
        <ele>492.6</ele>
        <time>2020-09-20T07:39:36Z</time>
      </trkpt>
      <trkpt lat="40.7831720" lon="-8.1397610">
        <ele>493.4</ele>
        <time>2020-09-20T07:39:39Z</time>
      </trkpt>
      <trkpt lat="40.7831850" lon="-8.1397710">
        <ele>493.8</ele>
        <time>2020-09-20T07:39:40Z</time>
      </trkpt>
      <trkpt lat="40.7832290" lon="-8.1397940">
        <ele>495.0</ele>
        <time>2020-09-20T07:39:43Z</time>
      </trkpt>
      <trkpt lat="40.7832720" lon="-8.1398190">
        <ele>496.4</ele>
        <time>2020-09-20T07:39:46Z</time>
      </trkpt>
      <trkpt lat="40.7833260" lon="-8.1398450">
        <ele>497.4</ele>
        <time>2020-09-20T07:39:49Z</time>
      </trkpt>
      <trkpt lat="40.7833820" lon="-8.1398640">
        <ele>498.6</ele>
        <time>2020-09-20T07:39:52Z</time>
      </trkpt>
      <trkpt lat="40.7834810" lon="-8.1399130">
        <ele>499.4</ele>
        <time>2020-09-20T07:39:57Z</time>
      </trkpt>
      <trkpt lat="40.7835030" lon="-8.1399250">
        <ele>500.0</ele>
        <time>2020-09-20T07:39:58Z</time>
      </trkpt>
      <trkpt lat="40.7835680" lon="-8.1399570">
        <ele>501.0</ele>
        <time>2020-09-20T07:40:01Z</time>
      </trkpt>
      <trkpt lat="40.7836180" lon="-8.1399780">
        <ele>501.4</ele>
        <time>2020-09-20T07:40:03Z</time>
      </trkpt>
      <trkpt lat="40.7837100" lon="-8.1400240">
        <ele>502.0</ele>
        <time>2020-09-20T07:40:07Z</time>
      </trkpt>
      <trkpt lat="40.7838440" lon="-8.1400840">
        <ele>502.8</ele>
        <time>2020-09-20T07:40:13Z</time>
      </trkpt>
      <trkpt lat="40.7839180" lon="-8.1401110">
        <ele>503.0</ele>
        <time>2020-09-20T07:40:16Z</time>
      </trkpt>
      <trkpt lat="40.7839460" lon="-8.1401170">
        <ele>503.2</ele>
        <time>2020-09-20T07:40:17Z</time>
      </trkpt>
      <trkpt lat="40.7840220" lon="-8.1401340">
        <ele>503.6</ele>
        <time>2020-09-20T07:40:20Z</time>
      </trkpt>
      <trkpt lat="40.7841590" lon="-8.1401550">
        <ele>504.2</ele>
        <time>2020-09-20T07:40:26Z</time>
      </trkpt>
      <trkpt lat="40.7842530" lon="-8.1402040">
        <ele>505.4</ele>
        <time>2020-09-20T07:40:32Z</time>
      </trkpt>
      <trkpt lat="40.7843050" lon="-8.1402300">
        <ele>506.6</ele>
        <time>2020-09-20T07:40:36Z</time>
      </trkpt>
      <trkpt lat="40.7843320" lon="-8.1402460">
        <ele>507.0</ele>
        <time>2020-09-20T07:40:38Z</time>
      </trkpt>
      <trkpt lat="40.7843560" lon="-8.1402650">
        <ele>507.6</ele>
        <time>2020-09-20T07:40:40Z</time>
      </trkpt>
      <trkpt lat="40.7843950" lon="-8.1403010">
        <ele>509.0</ele>
        <time>2020-09-20T07:40:43Z</time>
      </trkpt>
      <trkpt lat="40.7844180" lon="-8.1403330">
        <ele>510.4</ele>
        <time>2020-09-20T07:40:45Z</time>
      </trkpt>
      <trkpt lat="40.7844840" lon="-8.1403820">
        <ele>511.2</ele>
        <time>2020-09-20T07:40:49Z</time>
      </trkpt>
      <trkpt lat="40.7845160" lon="-8.1404070">
        <ele>511.8</ele>
        <time>2020-09-20T07:40:51Z</time>
      </trkpt>
      <trkpt lat="40.7845590" lon="-8.1404470">
        <ele>512.8</ele>
        <time>2020-09-20T07:40:54Z</time>
      </trkpt>
      <trkpt lat="40.7846230" lon="-8.1404940">
        <ele>514.0</ele>
        <time>2020-09-20T07:40:59Z</time>
      </trkpt>
      <trkpt lat="40.7846960" lon="-8.1405210">
        <ele>515.2</ele>
        <time>2020-09-20T07:41:04Z</time>
      </trkpt>
      <trkpt lat="40.7847650" lon="-8.1405470">
        <ele>516.6</ele>
        <time>2020-09-20T07:41:08Z</time>
      </trkpt>
      <trkpt lat="40.7848410" lon="-8.1405510">
        <ele>517.8</ele>
        <time>2020-09-20T07:41:11Z</time>
      </trkpt>
      <trkpt lat="40.7850290" lon="-8.1405290">
        <ele>518.8</ele>
        <time>2020-09-20T07:41:18Z</time>
      </trkpt>
      <trkpt lat="40.7850800" lon="-8.1405370">
        <ele>518.8</ele>
        <time>2020-09-20T07:41:20Z</time>
      </trkpt>
      <trkpt lat="40.7851760" lon="-8.1405580">
        <ele>519.2</ele>
        <time>2020-09-20T07:41:24Z</time>
      </trkpt>
      <trkpt lat="40.7853570" lon="-8.1406020">
        <ele>519.8</ele>
        <time>2020-09-20T07:41:33Z</time>
      </trkpt>
      <trkpt lat="40.7853770" lon="-8.1406050">
        <ele>520.0</ele>
        <time>2020-09-20T07:41:34Z</time>
      </trkpt>
      <trkpt lat="40.7854130" lon="-8.1406120">
        <ele>521.2</ele>
        <time>2020-09-20T07:41:36Z</time>
      </trkpt>
      <trkpt lat="40.7854520" lon="-8.1406180">
        <ele>521.6</ele>
        <time>2020-09-20T07:41:38Z</time>
      </trkpt>
      <trkpt lat="40.7855140" lon="-8.1406370">
        <ele>522.6</ele>
        <time>2020-09-20T07:41:42Z</time>
      </trkpt>
      <trkpt lat="40.7855620" lon="-8.1406460">
        <ele>524.0</ele>
        <time>2020-09-20T07:41:45Z</time>
      </trkpt>
      <trkpt lat="40.7856090" lon="-8.1406610">
        <ele>525.2</ele>
        <time>2020-09-20T07:41:48Z</time>
      </trkpt>
      <trkpt lat="40.7856570" lon="-8.1406830">
        <ele>526.4</ele>
        <time>2020-09-20T07:41:51Z</time>
      </trkpt>
      <trkpt lat="40.7857160" lon="-8.1406960">
        <ele>527.6</ele>
        <time>2020-09-20T07:41:54Z</time>
      </trkpt>
      <trkpt lat="40.7857390" lon="-8.1406980">
        <ele>527.8</ele>
        <time>2020-09-20T07:41:55Z</time>
      </trkpt>
      <trkpt lat="40.7858280" lon="-8.1407140">
        <ele>528.8</ele>
        <time>2020-09-20T07:41:59Z</time>
      </trkpt>
      <trkpt lat="40.7859530" lon="-8.1407190">
        <ele>530.0</ele>
        <time>2020-09-20T07:42:05Z</time>
      </trkpt>
      <trkpt lat="40.7859960" lon="-8.1407300">
        <ele>530.4</ele>
        <time>2020-09-20T07:42:07Z</time>
      </trkpt>
      <trkpt lat="40.7860150" lon="-8.1407390">
        <ele>530.6</ele>
        <time>2020-09-20T07:42:08Z</time>
      </trkpt>
      <trkpt lat="40.7860560" lon="-8.1407610">
        <ele>531.0</ele>
        <time>2020-09-20T07:42:10Z</time>
      </trkpt>
      <trkpt lat="40.7860920" lon="-8.1407820">
        <ele>531.4</ele>
        <time>2020-09-20T07:42:12Z</time>
      </trkpt>
      <trkpt lat="40.7861320" lon="-8.1407970">
        <ele>532.0</ele>
        <time>2020-09-20T07:42:14Z</time>
      </trkpt>
      <trkpt lat="40.7862540" lon="-8.1408610">
        <ele>533.2</ele>
        <time>2020-09-20T07:42:21Z</time>
      </trkpt>
      <trkpt lat="40.7863380" lon="-8.1409010">
        <ele>534.4</ele>
        <time>2020-09-20T07:42:25Z</time>
      </trkpt>
      <trkpt lat="40.7864120" lon="-8.1409270">
        <ele>534.8</ele>
        <time>2020-09-20T07:42:28Z</time>
      </trkpt>
      <trkpt lat="40.7864990" lon="-8.1409770">
        <ele>535.6</ele>
        <time>2020-09-20T07:42:32Z</time>
      </trkpt>
      <trkpt lat="40.7865790" lon="-8.1410050">
        <ele>536.4</ele>
        <time>2020-09-20T07:42:35Z</time>
      </trkpt>
      <trkpt lat="40.7866340" lon="-8.1410230">
        <ele>536.8</ele>
        <time>2020-09-20T07:42:37Z</time>
      </trkpt>
      <trkpt lat="40.7867340" lon="-8.1410650">
        <ele>537.0</ele>
        <time>2020-09-20T07:42:41Z</time>
      </trkpt>
      <trkpt lat="40.7867810" lon="-8.1410960">
        <ele>537.0</ele>
        <time>2020-09-20T07:42:43Z</time>
      </trkpt>
      <trkpt lat="40.7869340" lon="-8.1411980">
        <ele>537.6</ele>
        <time>2020-09-20T07:42:50Z</time>
      </trkpt>
      <trkpt lat="40.7869640" lon="-8.1412370">
        <ele>537.8</ele>
        <time>2020-09-20T07:42:52Z</time>
      </trkpt>
      <trkpt lat="40.7870090" lon="-8.1413200">
        <ele>538.2</ele>
        <time>2020-09-20T07:42:56Z</time>
      </trkpt>
      <trkpt lat="40.7870410" lon="-8.1413770">
        <ele>538.4</ele>
        <time>2020-09-20T07:42:59Z</time>
      </trkpt>
      <trkpt lat="40.7870740" lon="-8.1414310">
        <ele>539.0</ele>
        <time>2020-09-20T07:43:02Z</time>
      </trkpt>
      <trkpt lat="40.7871170" lon="-8.1414960">
        <ele>540.2</ele>
        <time>2020-09-20T07:43:06Z</time>
      </trkpt>
      <trkpt lat="40.7871520" lon="-8.1415620">
        <ele>541.4</ele>
        <time>2020-09-20T07:43:10Z</time>
      </trkpt>
      <trkpt lat="40.7871710" lon="-8.1415940">
        <ele>542.0</ele>
        <time>2020-09-20T07:43:12Z</time>
      </trkpt>
      <trkpt lat="40.7871890" lon="-8.1416290">
        <ele>542.6</ele>
        <time>2020-09-20T07:43:14Z</time>
      </trkpt>
      <trkpt lat="40.7872150" lon="-8.1416810">
        <ele>543.6</ele>
        <time>2020-09-20T07:43:17Z</time>
      </trkpt>
      <trkpt lat="40.7872530" lon="-8.1417410">
        <ele>544.8</ele>
        <time>2020-09-20T07:43:21Z</time>
      </trkpt>
      <trkpt lat="40.7872920" lon="-8.1418050">
        <ele>546.2</ele>
        <time>2020-09-20T07:43:25Z</time>
      </trkpt>
      <trkpt lat="40.7872980" lon="-8.1418270">
        <ele>546.6</ele>
        <time>2020-09-20T07:43:26Z</time>
      </trkpt>
      <trkpt lat="40.7873060" lon="-8.1418480">
        <ele>547.0</ele>
        <time>2020-09-20T07:43:27Z</time>
      </trkpt>
      <trkpt lat="40.7873140" lon="-8.1418660">
        <ele>547.2</ele>
        <time>2020-09-20T07:43:28Z</time>
      </trkpt>
      <trkpt lat="40.7873210" lon="-8.1418840">
        <ele>547.4</ele>
        <time>2020-09-20T07:43:29Z</time>
      </trkpt>
      <trkpt lat="40.7873400" lon="-8.1419210">
        <ele>547.6</ele>
        <time>2020-09-20T07:43:31Z</time>
      </trkpt>
      <trkpt lat="40.7873690" lon="-8.1419780">
        <ele>548.8</ele>
        <time>2020-09-20T07:43:34Z</time>
      </trkpt>
      <trkpt lat="40.7874050" lon="-8.1420530">
        <ele>550.4</ele>
        <time>2020-09-20T07:43:38Z</time>
      </trkpt>
      <trkpt lat="40.7874440" lon="-8.1421300">
        <ele>551.8</ele>
        <time>2020-09-20T07:43:42Z</time>
      </trkpt>
      <trkpt lat="40.7874730" lon="-8.1421920">
        <ele>552.8</ele>
        <time>2020-09-20T07:43:45Z</time>
      </trkpt>
      <trkpt lat="40.7875440" lon="-8.1422790">
        <ele>553.4</ele>
        <time>2020-09-20T07:43:50Z</time>
      </trkpt>
      <trkpt lat="40.7875850" lon="-8.1422810">
        <ele>554.2</ele>
        <time>2020-09-20T07:43:52Z</time>
      </trkpt>
      <trkpt lat="40.7876450" lon="-8.1422610">
        <ele>554.8</ele>
        <time>2020-09-20T07:43:55Z</time>
      </trkpt>
      <trkpt lat="40.7877280" lon="-8.1422130">
        <ele>555.2</ele>
        <time>2020-09-20T07:43:59Z</time>
      </trkpt>
      <trkpt lat="40.7877650" lon="-8.1421930">
        <ele>556.4</ele>
        <time>2020-09-20T07:44:01Z</time>
      </trkpt>
      <trkpt lat="40.7878240" lon="-8.1421560">
        <ele>557.2</ele>
        <time>2020-09-20T07:44:04Z</time>
      </trkpt>
      <trkpt lat="40.7878820" lon="-8.1421270">
        <ele>557.4</ele>
        <time>2020-09-20T07:44:07Z</time>
      </trkpt>
      <trkpt lat="40.7879020" lon="-8.1421210">
        <ele>557.6</ele>
        <time>2020-09-20T07:44:08Z</time>
      </trkpt>
      <trkpt lat="40.7879220" lon="-8.1421150">
        <ele>557.8</ele>
        <time>2020-09-20T07:44:09Z</time>
      </trkpt>
      <trkpt lat="40.7879600" lon="-8.1421010">
        <ele>558.8</ele>
        <time>2020-09-20T07:44:11Z</time>
      </trkpt>
      <trkpt lat="40.7880500" lon="-8.1420810">
        <ele>559.6</ele>
        <time>2020-09-20T07:44:16Z</time>
      </trkpt>
      <trkpt lat="40.7880710" lon="-8.1420720">
        <ele>559.8</ele>
        <time>2020-09-20T07:44:17Z</time>
      </trkpt>
      <trkpt lat="40.7881060" lon="-8.1420520">
        <ele>560.4</ele>
        <time>2020-09-20T07:44:19Z</time>
      </trkpt>
      <trkpt lat="40.7881350" lon="-8.1420360">
        <ele>560.8</ele>
        <time>2020-09-20T07:44:21Z</time>
      </trkpt>
      <trkpt lat="40.7882320" lon="-8.1419680">
        <ele>562.2</ele>
        <time>2020-09-20T07:44:27Z</time>
      </trkpt>
      <trkpt lat="40.7882840" lon="-8.1419450">
        <ele>563.4</ele>
        <time>2020-09-20T07:44:30Z</time>
      </trkpt>
      <trkpt lat="40.7883450" lon="-8.1419260">
        <ele>564.4</ele>
        <time>2020-09-20T07:44:33Z</time>
      </trkpt>
      <trkpt lat="40.7884260" lon="-8.1419190">
        <ele>565.4</ele>
        <time>2020-09-20T07:44:37Z</time>
      </trkpt>
      <trkpt lat="40.7885220" lon="-8.1418860">
        <ele>566.6</ele>
        <time>2020-09-20T07:44:42Z</time>
      </trkpt>
      <trkpt lat="40.7886060" lon="-8.1418350">
        <ele>567.6</ele>
        <time>2020-09-20T07:44:46Z</time>
      </trkpt>
      <trkpt lat="40.7886730" lon="-8.1417910">
        <ele>568.6</ele>
        <time>2020-09-20T07:44:49Z</time>
      </trkpt>
      <trkpt lat="40.7888220" lon="-8.1417090">
        <ele>569.6</ele>
        <time>2020-09-20T07:44:55Z</time>
      </trkpt>
      <trkpt lat="40.7889980" lon="-8.1416640">
        <ele>569.8</ele>
        <time>2020-09-20T07:45:03Z</time>
      </trkpt>
      <trkpt lat="40.7890510" lon="-8.1416390">
        <ele>569.6</ele>
        <time>2020-09-20T07:45:05Z</time>
      </trkpt>
      <trkpt lat="40.7891190" lon="-8.1415770">
        <ele>568.8</ele>
        <time>2020-09-20T07:45:08Z</time>
      </trkpt>
      <trkpt lat="40.7891530" lon="-8.1415160">
        <ele>568.4</ele>
        <time>2020-09-20T07:45:10Z</time>
      </trkpt>
      <trkpt lat="40.7891730" lon="-8.1414440">
        <ele>567.8</ele>
        <time>2020-09-20T07:45:12Z</time>
      </trkpt>
      <trkpt lat="40.7891820" lon="-8.1413650">
        <ele>567.2</ele>
        <time>2020-09-20T07:45:14Z</time>
      </trkpt>
      <trkpt lat="40.7891810" lon="-8.1412440">
        <ele>566.2</ele>
        <time>2020-09-20T07:45:17Z</time>
      </trkpt>
      <trkpt lat="40.7892320" lon="-8.1410210">
        <ele>565.0</ele>
        <time>2020-09-20T07:45:23Z</time>
      </trkpt>
      <trkpt lat="40.7892550" lon="-8.1407890">
        <ele>564.0</ele>
        <time>2020-09-20T07:45:29Z</time>
      </trkpt>
      <trkpt lat="40.7892810" lon="-8.1406300">
        <ele>562.6</ele>
        <time>2020-09-20T07:45:33Z</time>
      </trkpt>
      <trkpt lat="40.7893490" lon="-8.1405180">
        <ele>561.6</ele>
        <time>2020-09-20T07:45:37Z</time>
      </trkpt>
      <trkpt lat="40.7893860" lon="-8.1404990">
        <ele>561.2</ele>
        <time>2020-09-20T07:45:39Z</time>
      </trkpt>
      <trkpt lat="40.7893990" lon="-8.1405090">
        <ele>561.2</ele>
        <time>2020-09-20T07:45:40Z</time>
      </trkpt>
      <trkpt lat="40.7894050" lon="-8.1405470">
        <ele>561.2</ele>
        <time>2020-09-20T07:45:42Z</time>
      </trkpt>
      <trkpt lat="40.7893910" lon="-8.1406630">
        <ele>561.6</ele>
        <time>2020-09-20T07:45:47Z</time>
      </trkpt>
      <trkpt lat="40.7893810" lon="-8.1407090">
        <ele>562.2</ele>
        <time>2020-09-20T07:45:49Z</time>
      </trkpt>
      <trkpt lat="40.7893760" lon="-8.1407320">
        <ele>562.8</ele>
        <time>2020-09-20T07:45:50Z</time>
      </trkpt>
      <trkpt lat="40.7893580" lon="-8.1408480">
        <ele>563.8</ele>
        <time>2020-09-20T07:45:55Z</time>
      </trkpt>
      <trkpt lat="40.7893920" lon="-8.1409560">
        <ele>565.0</ele>
        <time>2020-09-20T07:46:00Z</time>
      </trkpt>
      <trkpt lat="40.7894090" lon="-8.1409700">
        <ele>565.2</ele>
        <time>2020-09-20T07:46:01Z</time>
      </trkpt>
      <trkpt lat="40.7894480" lon="-8.1409820">
        <ele>566.2</ele>
        <time>2020-09-20T07:46:03Z</time>
      </trkpt>
      <trkpt lat="40.7894990" lon="-8.1409760">
        <ele>567.2</ele>
        <time>2020-09-20T07:46:06Z</time>
      </trkpt>
      <trkpt lat="40.7895800" lon="-8.1409260">
        <ele>568.6</ele>
        <time>2020-09-20T07:46:11Z</time>
      </trkpt>
      <trkpt lat="40.7895930" lon="-8.1409110">
        <ele>568.8</ele>
        <time>2020-09-20T07:46:12Z</time>
      </trkpt>
      <trkpt lat="40.7896330" lon="-8.1408580">
        <ele>569.8</ele>
        <time>2020-09-20T07:46:15Z</time>
      </trkpt>
      <trkpt lat="40.7896880" lon="-8.1407580">
        <ele>571.0</ele>
        <time>2020-09-20T07:46:20Z</time>
      </trkpt>
      <trkpt lat="40.7897240" lon="-8.1406990">
        <ele>571.8</ele>
        <time>2020-09-20T07:46:23Z</time>
      </trkpt>
      <trkpt lat="40.7897350" lon="-8.1406800">
        <ele>572.2</ele>
        <time>2020-09-20T07:46:24Z</time>
      </trkpt>
      <trkpt lat="40.7897680" lon="-8.1406180">
        <ele>573.2</ele>
        <time>2020-09-20T07:46:27Z</time>
      </trkpt>
      <trkpt lat="40.7898350" lon="-8.1405060">
        <ele>574.4</ele>
        <time>2020-09-20T07:46:33Z</time>
      </trkpt>
      <trkpt lat="40.7899170" lon="-8.1404550">
        <ele>575.4</ele>
        <time>2020-09-20T07:46:38Z</time>
      </trkpt>
      <trkpt lat="40.7899760" lon="-8.1404310">
        <ele>576.4</ele>
        <time>2020-09-20T07:46:41Z</time>
      </trkpt>
      <trkpt lat="40.7899960" lon="-8.1404240">
        <ele>576.6</ele>
        <time>2020-09-20T07:46:42Z</time>
      </trkpt>
      <trkpt lat="40.7900910" lon="-8.1403880">
        <ele>577.6</ele>
        <time>2020-09-20T07:46:47Z</time>
      </trkpt>
      <trkpt lat="40.7901100" lon="-8.1403820">
        <ele>577.8</ele>
        <time>2020-09-20T07:46:48Z</time>
      </trkpt>
      <trkpt lat="40.7901710" lon="-8.1403760">
        <ele>579.0</ele>
        <time>2020-09-20T07:46:52Z</time>
      </trkpt>
      <trkpt lat="40.7902450" lon="-8.1403920">
        <ele>580.0</ele>
        <time>2020-09-20T07:46:56Z</time>
      </trkpt>
      <trkpt lat="40.7903400" lon="-8.1404310">
        <ele>581.2</ele>
        <time>2020-09-20T07:47:01Z</time>
      </trkpt>
      <trkpt lat="40.7904150" lon="-8.1404620">
        <ele>581.8</ele>
        <time>2020-09-20T07:47:05Z</time>
      </trkpt>
      <trkpt lat="40.7904520" lon="-8.1404750">
        <ele>582.4</ele>
        <time>2020-09-20T07:47:07Z</time>
      </trkpt>
      <trkpt lat="40.7905500" lon="-8.1404960">
        <ele>583.6</ele>
        <time>2020-09-20T07:47:12Z</time>
      </trkpt>
      <trkpt lat="40.7905960" lon="-8.1405070">
        <ele>584.6</ele>
        <time>2020-09-20T07:47:15Z</time>
      </trkpt>
      <trkpt lat="40.7906100" lon="-8.1405120">
        <ele>584.8</ele>
        <time>2020-09-20T07:47:16Z</time>
      </trkpt>
      <trkpt lat="40.7906760" lon="-8.1405370">
        <ele>586.0</ele>
        <time>2020-09-20T07:47:20Z</time>
      </trkpt>
      <trkpt lat="40.7907270" lon="-8.1405530">
        <ele>586.6</ele>
        <time>2020-09-20T07:47:23Z</time>
      </trkpt>
      <trkpt lat="40.7907460" lon="-8.1405570">
        <ele>587.0</ele>
        <time>2020-09-20T07:47:24Z</time>
      </trkpt>
      <trkpt lat="40.7908180" lon="-8.1405710">
        <ele>588.2</ele>
        <time>2020-09-20T07:47:28Z</time>
      </trkpt>
      <trkpt lat="40.7908990" lon="-8.1406020">
        <ele>589.4</ele>
        <time>2020-09-20T07:47:33Z</time>
      </trkpt>
      <trkpt lat="40.7909320" lon="-8.1406370">
        <ele>590.4</ele>
        <time>2020-09-20T07:47:36Z</time>
      </trkpt>
      <trkpt lat="40.7909460" lon="-8.1407040">
        <ele>591.6</ele>
        <time>2020-09-20T07:47:40Z</time>
      </trkpt>
      <trkpt lat="40.7909320" lon="-8.1407660">
        <ele>592.4</ele>
        <time>2020-09-20T07:47:43Z</time>
      </trkpt>
      <trkpt lat="40.7909230" lon="-8.1407880">
        <ele>592.8</ele>
        <time>2020-09-20T07:47:44Z</time>
      </trkpt>
      <trkpt lat="40.7908830" lon="-8.1408420">
        <ele>593.8</ele>
        <time>2020-09-20T07:47:47Z</time>
      </trkpt>
      <trkpt lat="40.7908160" lon="-8.1408950">
        <ele>595.2</ele>
        <time>2020-09-20T07:47:51Z</time>
      </trkpt>
      <trkpt lat="40.7907650" lon="-8.1409260">
        <ele>596.2</ele>
        <time>2020-09-20T07:47:54Z</time>
      </trkpt>
      <trkpt lat="40.7906430" lon="-8.1409780">
        <ele>597.2</ele>
        <time>2020-09-20T07:48:01Z</time>
      </trkpt>
      <trkpt lat="40.7905950" lon="-8.1410280">
        <ele>598.2</ele>
        <time>2020-09-20T07:48:04Z</time>
      </trkpt>
      <trkpt lat="40.7905140" lon="-8.1411000">
        <ele>599.4</ele>
        <time>2020-09-20T07:48:09Z</time>
      </trkpt>
      <trkpt lat="40.7904710" lon="-8.1411620">
        <ele>600.0</ele>
        <time>2020-09-20T07:48:12Z</time>
      </trkpt>
      <trkpt lat="40.7904480" lon="-8.1412090">
        <ele>600.4</ele>
        <time>2020-09-20T07:48:14Z</time>
      </trkpt>
      <trkpt lat="40.7904230" lon="-8.1413230">
        <ele>601.6</ele>
        <time>2020-09-20T07:48:18Z</time>
      </trkpt>
      <trkpt lat="40.7904510" lon="-8.1414690">
        <ele>602.0</ele>
        <time>2020-09-20T07:48:23Z</time>
      </trkpt>
      <trkpt lat="40.7904610" lon="-8.1414960">
        <ele>602.2</ele>
        <time>2020-09-20T07:48:24Z</time>
      </trkpt>
      <trkpt lat="40.7904730" lon="-8.1415210">
        <ele>602.4</ele>
        <time>2020-09-20T07:48:25Z</time>
      </trkpt>
      <trkpt lat="40.7904990" lon="-8.1415650">
        <ele>602.6</ele>
        <time>2020-09-20T07:48:27Z</time>
      </trkpt>
      <trkpt lat="40.7906560" lon="-8.1416740">
        <ele>603.8</ele>
        <time>2020-09-20T07:48:36Z</time>
      </trkpt>
      <trkpt lat="40.7907620" lon="-8.1416880">
        <ele>604.8</ele>
        <time>2020-09-20T07:48:41Z</time>
      </trkpt>
      <trkpt lat="40.7908800" lon="-8.1417200">
        <ele>606.4</ele>
        <time>2020-09-20T07:48:47Z</time>
      </trkpt>
      <trkpt lat="40.7909710" lon="-8.1417490">
        <ele>607.6</ele>
        <time>2020-09-20T07:48:52Z</time>
      </trkpt>
      <trkpt lat="40.7910660" lon="-8.1417770">
        <ele>608.6</ele>
        <time>2020-09-20T07:48:57Z</time>
      </trkpt>
      <trkpt lat="40.7910860" lon="-8.1417790">
        <ele>608.8</ele>
        <time>2020-09-20T07:48:58Z</time>
      </trkpt>
      <trkpt lat="40.7911660" lon="-8.1417800">
        <ele>609.8</ele>
        <time>2020-09-20T07:49:02Z</time>
      </trkpt>
      <trkpt lat="40.7912220" lon="-8.1417730">
        <ele>611.2</ele>
        <time>2020-09-20T07:49:05Z</time>
      </trkpt>
      <trkpt lat="40.7913160" lon="-8.1417310">
        <ele>612.4</ele>
        <time>2020-09-20T07:49:10Z</time>
      </trkpt>
      <trkpt lat="40.7913990" lon="-8.1416560">
        <ele>613.4</ele>
        <time>2020-09-20T07:49:15Z</time>
      </trkpt>
      <trkpt lat="40.7914150" lon="-8.1416410">
        <ele>613.6</ele>
        <time>2020-09-20T07:49:16Z</time>
      </trkpt>
      <trkpt lat="40.7915190" lon="-8.1415480">
        <ele>614.6</ele>
        <time>2020-09-20T07:49:22Z</time>
      </trkpt>
      <trkpt lat="40.7916080" lon="-8.1415450">
        <ele>615.8</ele>
        <time>2020-09-20T07:49:27Z</time>
      </trkpt>
      <trkpt lat="40.7916890" lon="-8.1415690">
        <ele>617.0</ele>
        <time>2020-09-20T07:49:32Z</time>
      </trkpt>
      <trkpt lat="40.7917830" lon="-8.1416010">
        <ele>618.0</ele>
        <time>2020-09-20T07:49:38Z</time>
      </trkpt>
      <trkpt lat="40.7918280" lon="-8.1416130">
        <ele>619.2</ele>
        <time>2020-09-20T07:49:41Z</time>
      </trkpt>
      <trkpt lat="40.7919280" lon="-8.1416420">
        <ele>620.6</ele>
        <time>2020-09-20T07:49:47Z</time>
      </trkpt>
      <trkpt lat="40.7919740" lon="-8.1416610">
        <ele>621.6</ele>
        <time>2020-09-20T07:49:50Z</time>
      </trkpt>
      <trkpt lat="40.7920240" lon="-8.1416800">
        <ele>622.6</ele>
        <time>2020-09-20T07:49:53Z</time>
      </trkpt>
      <trkpt lat="40.7920390" lon="-8.1416870">
        <ele>622.8</ele>
        <time>2020-09-20T07:49:54Z</time>
      </trkpt>
      <trkpt lat="40.7921100" lon="-8.1417130">
        <ele>623.8</ele>
        <time>2020-09-20T07:49:58Z</time>
      </trkpt>
      <trkpt lat="40.7922000" lon="-8.1417510">
        <ele>624.8</ele>
        <time>2020-09-20T07:50:03Z</time>
      </trkpt>
      <trkpt lat="40.7923160" lon="-8.1417980">
        <ele>626.0</ele>
        <time>2020-09-20T07:50:09Z</time>
      </trkpt>
      <trkpt lat="40.7923530" lon="-8.1418140">
        <ele>626.6</ele>
        <time>2020-09-20T07:50:11Z</time>
      </trkpt>
      <trkpt lat="40.7923920" lon="-8.1418320">
        <ele>627.2</ele>
        <time>2020-09-20T07:50:13Z</time>
      </trkpt>
      <trkpt lat="40.7924740" lon="-8.1418680">
        <ele>627.8</ele>
        <time>2020-09-20T07:50:17Z</time>
      </trkpt>
      <trkpt lat="40.7925230" lon="-8.1418970">
        <ele>628.2</ele>
        <time>2020-09-20T07:50:20Z</time>
      </trkpt>
      <trkpt lat="40.7925970" lon="-8.1419610">
        <ele>629.6</ele>
        <time>2020-09-20T07:50:25Z</time>
      </trkpt>
      <trkpt lat="40.7926220" lon="-8.1420560">
        <ele>630.8</ele>
        <time>2020-09-20T07:50:30Z</time>
      </trkpt>
      <trkpt lat="40.7926130" lon="-8.1421500">
        <ele>632.0</ele>
        <time>2020-09-20T07:50:34Z</time>
      </trkpt>
      <trkpt lat="40.7925740" lon="-8.1422450">
        <ele>633.2</ele>
        <time>2020-09-20T07:50:39Z</time>
      </trkpt>
      <trkpt lat="40.7925240" lon="-8.1423650">
        <ele>634.6</ele>
        <time>2020-09-20T07:50:45Z</time>
      </trkpt>
      <trkpt lat="40.7924850" lon="-8.1424640">
        <ele>635.8</ele>
        <time>2020-09-20T07:50:50Z</time>
      </trkpt>
      <trkpt lat="40.7924300" lon="-8.1425610">
        <ele>637.0</ele>
        <time>2020-09-20T07:50:55Z</time>
      </trkpt>
      <trkpt lat="40.7923550" lon="-8.1426820">
        <ele>638.2</ele>
        <time>2020-09-20T07:51:01Z</time>
      </trkpt>
      <trkpt lat="40.7923080" lon="-8.1427920">
        <ele>639.2</ele>
        <time>2020-09-20T07:51:06Z</time>
      </trkpt>
      <trkpt lat="40.7922740" lon="-8.1428770">
        <ele>640.0</ele>
        <time>2020-09-20T07:51:10Z</time>
      </trkpt>
      <trkpt lat="40.7922410" lon="-8.1429650">
        <ele>640.4</ele>
        <time>2020-09-20T07:51:14Z</time>
      </trkpt>
      <trkpt lat="40.7922310" lon="-8.1430670">
        <ele>641.6</ele>
        <time>2020-09-20T07:51:18Z</time>
      </trkpt>
      <trkpt lat="40.7922420" lon="-8.1431430">
        <ele>642.6</ele>
        <time>2020-09-20T07:51:21Z</time>
      </trkpt>
      <trkpt lat="40.7922730" lon="-8.1432680">
        <ele>643.8</ele>
        <time>2020-09-20T07:51:26Z</time>
      </trkpt>
      <trkpt lat="40.7922980" lon="-8.1433400">
        <ele>644.6</ele>
        <time>2020-09-20T07:51:29Z</time>
      </trkpt>
      <trkpt lat="40.7923090" lon="-8.1433630">
        <ele>645.0</ele>
        <time>2020-09-20T07:51:30Z</time>
      </trkpt>
      <trkpt lat="40.7923470" lon="-8.1434330">
        <ele>645.8</ele>
        <time>2020-09-20T07:51:33Z</time>
      </trkpt>
      <trkpt lat="40.7923580" lon="-8.1434560">
        <ele>646.0</ele>
        <time>2020-09-20T07:51:34Z</time>
      </trkpt>
      <trkpt lat="40.7924020" lon="-8.1435530">
        <ele>646.8</ele>
        <time>2020-09-20T07:51:38Z</time>
      </trkpt>
      <trkpt lat="40.7924220" lon="-8.1436030">
        <ele>647.0</ele>
        <time>2020-09-20T07:51:40Z</time>
      </trkpt>
      <trkpt lat="40.7924670" lon="-8.1437560">
        <ele>648.2</ele>
        <time>2020-09-20T07:51:46Z</time>
      </trkpt>
      <trkpt lat="40.7925000" lon="-8.1439020">
        <ele>649.4</ele>
        <time>2020-09-20T07:51:52Z</time>
      </trkpt>
      <trkpt lat="40.7925070" lon="-8.1439530">
        <ele>649.8</ele>
        <time>2020-09-20T07:51:54Z</time>
      </trkpt>
      <trkpt lat="40.7925180" lon="-8.1440310">
        <ele>650.6</ele>
        <time>2020-09-20T07:51:57Z</time>
      </trkpt>
      <trkpt lat="40.7925160" lon="-8.1442760">
        <ele>651.4</ele>
        <time>2020-09-20T07:52:05Z</time>
      </trkpt>
      <trkpt lat="40.7925170" lon="-8.1443390">
        <ele>651.6</ele>
        <time>2020-09-20T07:52:07Z</time>
      </trkpt>
      <trkpt lat="40.7925280" lon="-8.1445920">
        <ele>652.6</ele>
        <time>2020-09-20T07:52:15Z</time>
      </trkpt>
      <trkpt lat="40.7925290" lon="-8.1446260">
        <ele>652.6</ele>
        <time>2020-09-20T07:52:16Z</time>
      </trkpt>
      <trkpt lat="40.7925240" lon="-8.1448850">
        <ele>653.0</ele>
        <time>2020-09-20T07:52:24Z</time>
      </trkpt>
      <trkpt lat="40.7925210" lon="-8.1449450">
        <ele>653.0</ele>
        <time>2020-09-20T07:52:26Z</time>
      </trkpt>
      <trkpt lat="40.7925180" lon="-8.1449750">
        <ele>653.4</ele>
        <time>2020-09-20T07:52:27Z</time>
      </trkpt>
      <trkpt lat="40.7925090" lon="-8.1450380">
        <ele>653.6</ele>
        <time>2020-09-20T07:52:29Z</time>
      </trkpt>
      <trkpt lat="40.7925040" lon="-8.1450660">
        <ele>654.0</ele>
        <time>2020-09-20T07:52:30Z</time>
      </trkpt>
      <trkpt lat="40.7924510" lon="-8.1452070">
        <ele>655.0</ele>
        <time>2020-09-20T07:52:35Z</time>
      </trkpt>
      <trkpt lat="40.7923160" lon="-8.1453900">
        <ele>655.4</ele>
        <time>2020-09-20T07:52:43Z</time>
      </trkpt>
      <trkpt lat="40.7922560" lon="-8.1454900">
        <ele>655.8</ele>
        <time>2020-09-20T07:52:47Z</time>
      </trkpt>
      <trkpt lat="40.7922960" lon="-8.1455680">
        <ele>656.8</ele>
        <time>2020-09-20T07:56:01Z</time>
      </trkpt>
      <trkpt lat="40.7922760" lon="-8.1455710">
        <ele>656.8</ele>
        <time>2020-09-20T07:56:02Z</time>
      </trkpt>
      <trkpt lat="40.7922510" lon="-8.1455880">
        <ele>656.8</ele>
        <time>2020-09-20T07:56:03Z</time>
      </trkpt>
      <trkpt lat="40.7920780" lon="-8.1457250">
        <ele>656.8</ele>
        <time>2020-09-20T07:56:09Z</time>
      </trkpt>
      <trkpt lat="40.7920450" lon="-8.1457420">
        <ele>656.6</ele>
        <time>2020-09-20T07:56:10Z</time>
      </trkpt>
      <trkpt lat="40.7920120" lon="-8.1457570">
        <ele>656.6</ele>
        <time>2020-09-20T07:56:11Z</time>
      </trkpt>
      <trkpt lat="40.7918720" lon="-8.1457930">
        <ele>656.2</ele>
        <time>2020-09-20T07:56:15Z</time>
      </trkpt>
      <trkpt lat="40.7918070" lon="-8.1458110">
        <ele>656.0</ele>
        <time>2020-09-20T07:56:17Z</time>
      </trkpt>
      <trkpt lat="40.7917720" lon="-8.1458230">
        <ele>655.8</ele>
        <time>2020-09-20T07:56:18Z</time>
      </trkpt>
      <trkpt lat="40.7916380" lon="-8.1458750">
        <ele>655.0</ele>
        <time>2020-09-20T07:56:22Z</time>
      </trkpt>
      <trkpt lat="40.7915750" lon="-8.1458970">
        <ele>654.8</ele>
        <time>2020-09-20T07:56:24Z</time>
      </trkpt>
      <trkpt lat="40.7915130" lon="-8.1459190">
        <ele>654.4</ele>
        <time>2020-09-20T07:56:26Z</time>
      </trkpt>
      <trkpt lat="40.7914820" lon="-8.1459290">
        <ele>654.2</ele>
        <time>2020-09-20T07:56:27Z</time>
      </trkpt>
      <trkpt lat="40.7914520" lon="-8.1459390">
        <ele>654.2</ele>
        <time>2020-09-20T07:56:28Z</time>
      </trkpt>
      <trkpt lat="40.7913570" lon="-8.1459680">
        <ele>653.8</ele>
        <time>2020-09-20T07:56:31Z</time>
      </trkpt>
      <trkpt lat="40.7913250" lon="-8.1459770">
        <ele>653.6</ele>
        <time>2020-09-20T07:56:32Z</time>
      </trkpt>
      <trkpt lat="40.7912930" lon="-8.1459840">
        <ele>653.6</ele>
        <time>2020-09-20T07:56:33Z</time>
      </trkpt>
      <trkpt lat="40.7911770" lon="-8.1460380">
        <ele>653.4</ele>
        <time>2020-09-20T07:56:37Z</time>
      </trkpt>
      <trkpt lat="40.7910130" lon="-8.1461860">
        <ele>653.4</ele>
        <time>2020-09-20T07:56:44Z</time>
      </trkpt>
      <trkpt lat="40.7909970" lon="-8.1462160">
        <ele>653.4</ele>
        <time>2020-09-20T07:56:45Z</time>
      </trkpt>
      <trkpt lat="40.7908680" lon="-8.1464030">
        <ele>653.8</ele>
        <time>2020-09-20T07:56:52Z</time>
      </trkpt>
      <trkpt lat="40.7907530" lon="-8.1465770">
        <ele>654.8</ele>
        <time>2020-09-20T07:56:58Z</time>
      </trkpt>
      <trkpt lat="40.7907200" lon="-8.1466380">
        <ele>655.0</ele>
        <time>2020-09-20T07:57:00Z</time>
      </trkpt>
      <trkpt lat="40.7906410" lon="-8.1468770">
        <ele>655.8</ele>
        <time>2020-09-20T07:57:07Z</time>
      </trkpt>
      <trkpt lat="40.7905670" lon="-8.1471000">
        <ele>656.4</ele>
        <time>2020-09-20T07:57:14Z</time>
      </trkpt>
      <trkpt lat="40.7905300" lon="-8.1472610">
        <ele>656.8</ele>
        <time>2020-09-20T07:57:19Z</time>
      </trkpt>
      <trkpt lat="40.7905270" lon="-8.1474130">
        <ele>658.0</ele>
        <time>2020-09-20T07:57:23Z</time>
      </trkpt>
      <trkpt lat="40.7905350" lon="-8.1475640">
        <ele>659.2</ele>
        <time>2020-09-20T07:57:27Z</time>
      </trkpt>
      <trkpt lat="40.7905380" lon="-8.1476040">
        <ele>659.2</ele>
        <time>2020-09-20T07:57:28Z</time>
      </trkpt>
      <trkpt lat="40.7905710" lon="-8.1478440">
        <ele>659.4</ele>
        <time>2020-09-20T07:57:34Z</time>
      </trkpt>
      <trkpt lat="40.7906290" lon="-8.1480510">
        <ele>659.0</ele>
        <time>2020-09-20T07:57:40Z</time>
      </trkpt>
      <trkpt lat="40.7906710" lon="-8.1480320">
        <ele>658.6</ele>
        <time>2020-09-20T07:57:42Z</time>
      </trkpt>
      <trkpt lat="40.7906920" lon="-8.1479860">
        <ele>658.0</ele>
        <time>2020-09-20T07:57:44Z</time>
      </trkpt>
      <trkpt lat="40.7907140" lon="-8.1478530">
        <ele>657.8</ele>
        <time>2020-09-20T07:57:49Z</time>
      </trkpt>
      <trkpt lat="40.7907340" lon="-8.1477760">
        <ele>658.4</ele>
        <time>2020-09-20T07:57:52Z</time>
      </trkpt>
      <trkpt lat="40.7907550" lon="-8.1477010">
        <ele>659.2</ele>
        <time>2020-09-20T07:57:55Z</time>
      </trkpt>
      <trkpt lat="40.7907690" lon="-8.1476340">
        <ele>660.2</ele>
        <time>2020-09-20T07:57:58Z</time>
      </trkpt>
      <trkpt lat="40.7907880" lon="-8.1475680">
        <ele>661.2</ele>
        <time>2020-09-20T07:58:01Z</time>
      </trkpt>
      <trkpt lat="40.7908150" lon="-8.1475100">
        <ele>662.2</ele>
        <time>2020-09-20T07:58:04Z</time>
      </trkpt>
      <trkpt lat="40.7908250" lon="-8.1474910">
        <ele>662.2</ele>
        <time>2020-09-20T07:58:05Z</time>
      </trkpt>
      <trkpt lat="40.7908690" lon="-8.1474230">
        <ele>663.4</ele>
        <time>2020-09-20T07:58:09Z</time>
      </trkpt>
      <trkpt lat="40.7909200" lon="-8.1473400">
        <ele>664.8</ele>
        <time>2020-09-20T07:58:14Z</time>
      </trkpt>
      <trkpt lat="40.7909630" lon="-8.1472760">
        <ele>666.0</ele>
        <time>2020-09-20T07:58:18Z</time>
      </trkpt>
      <trkpt lat="40.7910300" lon="-8.1472130">
        <ele>667.4</ele>
        <time>2020-09-20T07:58:23Z</time>
      </trkpt>
      <trkpt lat="40.7910950" lon="-8.1471660">
        <ele>668.8</ele>
        <time>2020-09-20T07:58:27Z</time>
      </trkpt>
      <trkpt lat="40.7911400" lon="-8.1471320">
        <ele>669.8</ele>
        <time>2020-09-20T07:58:30Z</time>
      </trkpt>
      <trkpt lat="40.7912180" lon="-8.1471000">
        <ele>671.0</ele>
        <time>2020-09-20T07:58:35Z</time>
      </trkpt>
      <trkpt lat="40.7912660" lon="-8.1470860">
        <ele>672.0</ele>
        <time>2020-09-20T07:58:38Z</time>
      </trkpt>
      <trkpt lat="40.7913590" lon="-8.1470650">
        <ele>673.4</ele>
        <time>2020-09-20T07:58:44Z</time>
      </trkpt>
      <trkpt lat="40.7914170" lon="-8.1470560">
        <ele>674.6</ele>
        <time>2020-09-20T07:58:48Z</time>
      </trkpt>
      <trkpt lat="40.7914850" lon="-8.1470600">
        <ele>675.8</ele>
        <time>2020-09-20T07:58:52Z</time>
      </trkpt>
      <trkpt lat="40.7915910" lon="-8.1470920">
        <ele>676.8</ele>
        <time>2020-09-20T07:58:58Z</time>
      </trkpt>
      <trkpt lat="40.7916400" lon="-8.1471190">
        <ele>678.0</ele>
        <time>2020-09-20T07:59:01Z</time>
      </trkpt>
      <trkpt lat="40.7917050" lon="-8.1471690">
        <ele>679.0</ele>
        <time>2020-09-20T07:59:05Z</time>
      </trkpt>
      <trkpt lat="40.7918010" lon="-8.1472610">
        <ele>680.4</ele>
        <time>2020-09-20T07:59:11Z</time>
      </trkpt>
      <trkpt lat="40.7918820" lon="-8.1473440">
        <ele>681.4</ele>
        <time>2020-09-20T07:59:16Z</time>
      </trkpt>
      <trkpt lat="40.7919990" lon="-8.1474130">
        <ele>682.4</ele>
        <time>2020-09-20T07:59:22Z</time>
      </trkpt>
      <trkpt lat="40.7921140" lon="-8.1474240">
        <ele>683.6</ele>
        <time>2020-09-20T07:59:27Z</time>
      </trkpt>
      <trkpt lat="40.7922690" lon="-8.1473360">
        <ele>684.8</ele>
        <time>2020-09-20T07:59:35Z</time>
      </trkpt>
      <trkpt lat="40.7923250" lon="-8.1472730">
        <ele>685.8</ele>
        <time>2020-09-20T07:59:39Z</time>
      </trkpt>
      <trkpt lat="40.7923530" lon="-8.1472400">
        <ele>686.4</ele>
        <time>2020-09-20T07:59:41Z</time>
      </trkpt>
      <trkpt lat="40.7923780" lon="-8.1472070">
        <ele>687.0</ele>
        <time>2020-09-20T07:59:43Z</time>
      </trkpt>
      <trkpt lat="40.7924420" lon="-8.1471320">
        <ele>688.4</ele>
        <time>2020-09-20T07:59:48Z</time>
      </trkpt>
      <trkpt lat="40.7925150" lon="-8.1470680">
        <ele>689.8</ele>
        <time>2020-09-20T07:59:53Z</time>
      </trkpt>
      <trkpt lat="40.7925800" lon="-8.1470220">
        <ele>690.8</ele>
        <time>2020-09-20T07:59:57Z</time>
      </trkpt>
      <trkpt lat="40.7926610" lon="-8.1469840">
        <ele>692.0</ele>
        <time>2020-09-20T08:00:02Z</time>
      </trkpt>
      <trkpt lat="40.7927440" lon="-8.1469610">
        <ele>693.0</ele>
        <time>2020-09-20T08:00:07Z</time>
      </trkpt>
      <trkpt lat="40.7928110" lon="-8.1469640">
        <ele>694.0</ele>
        <time>2020-09-20T08:00:11Z</time>
      </trkpt>
      <trkpt lat="40.7929300" lon="-8.1469450">
        <ele>695.2</ele>
        <time>2020-09-20T08:00:17Z</time>
      </trkpt>
      <trkpt lat="40.7930430" lon="-8.1468500">
        <ele>696.2</ele>
        <time>2020-09-20T08:00:23Z</time>
      </trkpt>
      <trkpt lat="40.7930930" lon="-8.1467630">
        <ele>697.4</ele>
        <time>2020-09-20T08:00:27Z</time>
      </trkpt>
      <trkpt lat="40.7931500" lon="-8.1466280">
        <ele>698.6</ele>
        <time>2020-09-20T08:00:33Z</time>
      </trkpt>
      <trkpt lat="40.7932190" lon="-8.1465070">
        <ele>699.8</ele>
        <time>2020-09-20T08:00:39Z</time>
      </trkpt>
      <trkpt lat="40.7932700" lon="-8.1464340">
        <ele>701.0</ele>
        <time>2020-09-20T08:00:43Z</time>
      </trkpt>
      <trkpt lat="40.7933290" lon="-8.1463740">
        <ele>702.0</ele>
        <time>2020-09-20T08:00:47Z</time>
      </trkpt>
      <trkpt lat="40.7933970" lon="-8.1462940">
        <ele>703.2</ele>
        <time>2020-09-20T08:00:52Z</time>
      </trkpt>
      <trkpt lat="40.7935060" lon="-8.1461980">
        <ele>704.2</ele>
        <time>2020-09-20T08:00:59Z</time>
      </trkpt>
      <trkpt lat="40.7935800" lon="-8.1461240">
        <ele>705.6</ele>
        <time>2020-09-20T08:01:04Z</time>
      </trkpt>
      <trkpt lat="40.7936560" lon="-8.1460590">
        <ele>706.6</ele>
        <time>2020-09-20T08:01:09Z</time>
      </trkpt>
      <trkpt lat="40.7937520" lon="-8.1460020">
        <ele>707.8</ele>
        <time>2020-09-20T08:01:15Z</time>
      </trkpt>
      <trkpt lat="40.7938790" lon="-8.1459920">
        <ele>709.0</ele>
        <time>2020-09-20T08:01:23Z</time>
      </trkpt>
      <trkpt lat="40.7939440" lon="-8.1460090">
        <ele>710.2</ele>
        <time>2020-09-20T08:01:27Z</time>
      </trkpt>
      <trkpt lat="40.7940260" lon="-8.1460400">
        <ele>711.4</ele>
        <time>2020-09-20T08:01:32Z</time>
      </trkpt>
      <trkpt lat="40.7941220" lon="-8.1460760">
        <ele>712.6</ele>
        <time>2020-09-20T08:01:37Z</time>
      </trkpt>
      <trkpt lat="40.7942010" lon="-8.1461080">
        <ele>713.8</ele>
        <time>2020-09-20T08:01:41Z</time>
      </trkpt>
      <trkpt lat="40.7942830" lon="-8.1461300">
        <ele>714.8</ele>
        <time>2020-09-20T08:01:45Z</time>
      </trkpt>
      <trkpt lat="40.7943690" lon="-8.1461470">
        <ele>715.8</ele>
        <time>2020-09-20T08:01:49Z</time>
      </trkpt>
      <trkpt lat="40.7945490" lon="-8.1461710">
        <ele>716.8</ele>
        <time>2020-09-20T08:01:57Z</time>
      </trkpt>
      <trkpt lat="40.7946140" lon="-8.1461750">
        <ele>717.2</ele>
        <time>2020-09-20T08:02:00Z</time>
      </trkpt>
      <trkpt lat="40.7947480" lon="-8.1461550">
        <ele>718.4</ele>
        <time>2020-09-20T08:02:07Z</time>
      </trkpt>
      <trkpt lat="40.7948380" lon="-8.1461420">
        <ele>719.6</ele>
        <time>2020-09-20T08:02:12Z</time>
      </trkpt>
      <trkpt lat="40.7949050" lon="-8.1461340">
        <ele>720.8</ele>
        <time>2020-09-20T08:02:16Z</time>
      </trkpt>
      <trkpt lat="40.7949520" lon="-8.1461280">
        <ele>722.2</ele>
        <time>2020-09-20T08:02:19Z</time>
      </trkpt>
      <trkpt lat="40.7950010" lon="-8.1461260">
        <ele>723.4</ele>
        <time>2020-09-20T08:02:22Z</time>
      </trkpt>
      <trkpt lat="40.7950780" lon="-8.1461250">
        <ele>724.4</ele>
        <time>2020-09-20T08:02:26Z</time>
      </trkpt>
      <trkpt lat="40.7951600" lon="-8.1461430">
        <ele>725.6</ele>
        <time>2020-09-20T08:02:30Z</time>
      </trkpt>
      <trkpt lat="40.7952530" lon="-8.1461410">
        <ele>726.6</ele>
        <time>2020-09-20T08:02:34Z</time>
      </trkpt>
      <trkpt lat="40.7952770" lon="-8.1461410">
        <ele>726.6</ele>
        <time>2020-09-20T08:02:35Z</time>
      </trkpt>
      <trkpt lat="40.7952990" lon="-8.1461400">
        <ele>726.8</ele>
        <time>2020-09-20T08:02:36Z</time>
      </trkpt>
      <trkpt lat="40.7954880" lon="-8.1460790">
        <ele>726.8</ele>
        <time>2020-09-20T08:02:43Z</time>
      </trkpt>
      <trkpt lat="40.7956430" lon="-8.1460140">
        <ele>726.4</ele>
        <time>2020-09-20T08:02:49Z</time>
      </trkpt>
      <trkpt lat="40.7956700" lon="-8.1460060">
        <ele>726.0</ele>
        <time>2020-09-20T08:02:50Z</time>
      </trkpt>
      <trkpt lat="40.7956940" lon="-8.1460000">
        <ele>725.8</ele>
        <time>2020-09-20T08:02:51Z</time>
      </trkpt>
      <trkpt lat="40.7957630" lon="-8.1459480">
        <ele>725.6</ele>
        <time>2020-09-20T08:02:54Z</time>
      </trkpt>
      <trkpt lat="40.7957840" lon="-8.1459200">
        <ele>725.4</ele>
        <time>2020-09-20T08:02:55Z</time>
      </trkpt>
      <trkpt lat="40.7958220" lon="-8.1458600">
        <ele>725.0</ele>
        <time>2020-09-20T08:02:57Z</time>
      </trkpt>
      <trkpt lat="40.7958650" lon="-8.1456950">
        <ele>724.4</ele>
        <time>2020-09-20T08:03:02Z</time>
      </trkpt>
      <trkpt lat="40.7958560" lon="-8.1454390">
        <ele>725.0</ele>
        <time>2020-09-20T08:03:12Z</time>
      </trkpt>
      <trkpt lat="40.7958500" lon="-8.1453880">
        <ele>725.4</ele>
        <time>2020-09-20T08:03:14Z</time>
      </trkpt>
      <trkpt lat="40.7958320" lon="-8.1452510">
        <ele>726.6</ele>
        <time>2020-09-20T08:03:19Z</time>
      </trkpt>
      <trkpt lat="40.7958080" lon="-8.1451340">
        <ele>727.8</ele>
        <time>2020-09-20T08:03:24Z</time>
      </trkpt>
      <trkpt lat="40.7957730" lon="-8.1450680">
        <ele>729.0</ele>
        <time>2020-09-20T08:03:27Z</time>
      </trkpt>
      <trkpt lat="40.7956990" lon="-8.1449560">
        <ele>730.0</ele>
        <time>2020-09-20T08:03:32Z</time>
      </trkpt>
      <trkpt lat="40.7956500" lon="-8.1448650">
        <ele>731.0</ele>
        <time>2020-09-20T08:03:36Z</time>
      </trkpt>
      <trkpt lat="40.7955720" lon="-8.1446380">
        <ele>732.0</ele>
        <time>2020-09-20T08:03:45Z</time>
      </trkpt>
      <trkpt lat="40.7955630" lon="-8.1445470">
        <ele>733.2</ele>
        <time>2020-09-20T08:03:48Z</time>
      </trkpt>
      <trkpt lat="40.7955710" lon="-8.1443050">
        <ele>734.2</ele>
        <time>2020-09-20T08:03:56Z</time>
      </trkpt>
      <trkpt lat="40.7955770" lon="-8.1442750">
        <ele>734.2</ele>
        <time>2020-09-20T08:03:57Z</time>
      </trkpt>
      <trkpt lat="40.7956430" lon="-8.1440740">
        <ele>734.6</ele>
        <time>2020-09-20T08:04:04Z</time>
      </trkpt>
      <trkpt lat="40.7957380" lon="-8.1438710">
        <ele>735.0</ele>
        <time>2020-09-20T08:04:12Z</time>
      </trkpt>
      <trkpt lat="40.7957920" lon="-8.1437810">
        <ele>735.4</ele>
        <time>2020-09-20T08:04:16Z</time>
      </trkpt>
      <trkpt lat="40.7958740" lon="-8.1436560">
        <ele>736.4</ele>
        <time>2020-09-20T08:04:22Z</time>
      </trkpt>
      <trkpt lat="40.7959500" lon="-8.1435530">
        <ele>737.6</ele>
        <time>2020-09-20T08:04:27Z</time>
      </trkpt>
      <trkpt lat="40.7960460" lon="-8.1434220">
        <ele>738.6</ele>
        <time>2020-09-20T08:04:33Z</time>
      </trkpt>
      <trkpt lat="40.7961710" lon="-8.1432480">
        <ele>739.4</ele>
        <time>2020-09-20T08:04:40Z</time>
      </trkpt>
      <trkpt lat="40.7961870" lon="-8.1432170">
        <ele>739.6</ele>
        <time>2020-09-20T08:04:41Z</time>
      </trkpt>
      <trkpt lat="40.7962600" lon="-8.1430070">
        <ele>739.8</ele>
        <time>2020-09-20T08:04:47Z</time>
      </trkpt>
      <trkpt lat="40.7963420" lon="-8.1427530">
        <ele>738.6</ele>
        <time>2020-09-20T08:04:54Z</time>
      </trkpt>
      <trkpt lat="40.7963550" lon="-8.1427180">
        <ele>738.4</ele>
        <time>2020-09-20T08:04:55Z</time>
      </trkpt>
      <trkpt lat="40.7964280" lon="-8.1425080">
        <ele>737.4</ele>
        <time>2020-09-20T08:05:01Z</time>
      </trkpt>
      <trkpt lat="40.7964740" lon="-8.1423710">
        <ele>736.8</ele>
        <time>2020-09-20T08:05:05Z</time>
      </trkpt>
      <trkpt lat="40.7965090" lon="-8.1422590">
        <ele>736.4</ele>
        <time>2020-09-20T08:05:08Z</time>
      </trkpt>
      <trkpt lat="40.7965790" lon="-8.1420160">
        <ele>735.4</ele>
        <time>2020-09-20T08:05:15Z</time>
      </trkpt>
      <trkpt lat="40.7966020" lon="-8.1419520">
        <ele>735.2</ele>
        <time>2020-09-20T08:05:17Z</time>
      </trkpt>
      <trkpt lat="40.7966360" lon="-8.1418140">
        <ele>734.2</ele>
        <time>2020-09-20T08:05:21Z</time>
      </trkpt>
      <trkpt lat="40.7966730" lon="-8.1415660">
        <ele>733.8</ele>
        <time>2020-09-20T08:05:28Z</time>
      </trkpt>
      <trkpt lat="40.7967260" lon="-8.1413150">
        <ele>733.4</ele>
        <time>2020-09-20T08:05:35Z</time>
      </trkpt>
      <trkpt lat="40.7967670" lon="-8.1410910">
        <ele>733.0</ele>
        <time>2020-09-20T08:05:41Z</time>
      </trkpt>
      <trkpt lat="40.7967890" lon="-8.1408490">
        <ele>732.8</ele>
        <time>2020-09-20T08:05:48Z</time>
      </trkpt>
      <trkpt lat="40.7968000" lon="-8.1405950">
        <ele>732.4</ele>
        <time>2020-09-20T08:05:55Z</time>
      </trkpt>
      <trkpt lat="40.7968420" lon="-8.1403570">
        <ele>732.4</ele>
        <time>2020-09-20T08:06:02Z</time>
      </trkpt>
      <trkpt lat="40.7969230" lon="-8.1401170">
        <ele>732.8</ele>
        <time>2020-09-20T08:06:10Z</time>
      </trkpt>
      <trkpt lat="40.7970490" lon="-8.1399240">
        <ele>733.6</ele>
        <time>2020-09-20T08:06:18Z</time>
      </trkpt>
      <trkpt lat="40.7970810" lon="-8.1398790">
        <ele>734.0</ele>
        <time>2020-09-20T08:06:20Z</time>
      </trkpt>
      <trkpt lat="40.7972060" lon="-8.1397040">
        <ele>735.0</ele>
        <time>2020-09-20T08:06:28Z</time>
      </trkpt>
      <trkpt lat="40.7972250" lon="-8.1396800">
        <ele>735.0</ele>
        <time>2020-09-20T08:06:29Z</time>
      </trkpt>
      <trkpt lat="40.7972770" lon="-8.1396040">
        <ele>735.6</ele>
        <time>2020-09-20T08:06:32Z</time>
      </trkpt>
      <trkpt lat="40.7972950" lon="-8.1395180">
        <ele>736.8</ele>
        <time>2020-09-20T08:08:07Z</time>
      </trkpt>
      <trkpt lat="40.7973100" lon="-8.1395040">
        <ele>736.8</ele>
        <time>2020-09-20T08:08:08Z</time>
      </trkpt>
      <trkpt lat="40.7974570" lon="-8.1393350">
        <ele>736.8</ele>
        <time>2020-09-20T08:08:14Z</time>
      </trkpt>
      <trkpt lat="40.7975140" lon="-8.1392850">
        <ele>736.8</ele>
        <time>2020-09-20T08:08:16Z</time>
      </trkpt>
      <trkpt lat="40.7975440" lon="-8.1392610">
        <ele>736.8</ele>
        <time>2020-09-20T08:08:17Z</time>
      </trkpt>
      <trkpt lat="40.7975730" lon="-8.1392350">
        <ele>736.6</ele>
        <time>2020-09-20T08:08:18Z</time>
      </trkpt>
      <trkpt lat="40.7977320" lon="-8.1391340">
        <ele>735.4</ele>
        <time>2020-09-20T08:08:23Z</time>
      </trkpt>
      <trkpt lat="40.7978860" lon="-8.1390080">
        <ele>733.6</ele>
        <time>2020-09-20T08:08:28Z</time>
      </trkpt>
      <trkpt lat="40.7979520" lon="-8.1388940">
        <ele>732.4</ele>
        <time>2020-09-20T08:08:31Z</time>
      </trkpt>
      <trkpt lat="40.7979810" lon="-8.1388100">
        <ele>731.0</ele>
        <time>2020-09-20T08:08:33Z</time>
      </trkpt>
      <trkpt lat="40.7980150" lon="-8.1386800">
        <ele>729.8</ele>
        <time>2020-09-20T08:08:36Z</time>
      </trkpt>
      <trkpt lat="40.7980250" lon="-8.1386380">
        <ele>729.8</ele>
        <time>2020-09-20T08:08:37Z</time>
      </trkpt>
      <trkpt lat="40.7980510" lon="-8.1385640">
        <ele>728.8</ele>
        <time>2020-09-20T08:08:39Z</time>
      </trkpt>
      <trkpt lat="40.7981030" lon="-8.1384620">
        <ele>727.4</ele>
        <time>2020-09-20T08:08:42Z</time>
      </trkpt>
      <trkpt lat="40.7981750" lon="-8.1383900">
        <ele>726.2</ele>
        <time>2020-09-20T08:08:45Z</time>
      </trkpt>
      <trkpt lat="40.7982040" lon="-8.1383720">
        <ele>725.2</ele>
        <time>2020-09-20T08:08:46Z</time>
      </trkpt>
      <trkpt lat="40.7982920" lon="-8.1383150">
        <ele>724.2</ele>
        <time>2020-09-20T08:08:49Z</time>
      </trkpt>
      <trkpt lat="40.7983750" lon="-8.1382420">
        <ele>723.0</ele>
        <time>2020-09-20T08:08:52Z</time>
      </trkpt>
      <trkpt lat="40.7984880" lon="-8.1380860">
        <ele>722.0</ele>
        <time>2020-09-20T08:08:57Z</time>
      </trkpt>
      <trkpt lat="40.7985930" lon="-8.1378570">
        <ele>721.0</ele>
        <time>2020-09-20T08:09:03Z</time>
      </trkpt>
      <trkpt lat="40.7986400" lon="-8.1376250">
        <ele>720.2</ele>
        <time>2020-09-20T08:09:09Z</time>
      </trkpt>
      <trkpt lat="40.7986910" lon="-8.1374890">
        <ele>720.4</ele>
        <time>2020-09-20T08:09:13Z</time>
      </trkpt>
      <trkpt lat="40.7987180" lon="-8.1374300">
        <ele>720.4</ele>
        <time>2020-09-20T08:09:15Z</time>
      </trkpt>
      <trkpt lat="40.7988930" lon="-8.1372850">
        <ele>721.4</ele>
        <time>2020-09-20T08:09:23Z</time>
      </trkpt>
      <trkpt lat="40.7990710" lon="-8.1372230">
        <ele>721.6</ele>
        <time>2020-09-20T08:09:30Z</time>
      </trkpt>
      <trkpt lat="40.7992480" lon="-8.1371570">
        <ele>721.4</ele>
        <time>2020-09-20T08:09:36Z</time>
      </trkpt>
      <trkpt lat="40.7994220" lon="-8.1370720">
        <ele>721.0</ele>
        <time>2020-09-20T08:09:42Z</time>
      </trkpt>
      <trkpt lat="40.7995830" lon="-8.1369540">
        <ele>720.4</ele>
        <time>2020-09-20T08:09:48Z</time>
      </trkpt>
      <trkpt lat="40.7996840" lon="-8.1368780">
        <ele>719.8</ele>
        <time>2020-09-20T08:09:52Z</time>
      </trkpt>
      <trkpt lat="40.7998600" lon="-8.1367580">
        <ele>719.8</ele>
        <time>2020-09-20T08:09:59Z</time>
      </trkpt>
      <trkpt lat="40.8000500" lon="-8.1367150">
        <ele>719.2</ele>
        <time>2020-09-20T08:10:06Z</time>
      </trkpt>
      <trkpt lat="40.8001580" lon="-8.1367160">
        <ele>718.8</ele>
        <time>2020-09-20T08:10:10Z</time>
      </trkpt>
      <trkpt lat="40.8002380" lon="-8.1367150">
        <ele>718.6</ele>
        <time>2020-09-20T08:10:13Z</time>
      </trkpt>
      <trkpt lat="40.8003430" lon="-8.1367330">
        <ele>718.4</ele>
        <time>2020-09-20T08:10:17Z</time>
      </trkpt>
      <trkpt lat="40.8004010" lon="-8.1367420">
        <ele>717.6</ele>
        <time>2020-09-20T08:10:19Z</time>
      </trkpt>
      <trkpt lat="40.8005000" lon="-8.1367490">
        <ele>716.6</ele>
        <time>2020-09-20T08:10:22Z</time>
      </trkpt>
      <trkpt lat="40.8005940" lon="-8.1367480">
        <ele>715.2</ele>
        <time>2020-09-20T08:10:25Z</time>
      </trkpt>
      <trkpt lat="40.8006900" lon="-8.1367310">
        <ele>714.0</ele>
        <time>2020-09-20T08:10:28Z</time>
      </trkpt>
      <trkpt lat="40.8007910" lon="-8.1366400">
        <ele>713.0</ele>
        <time>2020-09-20T08:10:32Z</time>
      </trkpt>
      <trkpt lat="40.8008850" lon="-8.1365170">
        <ele>711.6</ele>
        <time>2020-09-20T08:10:36Z</time>
      </trkpt>
      <trkpt lat="40.8009440" lon="-8.1364150">
        <ele>710.0</ele>
        <time>2020-09-20T08:10:39Z</time>
      </trkpt>
      <trkpt lat="40.8010070" lon="-8.1363200">
        <ele>708.6</ele>
        <time>2020-09-20T08:10:42Z</time>
      </trkpt>
      <trkpt lat="40.8010720" lon="-8.1362330">
        <ele>707.6</ele>
        <time>2020-09-20T08:10:45Z</time>
      </trkpt>
      <trkpt lat="40.8011310" lon="-8.1361970">
        <ele>706.4</ele>
        <time>2020-09-20T08:10:47Z</time>
      </trkpt>
      <trkpt lat="40.8011950" lon="-8.1361670">
        <ele>705.2</ele>
        <time>2020-09-20T08:10:49Z</time>
      </trkpt>
      <trkpt lat="40.8013020" lon="-8.1361200">
        <ele>704.0</ele>
        <time>2020-09-20T08:10:53Z</time>
      </trkpt>
      <trkpt lat="40.8014700" lon="-8.1361640">
        <ele>704.0</ele>
        <time>2020-09-20T08:11:02Z</time>
      </trkpt>
      <trkpt lat="40.8014750" lon="-8.1363750">
        <ele>705.2</ele>
        <time>2020-09-20T08:11:09Z</time>
      </trkpt>
      <trkpt lat="40.8014790" lon="-8.1365000">
        <ele>706.2</ele>
        <time>2020-09-20T08:11:13Z</time>
      </trkpt>
      <trkpt lat="40.8014790" lon="-8.1366210">
        <ele>707.4</ele>
        <time>2020-09-20T08:11:17Z</time>
      </trkpt>
      <trkpt lat="40.8014710" lon="-8.1368220">
        <ele>708.4</ele>
        <time>2020-09-20T08:11:24Z</time>
      </trkpt>
      <trkpt lat="40.8014750" lon="-8.1369050">
        <ele>709.6</ele>
        <time>2020-09-20T08:11:27Z</time>
      </trkpt>
      <trkpt lat="40.8014830" lon="-8.1370460">
        <ele>711.2</ele>
        <time>2020-09-20T08:11:32Z</time>
      </trkpt>
      <trkpt lat="40.8015010" lon="-8.1371310">
        <ele>712.2</ele>
        <time>2020-09-20T08:11:35Z</time>
      </trkpt>
      <trkpt lat="40.8015220" lon="-8.1372100">
        <ele>713.4</ele>
        <time>2020-09-20T08:11:38Z</time>
      </trkpt>
      <trkpt lat="40.8015390" lon="-8.1372850">
        <ele>714.4</ele>
        <time>2020-09-20T08:11:41Z</time>
      </trkpt>
      <trkpt lat="40.8015460" lon="-8.1373110">
        <ele>714.6</ele>
        <time>2020-09-20T08:11:42Z</time>
      </trkpt>
      <trkpt lat="40.8015750" lon="-8.1374420">
        <ele>715.6</ele>
        <time>2020-09-20T08:11:47Z</time>
      </trkpt>
      <trkpt lat="40.8016070" lon="-8.1375710">
        <ele>716.8</ele>
        <time>2020-09-20T08:11:52Z</time>
      </trkpt>
      <trkpt lat="40.8016500" lon="-8.1376510">
        <ele>717.8</ele>
        <time>2020-09-20T08:11:56Z</time>
      </trkpt>
      <trkpt lat="40.8017460" lon="-8.1376470">
        <ele>718.4</ele>
        <time>2020-09-20T08:12:01Z</time>
      </trkpt>
      <trkpt lat="40.8017850" lon="-8.1375550">
        <ele>718.8</ele>
        <time>2020-09-20T08:12:04Z</time>
      </trkpt>
      <trkpt lat="40.8018480" lon="-8.1373240">
        <ele>719.4</ele>
        <time>2020-09-20T08:12:11Z</time>
      </trkpt>
      <trkpt lat="40.8018800" lon="-8.1372450">
        <ele>719.8</ele>
        <time>2020-09-20T08:12:14Z</time>
      </trkpt>
      <trkpt lat="40.8019790" lon="-8.1370410">
        <ele>720.8</ele>
        <time>2020-09-20T08:12:23Z</time>
      </trkpt>
      <trkpt lat="40.8019890" lon="-8.1370170">
        <ele>721.2</ele>
        <time>2020-09-20T08:12:24Z</time>
      </trkpt>
      <trkpt lat="40.8020080" lon="-8.1369470">
        <ele>722.4</ele>
        <time>2020-09-20T08:12:27Z</time>
      </trkpt>
      <trkpt lat="40.8020580" lon="-8.1368380">
        <ele>723.4</ele>
        <time>2020-09-20T08:12:32Z</time>
      </trkpt>
      <trkpt lat="40.8021280" lon="-8.1367530">
        <ele>724.8</ele>
        <time>2020-09-20T08:12:36Z</time>
      </trkpt>
      <trkpt lat="40.8022140" lon="-8.1366480">
        <ele>725.8</ele>
        <time>2020-09-20T08:12:41Z</time>
      </trkpt>
      <trkpt lat="40.8022900" lon="-8.1365110">
        <ele>727.0</ele>
        <time>2020-09-20T08:12:47Z</time>
      </trkpt>
      <trkpt lat="40.8023400" lon="-8.1364570">
        <ele>728.0</ele>
        <time>2020-09-20T08:12:50Z</time>
      </trkpt>
      <trkpt lat="40.8025330" lon="-8.1363960">
        <ele>729.0</ele>
        <time>2020-09-20T08:12:59Z</time>
      </trkpt>
      <trkpt lat="40.8026490" lon="-8.1363770">
        <ele>729.4</ele>
        <time>2020-09-20T08:13:04Z</time>
      </trkpt>
      <trkpt lat="40.8027660" lon="-8.1363250">
        <ele>730.8</ele>
        <time>2020-09-20T08:13:09Z</time>
      </trkpt>
      <trkpt lat="40.8028480" lon="-8.1362400">
        <ele>731.8</ele>
        <time>2020-09-20T08:13:13Z</time>
      </trkpt>
      <trkpt lat="40.8029480" lon="-8.1360310">
        <ele>732.4</ele>
        <time>2020-09-20T08:13:20Z</time>
      </trkpt>
      <trkpt lat="40.8031230" lon="-8.1359380">
        <ele>732.6</ele>
        <time>2020-09-20T08:13:28Z</time>
      </trkpt>
      <trkpt lat="40.8031670" lon="-8.1359300">
        <ele>732.8</ele>
        <time>2020-09-20T08:13:30Z</time>
      </trkpt>
      <trkpt lat="40.8032990" lon="-8.1359000">
        <ele>733.8</ele>
        <time>2020-09-20T08:13:36Z</time>
      </trkpt>
      <trkpt lat="40.8034860" lon="-8.1358680">
        <ele>734.6</ele>
        <time>2020-09-20T08:13:44Z</time>
      </trkpt>
      <trkpt lat="40.8035590" lon="-8.1358530">
        <ele>735.0</ele>
        <time>2020-09-20T08:13:47Z</time>
      </trkpt>
      <trkpt lat="40.8036830" lon="-8.1358210">
        <ele>736.0</ele>
        <time>2020-09-20T08:13:52Z</time>
      </trkpt>
      <trkpt lat="40.8038520" lon="-8.1356730">
        <ele>736.8</ele>
        <time>2020-09-20T08:14:00Z</time>
      </trkpt>
      <trkpt lat="40.8040190" lon="-8.1355420">
        <ele>737.0</ele>
        <time>2020-09-20T08:14:07Z</time>
      </trkpt>
      <trkpt lat="40.8041330" lon="-8.1354550">
        <ele>737.0</ele>
        <time>2020-09-20T08:14:12Z</time>
      </trkpt>
      <trkpt lat="40.8043090" lon="-8.1353430">
        <ele>736.8</ele>
        <time>2020-09-20T08:14:19Z</time>
      </trkpt>
      <trkpt lat="40.8044270" lon="-8.1352220">
        <ele>737.2</ele>
        <time>2020-09-20T08:14:25Z</time>
      </trkpt>
      <trkpt lat="40.8045680" lon="-8.1350680">
        <ele>737.6</ele>
        <time>2020-09-20T08:14:31Z</time>
      </trkpt>
      <trkpt lat="40.8046920" lon="-8.1348750">
        <ele>738.0</ele>
        <time>2020-09-20T08:14:38Z</time>
      </trkpt>
      <trkpt lat="40.8047380" lon="-8.1347870">
        <ele>738.2</ele>
        <time>2020-09-20T08:14:41Z</time>
      </trkpt>
      <trkpt lat="40.8048610" lon="-8.1345690">
        <ele>738.2</ele>
        <time>2020-09-20T08:14:49Z</time>
      </trkpt>
      <trkpt lat="40.8050160" lon="-8.1344400">
        <ele>738.6</ele>
        <time>2020-09-20T08:14:57Z</time>
      </trkpt>
      <trkpt lat="40.8051510" lon="-8.1343850">
        <ele>739.2</ele>
        <time>2020-09-20T08:15:03Z</time>
      </trkpt>
      <trkpt lat="40.8052390" lon="-8.1343920">
        <ele>740.4</ele>
        <time>2020-09-20T08:15:08Z</time>
      </trkpt>
      <trkpt lat="40.8053490" lon="-8.1343780">
        <ele>741.4</ele>
        <time>2020-09-20T08:15:13Z</time>
      </trkpt>
      <trkpt lat="40.8054670" lon="-8.1343600">
        <ele>742.4</ele>
        <time>2020-09-20T08:15:19Z</time>
      </trkpt>
      <trkpt lat="40.8055710" lon="-8.1342930">
        <ele>743.6</ele>
        <time>2020-09-20T08:15:24Z</time>
      </trkpt>
      <trkpt lat="40.8055860" lon="-8.1341600">
        <ele>744.2</ele>
        <time>2020-09-20T08:15:28Z</time>
      </trkpt>
      <trkpt lat="40.8055490" lon="-8.1339210">
        <ele>744.8</ele>
        <time>2020-09-20T08:15:35Z</time>
      </trkpt>
      <trkpt lat="40.8056220" lon="-8.1337320">
        <ele>745.8</ele>
        <time>2020-09-20T08:15:41Z</time>
      </trkpt>
      <trkpt lat="40.8057920" lon="-8.1336310">
        <ele>746.8</ele>
        <time>2020-09-20T08:15:49Z</time>
      </trkpt>
      <trkpt lat="40.8059100" lon="-8.1336040">
        <ele>748.0</ele>
        <time>2020-09-20T08:15:55Z</time>
      </trkpt>
      <trkpt lat="40.8059860" lon="-8.1335300">
        <ele>749.0</ele>
        <time>2020-09-20T08:16:00Z</time>
      </trkpt>
      <trkpt lat="40.8060280" lon="-8.1334390">
        <ele>749.8</ele>
        <time>2020-09-20T08:16:04Z</time>
      </trkpt>
      <trkpt lat="40.8060350" lon="-8.1334140">
        <ele>750.0</ele>
        <time>2020-09-20T08:16:05Z</time>
      </trkpt>
      <trkpt lat="40.8060640" lon="-8.1333330">
        <ele>751.4</ele>
        <time>2020-09-20T08:16:08Z</time>
      </trkpt>
      <trkpt lat="40.8060780" lon="-8.1330720">
        <ele>752.2</ele>
        <time>2020-09-20T08:16:16Z</time>
      </trkpt>
      <trkpt lat="40.8060760" lon="-8.1330370">
        <ele>752.4</ele>
        <time>2020-09-20T08:16:17Z</time>
      </trkpt>
      <trkpt lat="40.8060800" lon="-8.1329110">
        <ele>753.6</ele>
        <time>2020-09-20T08:16:21Z</time>
      </trkpt>
      <trkpt lat="40.8060880" lon="-8.1327240">
        <ele>754.6</ele>
        <time>2020-09-20T08:16:27Z</time>
      </trkpt>
      <trkpt lat="40.8060070" lon="-8.1324850">
        <ele>755.4</ele>
        <time>2020-09-20T08:16:35Z</time>
      </trkpt>
      <trkpt lat="40.8059610" lon="-8.1323710">
        <ele>755.8</ele>
        <time>2020-09-20T08:16:39Z</time>
      </trkpt>
      <trkpt lat="40.8059370" lon="-8.1322580">
        <ele>756.8</ele>
        <time>2020-09-20T08:16:43Z</time>
      </trkpt>
      <trkpt lat="40.8060040" lon="-8.1320190">
        <ele>757.4</ele>
        <time>2020-09-20T08:16:51Z</time>
      </trkpt>
      <trkpt lat="40.8060860" lon="-8.1317890">
        <ele>757.6</ele>
        <time>2020-09-20T08:16:59Z</time>
      </trkpt>
      <trkpt lat="40.8061230" lon="-8.1316670">
        <ele>758.0</ele>
        <time>2020-09-20T08:17:03Z</time>
      </trkpt>
      <trkpt lat="40.8061710" lon="-8.1315030">
        <ele>759.2</ele>
        <time>2020-09-20T08:17:08Z</time>
      </trkpt>
      <trkpt lat="40.8062310" lon="-8.1312750">
        <ele>759.8</ele>
        <time>2020-09-20T08:17:15Z</time>
      </trkpt>
      <trkpt lat="40.8063420" lon="-8.1310730">
        <ele>760.0</ele>
        <time>2020-09-20T08:17:23Z</time>
      </trkpt>
      <trkpt lat="40.8063990" lon="-8.1309460">
        <ele>760.2</ele>
        <time>2020-09-20T08:17:28Z</time>
      </trkpt>
      <trkpt lat="40.8064850" lon="-8.1308060">
        <ele>761.4</ele>
        <time>2020-09-20T08:17:34Z</time>
      </trkpt>
      <trkpt lat="40.8066110" lon="-8.1306090">
        <ele>762.4</ele>
        <time>2020-09-20T08:17:43Z</time>
      </trkpt>
      <trkpt lat="40.8066240" lon="-8.1305890">
        <ele>762.6</ele>
        <time>2020-09-20T08:17:44Z</time>
      </trkpt>
      <trkpt lat="40.8067140" lon="-8.1304380">
        <ele>763.6</ele>
        <time>2020-09-20T08:17:51Z</time>
      </trkpt>
      <trkpt lat="40.8067900" lon="-8.1303590">
        <ele>764.6</ele>
        <time>2020-09-20T08:17:56Z</time>
      </trkpt>
      <trkpt lat="40.8068950" lon="-8.1302600">
        <ele>765.8</ele>
        <time>2020-09-20T08:18:03Z</time>
      </trkpt>
      <trkpt lat="40.8069060" lon="-8.1302450">
        <ele>765.8</ele>
        <time>2020-09-20T08:18:04Z</time>
      </trkpt>
      <trkpt lat="40.8069540" lon="-8.1301930">
        <ele>766.8</ele>
        <time>2020-09-20T08:18:08Z</time>
      </trkpt>
      <trkpt lat="40.8070480" lon="-8.1301230">
        <ele>768.0</ele>
        <time>2020-09-20T08:18:14Z</time>
      </trkpt>
      <trkpt lat="40.8071050" lon="-8.1300720">
        <ele>769.0</ele>
        <time>2020-09-20T08:18:18Z</time>
      </trkpt>
      <trkpt lat="40.8071660" lon="-8.1299940">
        <ele>770.2</ele>
        <time>2020-09-20T08:18:23Z</time>
      </trkpt>
      <trkpt lat="40.8072450" lon="-8.1299040">
        <ele>771.4</ele>
        <time>2020-09-20T08:18:29Z</time>
      </trkpt>
      <trkpt lat="40.8072890" lon="-8.1298250">
        <ele>772.6</ele>
        <time>2020-09-20T08:18:33Z</time>
      </trkpt>
      <trkpt lat="40.8073380" lon="-8.1296980">
        <ele>773.6</ele>
        <time>2020-09-20T08:18:39Z</time>
      </trkpt>
      <trkpt lat="40.8073850" lon="-8.1296150">
        <ele>775.0</ele>
        <time>2020-09-20T08:18:43Z</time>
      </trkpt>
      <trkpt lat="40.8074710" lon="-8.1294720">
        <ele>776.2</ele>
        <time>2020-09-20T08:18:50Z</time>
      </trkpt>
      <trkpt lat="40.8075230" lon="-8.1294100">
        <ele>777.4</ele>
        <time>2020-09-20T08:18:54Z</time>
      </trkpt>
      <trkpt lat="40.8075840" lon="-8.1293280">
        <ele>778.4</ele>
        <time>2020-09-20T08:18:59Z</time>
      </trkpt>
      <trkpt lat="40.8076570" lon="-8.1292310">
        <ele>779.8</ele>
        <time>2020-09-20T08:19:05Z</time>
      </trkpt>
      <trkpt lat="40.8077340" lon="-8.1291620">
        <ele>781.0</ele>
        <time>2020-09-20T08:19:11Z</time>
      </trkpt>
      <trkpt lat="40.8078130" lon="-8.1290910">
        <ele>782.2</ele>
        <time>2020-09-20T08:19:16Z</time>
      </trkpt>
      <trkpt lat="40.8078610" lon="-8.1290460">
        <ele>783.4</ele>
        <time>2020-09-20T08:19:19Z</time>
      </trkpt>
      <trkpt lat="40.8079260" lon="-8.1289950">
        <ele>784.4</ele>
        <time>2020-09-20T08:19:23Z</time>
      </trkpt>
      <trkpt lat="40.8079690" lon="-8.1289650">
        <ele>785.8</ele>
        <time>2020-09-20T08:19:26Z</time>
      </trkpt>
      <trkpt lat="40.8080280" lon="-8.1289430">
        <ele>786.8</ele>
        <time>2020-09-20T08:19:30Z</time>
      </trkpt>
      <trkpt lat="40.8080720" lon="-8.1289350">
        <ele>788.0</ele>
        <time>2020-09-20T08:19:33Z</time>
      </trkpt>
      <trkpt lat="40.8081220" lon="-8.1289260">
        <ele>789.4</ele>
        <time>2020-09-20T08:19:36Z</time>
      </trkpt>
      <trkpt lat="40.8082120" lon="-8.1289040">
        <ele>790.8</ele>
        <time>2020-09-20T08:19:41Z</time>
      </trkpt>
      <trkpt lat="40.8082790" lon="-8.1288720">
        <ele>792.2</ele>
        <time>2020-09-20T08:19:45Z</time>
      </trkpt>
      <trkpt lat="40.8083210" lon="-8.1288440">
        <ele>793.2</ele>
        <time>2020-09-20T08:19:48Z</time>
      </trkpt>
      <trkpt lat="40.8083600" lon="-8.1288240">
        <ele>794.4</ele>
        <time>2020-09-20T08:19:52Z</time>
      </trkpt>
      <trkpt lat="40.8084090" lon="-8.1288140">
        <ele>795.6</ele>
        <time>2020-09-20T08:19:57Z</time>
      </trkpt>
      <trkpt lat="40.8084740" lon="-8.1287710">
        <ele>796.8</ele>
        <time>2020-09-20T08:20:04Z</time>
      </trkpt>
      <trkpt lat="40.8084930" lon="-8.1287590">
        <ele>797.4</ele>
        <time>2020-09-20T08:20:06Z</time>
      </trkpt>
      <trkpt lat="40.8085140" lon="-8.1287400">
        <ele>798.0</ele>
        <time>2020-09-20T08:20:09Z</time>
      </trkpt>
      <trkpt lat="40.8085700" lon="-8.1287050">
        <ele>798.8</ele>
        <time>2020-09-20T08:20:14Z</time>
      </trkpt>
      <trkpt lat="40.8085880" lon="-8.1286920">
        <ele>799.2</ele>
        <time>2020-09-20T08:20:16Z</time>
      </trkpt>
      <trkpt lat="40.8086120" lon="-8.1286580">
        <ele>800.4</ele>
        <time>2020-09-20T08:20:20Z</time>
      </trkpt>
      <trkpt lat="40.8086400" lon="-8.1286440">
        <ele>800.8</ele>
        <time>2020-09-20T08:20:22Z</time>
      </trkpt>
      <trkpt lat="40.8086500" lon="-8.1286350">
        <ele>801.0</ele>
        <time>2020-09-20T08:20:23Z</time>
      </trkpt>
      <trkpt lat="40.8086650" lon="-8.1286130">
        <ele>801.4</ele>
        <time>2020-09-20T08:20:25Z</time>
      </trkpt>
      <trkpt lat="40.8086720" lon="-8.1286040">
        <ele>801.8</ele>
        <time>2020-09-20T08:20:26Z</time>
      </trkpt>
      <trkpt lat="40.8087160" lon="-8.1285640">
        <ele>803.0</ele>
        <time>2020-09-20T08:20:31Z</time>
      </trkpt>
      <trkpt lat="40.8087660" lon="-8.1285350">
        <ele>804.2</ele>
        <time>2020-09-20T08:20:36Z</time>
      </trkpt>
      <trkpt lat="40.8088130" lon="-8.1284960">
        <ele>805.4</ele>
        <time>2020-09-20T08:20:40Z</time>
      </trkpt>
      <trkpt lat="40.8088810" lon="-8.1284590">
        <ele>806.4</ele>
        <time>2020-09-20T08:20:46Z</time>
      </trkpt>
      <trkpt lat="40.8089180" lon="-8.1284470">
        <ele>807.4</ele>
        <time>2020-09-20T08:20:49Z</time>
      </trkpt>
      <trkpt lat="40.8089320" lon="-8.1284450">
        <ele>807.6</ele>
        <time>2020-09-20T08:20:50Z</time>
      </trkpt>
      <trkpt lat="40.8089470" lon="-8.1284390">
        <ele>808.0</ele>
        <time>2020-09-20T08:20:52Z</time>
      </trkpt>
      <trkpt lat="40.8089570" lon="-8.1284360">
        <ele>808.2</ele>
        <time>2020-09-20T08:20:53Z</time>
      </trkpt>
      <trkpt lat="40.8089870" lon="-8.1284200">
        <ele>808.6</ele>
        <time>2020-09-20T08:20:56Z</time>
      </trkpt>
      <trkpt lat="40.8089980" lon="-8.1284150">
        <ele>808.8</ele>
        <time>2020-09-20T08:20:57Z</time>
      </trkpt>
      <trkpt lat="40.8090120" lon="-8.1283990">
        <ele>810.0</ele>
        <time>2020-09-20T08:20:59Z</time>
      </trkpt>
      <trkpt lat="40.8090360" lon="-8.1283790">
        <ele>810.6</ele>
        <time>2020-09-20T08:21:02Z</time>
      </trkpt>
      <trkpt lat="40.8090630" lon="-8.1283530">
        <ele>811.0</ele>
        <time>2020-09-20T08:21:05Z</time>
      </trkpt>
      <trkpt lat="40.8091120" lon="-8.1283300">
        <ele>812.4</ele>
        <time>2020-09-20T08:21:09Z</time>
      </trkpt>
      <trkpt lat="40.8091870" lon="-8.1283090">
        <ele>813.4</ele>
        <time>2020-09-20T08:21:14Z</time>
      </trkpt>
      <trkpt lat="40.8092480" lon="-8.1282860">
        <ele>814.6</ele>
        <time>2020-09-20T08:21:17Z</time>
      </trkpt>
      <trkpt lat="40.8093580" lon="-8.1282260">
        <ele>816.0</ele>
        <time>2020-09-20T08:21:23Z</time>
      </trkpt>
      <trkpt lat="40.8094070" lon="-8.1282010">
        <ele>816.8</ele>
        <time>2020-09-20T08:21:26Z</time>
      </trkpt>
      <trkpt lat="40.8094240" lon="-8.1281970">
        <ele>817.2</ele>
        <time>2020-09-20T08:21:27Z</time>
      </trkpt>
      <trkpt lat="40.8094430" lon="-8.1281920">
        <ele>817.4</ele>
        <time>2020-09-20T08:21:28Z</time>
      </trkpt>
      <trkpt lat="40.8094600" lon="-8.1281850">
        <ele>818.0</ele>
        <time>2020-09-20T08:21:29Z</time>
      </trkpt>
      <trkpt lat="40.8094800" lon="-8.1281760">
        <ele>818.4</ele>
        <time>2020-09-20T08:21:30Z</time>
      </trkpt>
      <trkpt lat="40.8095280" lon="-8.1281240">
        <ele>819.6</ele>
        <time>2020-09-20T08:21:35Z</time>
      </trkpt>
      <trkpt lat="40.8095430" lon="-8.1281000">
        <ele>820.6</ele>
        <time>2020-09-20T08:21:38Z</time>
      </trkpt>
      <trkpt lat="40.8096020" lon="-8.1280570">
        <ele>821.8</ele>
        <time>2020-09-20T08:21:45Z</time>
      </trkpt>
      <trkpt lat="40.8096260" lon="-8.1280360">
        <ele>823.0</ele>
        <time>2020-09-20T08:21:48Z</time>
      </trkpt>
      <trkpt lat="40.8096590" lon="-8.1280160">
        <ele>824.2</ele>
        <time>2020-09-20T08:21:52Z</time>
      </trkpt>
      <trkpt lat="40.8096900" lon="-8.1279970">
        <ele>825.0</ele>
        <time>2020-09-20T08:21:55Z</time>
      </trkpt>
      <trkpt lat="40.8097290" lon="-8.1279780">
        <ele>825.4</ele>
        <time>2020-09-20T08:21:58Z</time>
      </trkpt>
      <trkpt lat="40.8097530" lon="-8.1279760">
        <ele>825.8</ele>
        <time>2020-09-20T08:22:00Z</time>
      </trkpt>
      <trkpt lat="40.8098090" lon="-8.1279510">
        <ele>826.6</ele>
        <time>2020-09-20T08:22:05Z</time>
      </trkpt>
      <trkpt lat="40.8098510" lon="-8.1279370">
        <ele>827.8</ele>
        <time>2020-09-20T08:22:10Z</time>
      </trkpt>
      <trkpt lat="40.8098860" lon="-8.1279210">
        <ele>828.4</ele>
        <time>2020-09-20T08:22:14Z</time>
      </trkpt>
      <trkpt lat="40.8098940" lon="-8.1279100">
        <ele>828.8</ele>
        <time>2020-09-20T08:22:15Z</time>
      </trkpt>
      <trkpt lat="40.8099280" lon="-8.1278910">
        <ele>829.6</ele>
        <time>2020-09-20T08:22:18Z</time>
      </trkpt>
      <trkpt lat="40.8099540" lon="-8.1278950">
        <ele>830.0</ele>
        <time>2020-09-20T08:22:20Z</time>
      </trkpt>
      <trkpt lat="40.8100060" lon="-8.1278820">
        <ele>831.0</ele>
        <time>2020-09-20T08:22:24Z</time>
      </trkpt>
      <trkpt lat="40.8100450" lon="-8.1278690">
        <ele>832.2</ele>
        <time>2020-09-20T08:22:28Z</time>
      </trkpt>
      <trkpt lat="40.8101170" lon="-8.1278440">
        <ele>833.2</ele>
        <time>2020-09-20T08:22:33Z</time>
      </trkpt>
      <trkpt lat="40.8102090" lon="-8.1278250">
        <ele>834.6</ele>
        <time>2020-09-20T08:22:41Z</time>
      </trkpt>
      <trkpt lat="40.8102460" lon="-8.1278230">
        <ele>835.8</ele>
        <time>2020-09-20T08:22:44Z</time>
      </trkpt>
      <trkpt lat="40.8103160" lon="-8.1278030">
        <ele>836.8</ele>
        <time>2020-09-20T08:22:49Z</time>
      </trkpt>
      <trkpt lat="40.8103690" lon="-8.1277970">
        <ele>838.0</ele>
        <time>2020-09-20T08:22:54Z</time>
      </trkpt>
      <trkpt lat="40.8104180" lon="-8.1277730">
        <ele>839.0</ele>
        <time>2020-09-20T08:22:59Z</time>
      </trkpt>
      <trkpt lat="40.8104510" lon="-8.1277530">
        <ele>840.0</ele>
        <time>2020-09-20T08:23:02Z</time>
      </trkpt>
      <trkpt lat="40.8105270" lon="-8.1277090">
        <ele>841.2</ele>
        <time>2020-09-20T08:23:09Z</time>
      </trkpt>
      <trkpt lat="40.8105810" lon="-8.1276660">
        <ele>842.4</ele>
        <time>2020-09-20T08:23:14Z</time>
      </trkpt>
      <trkpt lat="40.8106690" lon="-8.1275480">
        <ele>843.4</ele>
        <time>2020-09-20T08:23:20Z</time>
      </trkpt>
      <trkpt lat="40.8106990" lon="-8.1274480">
        <ele>844.6</ele>
        <time>2020-09-20T08:23:24Z</time>
      </trkpt>
      <trkpt lat="40.8107110" lon="-8.1273920">
        <ele>845.4</ele>
        <time>2020-09-20T08:23:26Z</time>
      </trkpt>
      <trkpt lat="40.8107140" lon="-8.1273630">
        <ele>845.8</ele>
        <time>2020-09-20T08:23:27Z</time>
      </trkpt>
      <trkpt lat="40.8107210" lon="-8.1272540">
        <ele>847.0</ele>
        <time>2020-09-20T08:23:31Z</time>
      </trkpt>
      <trkpt lat="40.8107350" lon="-8.1271550">
        <ele>848.2</ele>
        <time>2020-09-20T08:23:35Z</time>
      </trkpt>
      <trkpt lat="40.8107680" lon="-8.1270390">
        <ele>849.4</ele>
        <time>2020-09-20T08:23:40Z</time>
      </trkpt>
      <trkpt lat="40.8107880" lon="-8.1270110">
        <ele>850.2</ele>
        <time>2020-09-20T08:23:42Z</time>
      </trkpt>
      <trkpt lat="40.8108150" lon="-8.1269940">
        <ele>851.0</ele>
        <time>2020-09-20T08:23:44Z</time>
      </trkpt>
      <trkpt lat="40.8108410" lon="-8.1269920">
        <ele>851.6</ele>
        <time>2020-09-20T08:23:46Z</time>
      </trkpt>
      <trkpt lat="40.8108590" lon="-8.1270040">
        <ele>852.2</ele>
        <time>2020-09-20T08:23:48Z</time>
      </trkpt>
      <trkpt lat="40.8108670" lon="-8.1270260">
        <ele>853.2</ele>
        <time>2020-09-20T08:23:50Z</time>
      </trkpt>
      <trkpt lat="40.8109200" lon="-8.1271590">
        <ele>854.4</ele>
        <time>2020-09-20T08:23:59Z</time>
      </trkpt>
      <trkpt lat="40.8109630" lon="-8.1272230">
        <ele>855.4</ele>
        <time>2020-09-20T08:24:05Z</time>
      </trkpt>
      <trkpt lat="40.8109790" lon="-8.1272400">
        <ele>856.0</ele>
        <time>2020-09-20T08:24:07Z</time>
      </trkpt>
      <trkpt lat="40.8109870" lon="-8.1272480">
        <ele>856.2</ele>
        <time>2020-09-20T08:24:08Z</time>
      </trkpt>
      <trkpt lat="40.8109940" lon="-8.1272580">
        <ele>856.6</ele>
        <time>2020-09-20T08:24:09Z</time>
      </trkpt>
      <trkpt lat="40.8110360" lon="-8.1273110">
        <ele>857.4</ele>
        <time>2020-09-20T08:24:14Z</time>
      </trkpt>
      <trkpt lat="40.8110460" lon="-8.1273210">
        <ele>857.6</ele>
        <time>2020-09-20T08:24:15Z</time>
      </trkpt>
      <trkpt lat="40.8110970" lon="-8.1273430">
        <ele>858.8</ele>
        <time>2020-09-20T08:24:20Z</time>
      </trkpt>
      <trkpt lat="40.8111340" lon="-8.1273380">
        <ele>859.8</ele>
        <time>2020-09-20T08:24:23Z</time>
      </trkpt>
      <trkpt lat="40.8112120" lon="-8.1273080">
        <ele>861.4</ele>
        <time>2020-09-20T08:24:29Z</time>
      </trkpt>
      <trkpt lat="40.8112810" lon="-8.1272720">
        <ele>862.4</ele>
        <time>2020-09-20T08:24:34Z</time>
      </trkpt>
      <trkpt lat="40.8113280" lon="-8.1272110">
        <ele>863.6</ele>
        <time>2020-09-20T08:24:39Z</time>
      </trkpt>
      <trkpt lat="40.8113570" lon="-8.1271390">
        <ele>864.6</ele>
        <time>2020-09-20T08:24:43Z</time>
      </trkpt>
      <trkpt lat="40.8113810" lon="-8.1270290">
        <ele>865.6</ele>
        <time>2020-09-20T08:24:49Z</time>
      </trkpt>
      <trkpt lat="40.8113850" lon="-8.1270110">
        <ele>865.8</ele>
        <time>2020-09-20T08:24:50Z</time>
      </trkpt>
      <trkpt lat="40.8113890" lon="-8.1269430">
        <ele>866.8</ele>
        <time>2020-09-20T08:24:54Z</time>
      </trkpt>
      <trkpt lat="40.8113790" lon="-8.1268420">
        <ele>868.0</ele>
        <time>2020-09-20T08:25:00Z</time>
      </trkpt>
      <trkpt lat="40.8113830" lon="-8.1267710">
        <ele>869.0</ele>
        <time>2020-09-20T08:25:04Z</time>
      </trkpt>
      <trkpt lat="40.8114250" lon="-8.1266600">
        <ele>870.0</ele>
        <time>2020-09-20T08:25:11Z</time>
      </trkpt>
      <trkpt lat="40.8114680" lon="-8.1266190">
        <ele>871.2</ele>
        <time>2020-09-20T08:25:15Z</time>
      </trkpt>
      <trkpt lat="40.8115170" lon="-8.1265990">
        <ele>872.4</ele>
        <time>2020-09-20T08:25:19Z</time>
      </trkpt>
      <trkpt lat="40.8115840" lon="-8.1265730">
        <ele>873.4</ele>
        <time>2020-09-20T08:25:25Z</time>
      </trkpt>
      <trkpt lat="40.8116730" lon="-8.1265470">
        <ele>874.6</ele>
        <time>2020-09-20T08:25:32Z</time>
      </trkpt>
      <trkpt lat="40.8117490" lon="-8.1265350">
        <ele>875.6</ele>
        <time>2020-09-20T08:25:36Z</time>
      </trkpt>
      <trkpt lat="40.8118510" lon="-8.1265150">
        <ele>876.6</ele>
        <time>2020-09-20T08:25:41Z</time>
      </trkpt>
      <trkpt lat="40.8118910" lon="-8.1265100">
        <ele>877.2</ele>
        <time>2020-09-20T08:25:43Z</time>
      </trkpt>
      <trkpt lat="40.8119110" lon="-8.1265090">
        <ele>877.4</ele>
        <time>2020-09-20T08:25:44Z</time>
      </trkpt>
      <trkpt lat="40.8119310" lon="-8.1265080">
        <ele>877.6</ele>
        <time>2020-09-20T08:25:45Z</time>
      </trkpt>
      <trkpt lat="40.8119840" lon="-8.1265140">
        <ele>878.6</ele>
        <time>2020-09-20T08:25:48Z</time>
      </trkpt>
      <trkpt lat="40.8120200" lon="-8.1265180">
        <ele>879.8</ele>
        <time>2020-09-20T08:25:50Z</time>
      </trkpt>
      <trkpt lat="40.8121110" lon="-8.1265340">
        <ele>880.8</ele>
        <time>2020-09-20T08:25:55Z</time>
      </trkpt>
      <trkpt lat="40.8122600" lon="-8.1265650">
        <ele>882.0</ele>
        <time>2020-09-20T08:26:03Z</time>
      </trkpt>
      <trkpt lat="40.8123000" lon="-8.1265740">
        <ele>883.2</ele>
        <time>2020-09-20T08:26:05Z</time>
      </trkpt>
      <trkpt lat="40.8124110" lon="-8.1265990">
        <ele>884.2</ele>
        <time>2020-09-20T08:26:11Z</time>
      </trkpt>
      <trkpt lat="40.8125180" lon="-8.1266100">
        <ele>885.4</ele>
        <time>2020-09-20T08:26:17Z</time>
      </trkpt>
      <trkpt lat="40.8125670" lon="-8.1266240">
        <ele>886.0</ele>
        <time>2020-09-20T08:26:20Z</time>
      </trkpt>
      <trkpt lat="40.8125820" lon="-8.1266280">
        <ele>886.2</ele>
        <time>2020-09-20T08:26:21Z</time>
      </trkpt>
      <trkpt lat="40.8125990" lon="-8.1266330">
        <ele>886.6</ele>
        <time>2020-09-20T08:26:22Z</time>
      </trkpt>
      <trkpt lat="40.8126320" lon="-8.1266390">
        <ele>887.2</ele>
        <time>2020-09-20T08:26:24Z</time>
      </trkpt>
      <trkpt lat="40.8126650" lon="-8.1266450">
        <ele>887.4</ele>
        <time>2020-09-20T08:26:26Z</time>
      </trkpt>
      <trkpt lat="40.8126830" lon="-8.1266490">
        <ele>887.8</ele>
        <time>2020-09-20T08:26:27Z</time>
      </trkpt>
      <trkpt lat="40.8127520" lon="-8.1266690">
        <ele>888.8</ele>
        <time>2020-09-20T08:26:31Z</time>
      </trkpt>
      <trkpt lat="40.8128360" lon="-8.1266910">
        <ele>890.2</ele>
        <time>2020-09-20T08:26:36Z</time>
      </trkpt>
      <trkpt lat="40.8129250" lon="-8.1267040">
        <ele>891.2</ele>
        <time>2020-09-20T08:26:41Z</time>
      </trkpt>
      <trkpt lat="40.8129900" lon="-8.1267110">
        <ele>892.4</ele>
        <time>2020-09-20T08:26:45Z</time>
      </trkpt>
      <trkpt lat="40.8130780" lon="-8.1267150">
        <ele>893.6</ele>
        <time>2020-09-20T08:26:50Z</time>
      </trkpt>
      <trkpt lat="40.8131670" lon="-8.1267160">
        <ele>894.6</ele>
        <time>2020-09-20T08:26:55Z</time>
      </trkpt>
      <trkpt lat="40.8132150" lon="-8.1267170">
        <ele>895.8</ele>
        <time>2020-09-20T08:26:58Z</time>
      </trkpt>
      <trkpt lat="40.8133110" lon="-8.1267040">
        <ele>897.2</ele>
        <time>2020-09-20T08:27:04Z</time>
      </trkpt>
      <trkpt lat="40.8133920" lon="-8.1267000">
        <ele>898.2</ele>
        <time>2020-09-20T08:27:09Z</time>
      </trkpt>
      <trkpt lat="40.8134450" lon="-8.1267020">
        <ele>899.2</ele>
        <time>2020-09-20T08:27:12Z</time>
      </trkpt>
      <trkpt lat="40.8135590" lon="-8.1267080">
        <ele>900.4</ele>
        <time>2020-09-20T08:27:18Z</time>
      </trkpt>
      <trkpt lat="40.8136260" lon="-8.1267130">
        <ele>901.8</ele>
        <time>2020-09-20T08:27:22Z</time>
      </trkpt>
      <trkpt lat="40.8137330" lon="-8.1267320">
        <ele>902.6</ele>
        <time>2020-09-20T08:27:28Z</time>
      </trkpt>
      <trkpt lat="40.8137540" lon="-8.1267340">
        <ele>903.2</ele>
        <time>2020-09-20T08:27:29Z</time>
      </trkpt>
      <trkpt lat="40.8138250" lon="-8.1267480">
        <ele>904.2</ele>
        <time>2020-09-20T08:27:33Z</time>
      </trkpt>
      <trkpt lat="40.8139400" lon="-8.1267770">
        <ele>905.6</ele>
        <time>2020-09-20T08:27:39Z</time>
      </trkpt>
      <trkpt lat="40.8140350" lon="-8.1268050">
        <ele>906.8</ele>
        <time>2020-09-20T08:27:44Z</time>
      </trkpt>
      <trkpt lat="40.8141130" lon="-8.1268130">
        <ele>907.6</ele>
        <time>2020-09-20T08:27:48Z</time>
      </trkpt>
      <trkpt lat="40.8141450" lon="-8.1267780">
        <ele>908.0</ele>
        <time>2020-09-20T08:29:13Z</time>
      </trkpt>
      <trkpt lat="40.8141540" lon="-8.1267830">
        <ele>908.0</ele>
        <time>2020-09-20T08:29:14Z</time>
      </trkpt>
      <trkpt lat="40.8142640" lon="-8.1268230">
        <ele>908.2</ele>
        <time>2020-09-20T08:29:19Z</time>
      </trkpt>
      <trkpt lat="40.8143450" lon="-8.1268470">
        <ele>908.6</ele>
        <time>2020-09-20T08:29:22Z</time>
      </trkpt>
      <trkpt lat="40.8143980" lon="-8.1268590">
        <ele>909.0</ele>
        <time>2020-09-20T08:29:24Z</time>
      </trkpt>
      <trkpt lat="40.8144250" lon="-8.1268650">
        <ele>909.4</ele>
        <time>2020-09-20T08:29:25Z</time>
      </trkpt>
      <trkpt lat="40.8144760" lon="-8.1268810">
        <ele>910.0</ele>
        <time>2020-09-20T08:29:27Z</time>
      </trkpt>
      <trkpt lat="40.8145510" lon="-8.1269010">
        <ele>911.0</ele>
        <time>2020-09-20T08:29:30Z</time>
      </trkpt>
      <trkpt lat="40.8145760" lon="-8.1269090">
        <ele>911.2</ele>
        <time>2020-09-20T08:29:31Z</time>
      </trkpt>
      <trkpt lat="40.8147000" lon="-8.1269510">
        <ele>912.4</ele>
        <time>2020-09-20T08:29:36Z</time>
      </trkpt>
      <trkpt lat="40.8148650" lon="-8.1269820">
        <ele>913.6</ele>
        <time>2020-09-20T08:29:43Z</time>
      </trkpt>
      <trkpt lat="40.8149300" lon="-8.1269890">
        <ele>914.6</ele>
        <time>2020-09-20T08:29:46Z</time>
      </trkpt>
      <trkpt lat="40.8149720" lon="-8.1269920">
        <ele>915.4</ele>
        <time>2020-09-20T08:29:48Z</time>
      </trkpt>
      <trkpt lat="40.8149910" lon="-8.1269920">
        <ele>915.8</ele>
        <time>2020-09-20T08:29:49Z</time>
      </trkpt>
      <trkpt lat="40.8150680" lon="-8.1269970">
        <ele>916.4</ele>
        <time>2020-09-20T08:29:53Z</time>
      </trkpt>
      <trkpt lat="40.8151680" lon="-8.1270110">
        <ele>916.8</ele>
        <time>2020-09-20T08:29:58Z</time>
      </trkpt>
      <trkpt lat="40.8152900" lon="-8.1270320">
        <ele>918.2</ele>
        <time>2020-09-20T08:30:04Z</time>
      </trkpt>
      <trkpt lat="40.8153770" lon="-8.1270440">
        <ele>919.2</ele>
        <time>2020-09-20T08:30:08Z</time>
      </trkpt>
      <trkpt lat="40.8154960" lon="-8.1270710">
        <ele>920.6</ele>
        <time>2020-09-20T08:30:14Z</time>
      </trkpt>
      <trkpt lat="40.8155810" lon="-8.1271030">
        <ele>921.4</ele>
        <time>2020-09-20T08:30:18Z</time>
      </trkpt>
      <trkpt lat="40.8156230" lon="-8.1271250">
        <ele>921.8</ele>
        <time>2020-09-20T08:30:20Z</time>
      </trkpt>
      <trkpt lat="40.8156990" lon="-8.1271690">
        <ele>922.8</ele>
        <time>2020-09-20T08:30:24Z</time>
      </trkpt>
      <trkpt lat="40.8158730" lon="-8.1272550">
        <ele>923.8</ele>
        <time>2020-09-20T08:30:32Z</time>
      </trkpt>
      <trkpt lat="40.8158960" lon="-8.1272670">
        <ele>924.0</ele>
        <time>2020-09-20T08:30:33Z</time>
      </trkpt>
      <trkpt lat="40.8159810" lon="-8.1273060">
        <ele>925.2</ele>
        <time>2020-09-20T08:30:37Z</time>
      </trkpt>
      <trkpt lat="40.8161580" lon="-8.1274000">
        <ele>926.4</ele>
        <time>2020-09-20T08:30:46Z</time>
      </trkpt>
      <trkpt lat="40.8162930" lon="-8.1274070">
        <ele>927.6</ele>
        <time>2020-09-20T08:30:52Z</time>
      </trkpt>
      <trkpt lat="40.8163820" lon="-8.1272950">
        <ele>928.8</ele>
        <time>2020-09-20T08:30:57Z</time>
      </trkpt>
      <trkpt lat="40.8164510" lon="-8.1271280">
        <ele>929.8</ele>
        <time>2020-09-20T08:31:03Z</time>
      </trkpt>
      <trkpt lat="40.8165500" lon="-8.1269310">
        <ele>931.0</ele>
        <time>2020-09-20T08:31:11Z</time>
      </trkpt>
      <trkpt lat="40.8166230" lon="-8.1268410">
        <ele>932.2</ele>
        <time>2020-09-20T08:31:16Z</time>
      </trkpt>
      <trkpt lat="40.8167480" lon="-8.1267460">
        <ele>933.4</ele>
        <time>2020-09-20T08:31:23Z</time>
      </trkpt>
      <trkpt lat="40.8168010" lon="-8.1267150">
        <ele>934.4</ele>
        <time>2020-09-20T08:31:26Z</time>
      </trkpt>
      <trkpt lat="40.8168950" lon="-8.1266550">
        <ele>935.4</ele>
        <time>2020-09-20T08:31:31Z</time>
      </trkpt>
      <trkpt lat="40.8170080" lon="-8.1266190">
        <ele>936.8</ele>
        <time>2020-09-20T08:31:37Z</time>
      </trkpt>
      <trkpt lat="40.8170800" lon="-8.1266050">
        <ele>937.8</ele>
        <time>2020-09-20T08:31:41Z</time>
      </trkpt>
      <trkpt lat="40.8171980" lon="-8.1265730">
        <ele>939.2</ele>
        <time>2020-09-20T08:31:47Z</time>
      </trkpt>
      <trkpt lat="40.8172350" lon="-8.1265580">
        <ele>940.2</ele>
        <time>2020-09-20T08:31:49Z</time>
      </trkpt>
      <trkpt lat="40.8173300" lon="-8.1265240">
        <ele>941.2</ele>
        <time>2020-09-20T08:31:54Z</time>
      </trkpt>
      <trkpt lat="40.8174420" lon="-8.1264910">
        <ele>942.4</ele>
        <time>2020-09-20T08:32:00Z</time>
      </trkpt>
      <trkpt lat="40.8175090" lon="-8.1264750">
        <ele>943.8</ele>
        <time>2020-09-20T08:32:04Z</time>
      </trkpt>
      <trkpt lat="40.8176210" lon="-8.1264580">
        <ele>944.8</ele>
        <time>2020-09-20T08:32:10Z</time>
      </trkpt>
      <trkpt lat="40.8176760" lon="-8.1264510">
        <ele>945.8</ele>
        <time>2020-09-20T08:32:13Z</time>
      </trkpt>
      <trkpt lat="40.8177260" lon="-8.1264570">
        <ele>947.0</ele>
        <time>2020-09-20T08:32:16Z</time>
      </trkpt>
      <trkpt lat="40.8178610" lon="-8.1265100">
        <ele>948.0</ele>
        <time>2020-09-20T08:32:24Z</time>
      </trkpt>
      <trkpt lat="40.8179100" lon="-8.1265450">
        <ele>949.2</ele>
        <time>2020-09-20T08:32:27Z</time>
      </trkpt>
      <trkpt lat="40.8179610" lon="-8.1265700">
        <ele>950.2</ele>
        <time>2020-09-20T08:32:30Z</time>
      </trkpt>
      <trkpt lat="40.8181180" lon="-8.1266300">
        <ele>951.4</ele>
        <time>2020-09-20T08:32:38Z</time>
      </trkpt>
      <trkpt lat="40.8181580" lon="-8.1266440">
        <ele>952.4</ele>
        <time>2020-09-20T08:32:40Z</time>
      </trkpt>
      <trkpt lat="40.8181970" lon="-8.1266610">
        <ele>953.2</ele>
        <time>2020-09-20T08:32:42Z</time>
      </trkpt>
      <trkpt lat="40.8182320" lon="-8.1266610">
        <ele>954.6</ele>
        <time>2020-09-20T08:33:59Z</time>
      </trkpt>
      <trkpt lat="40.8182430" lon="-8.1266720">
        <ele>954.6</ele>
        <time>2020-09-20T08:34:00Z</time>
      </trkpt>
      <trkpt lat="40.8182560" lon="-8.1266840">
        <ele>954.6</ele>
        <time>2020-09-20T08:34:01Z</time>
      </trkpt>
      <trkpt lat="40.8183980" lon="-8.1268310">
        <ele>954.6</ele>
        <time>2020-09-20T08:34:08Z</time>
      </trkpt>
      <trkpt lat="40.8184200" lon="-8.1268570">
        <ele>954.8</ele>
        <time>2020-09-20T08:34:09Z</time>
      </trkpt>
      <trkpt lat="40.8184420" lon="-8.1268780">
        <ele>954.8</ele>
        <time>2020-09-20T08:34:10Z</time>
      </trkpt>
      <trkpt lat="40.8184660" lon="-8.1268970">
        <ele>955.2</ele>
        <time>2020-09-20T08:34:11Z</time>
      </trkpt>
      <trkpt lat="40.8185120" lon="-8.1269330">
        <ele>955.6</ele>
        <time>2020-09-20T08:34:13Z</time>
      </trkpt>
      <trkpt lat="40.8186150" lon="-8.1270180">
        <ele>956.8</ele>
        <time>2020-09-20T08:34:18Z</time>
      </trkpt>
      <trkpt lat="40.8186550" lon="-8.1270560">
        <ele>957.8</ele>
        <time>2020-09-20T08:34:20Z</time>
      </trkpt>
      <trkpt lat="40.8187310" lon="-8.1271200">
        <ele>959.0</ele>
        <time>2020-09-20T08:34:24Z</time>
      </trkpt>
      <trkpt lat="40.8187820" lon="-8.1271660">
        <ele>959.6</ele>
        <time>2020-09-20T08:34:27Z</time>
      </trkpt>
      <trkpt lat="40.8188150" lon="-8.1271950">
        <ele>960.4</ele>
        <time>2020-09-20T08:34:29Z</time>
      </trkpt>
      <trkpt lat="40.8188440" lon="-8.1272250">
        <ele>961.8</ele>
        <time>2020-09-20T08:34:31Z</time>
      </trkpt>
      <trkpt lat="40.8188990" lon="-8.1272870">
        <ele>963.2</ele>
        <time>2020-09-20T08:34:35Z</time>
      </trkpt>
      <trkpt lat="40.8189280" lon="-8.1273250">
        <ele>963.6</ele>
        <time>2020-09-20T08:34:37Z</time>
      </trkpt>
      <trkpt lat="40.8189410" lon="-8.1273480">
        <ele>964.2</ele>
        <time>2020-09-20T08:34:38Z</time>
      </trkpt>
      <trkpt lat="40.8189860" lon="-8.1275030">
        <ele>966.0</ele>
        <time>2020-09-20T08:34:44Z</time>
      </trkpt>
      <trkpt lat="40.8189790" lon="-8.1275860">
        <ele>967.2</ele>
        <time>2020-09-20T08:34:47Z</time>
      </trkpt>
      <trkpt lat="40.8188890" lon="-8.1277400">
        <ele>968.4</ele>
        <time>2020-09-20T08:34:53Z</time>
      </trkpt>
      <trkpt lat="40.8188380" lon="-8.1278090">
        <ele>969.2</ele>
        <time>2020-09-20T08:34:56Z</time>
      </trkpt>
      <trkpt lat="40.8188030" lon="-8.1278480">
        <ele>969.6</ele>
        <time>2020-09-20T08:34:58Z</time>
      </trkpt>
      <trkpt lat="40.8187370" lon="-8.1279660">
        <ele>970.8</ele>
        <time>2020-09-20T08:35:03Z</time>
      </trkpt>
      <trkpt lat="40.8187240" lon="-8.1281160">
        <ele>971.8</ele>
        <time>2020-09-20T08:35:08Z</time>
      </trkpt>
      <trkpt lat="40.8187240" lon="-8.1282350">
        <ele>972.8</ele>
        <time>2020-09-20T08:35:12Z</time>
      </trkpt>
      <trkpt lat="40.8187320" lon="-8.1284650">
        <ele>974.0</ele>
        <time>2020-09-20T08:35:20Z</time>
      </trkpt>
      <trkpt lat="40.8187580" lon="-8.1286020">
        <ele>975.0</ele>
        <time>2020-09-20T08:35:25Z</time>
      </trkpt>
      <trkpt lat="40.8188100" lon="-8.1287590">
        <ele>976.0</ele>
        <time>2020-09-20T08:35:31Z</time>
      </trkpt>
      <trkpt lat="40.8188480" lon="-8.1288250">
        <ele>977.4</ele>
        <time>2020-09-20T08:35:34Z</time>
      </trkpt>
      <trkpt lat="40.8189210" lon="-8.1288670">
        <ele>978.6</ele>
        <time>2020-09-20T08:35:38Z</time>
      </trkpt>
      <trkpt lat="40.8190380" lon="-8.1288700">
        <ele>979.8</ele>
        <time>2020-09-20T08:35:43Z</time>
      </trkpt>
      <trkpt lat="40.8191990" lon="-8.1288250">
        <ele>980.8</ele>
        <time>2020-09-20T08:35:50Z</time>
      </trkpt>
      <trkpt lat="40.8193810" lon="-8.1287700">
        <ele>981.8</ele>
        <time>2020-09-20T08:35:58Z</time>
      </trkpt>
      <trkpt lat="40.8195590" lon="-8.1286930">
        <ele>983.0</ele>
        <time>2020-09-20T08:36:06Z</time>
      </trkpt>
      <trkpt lat="40.8197340" lon="-8.1286390">
        <ele>984.0</ele>
        <time>2020-09-20T08:36:14Z</time>
      </trkpt>
      <trkpt lat="40.8198260" lon="-8.1286560">
        <ele>985.2</ele>
        <time>2020-09-20T08:36:18Z</time>
      </trkpt>
      <trkpt lat="40.8199560" lon="-8.1287410">
        <ele>986.4</ele>
        <time>2020-09-20T08:36:24Z</time>
      </trkpt>
      <trkpt lat="40.8200570" lon="-8.1288260">
        <ele>987.4</ele>
        <time>2020-09-20T08:36:30Z</time>
      </trkpt>
      <trkpt lat="40.8202270" lon="-8.1289330">
        <ele>988.4</ele>
        <time>2020-09-20T08:36:40Z</time>
      </trkpt>
      <trkpt lat="40.8202730" lon="-8.1289790">
        <ele>989.4</ele>
        <time>2020-09-20T08:36:43Z</time>
      </trkpt>
      <trkpt lat="40.8203330" lon="-8.1290400">
        <ele>990.6</ele>
        <time>2020-09-20T08:36:47Z</time>
      </trkpt>
      <trkpt lat="40.8204430" lon="-8.1292270">
        <ele>992.0</ele>
        <time>2020-09-20T08:36:56Z</time>
      </trkpt>
      <trkpt lat="40.8204860" lon="-8.1293120">
        <ele>993.0</ele>
        <time>2020-09-20T08:37:00Z</time>
      </trkpt>
      <trkpt lat="40.8205170" lon="-8.1293750">
        <ele>994.4</ele>
        <time>2020-09-20T08:37:03Z</time>
      </trkpt>
      <trkpt lat="40.8205650" lon="-8.1294860">
        <ele>995.4</ele>
        <time>2020-09-20T08:37:08Z</time>
      </trkpt>
      <trkpt lat="40.8206340" lon="-8.1296880">
        <ele>996.8</ele>
        <time>2020-09-20T08:37:16Z</time>
      </trkpt>
      <trkpt lat="40.8206570" lon="-8.1297550">
        <ele>997.8</ele>
        <time>2020-09-20T08:37:19Z</time>
      </trkpt>
      <trkpt lat="40.8207380" lon="-8.1299690">
        <ele>999.0</ele>
        <time>2020-09-20T08:37:28Z</time>
      </trkpt>
      <trkpt lat="40.8207720" lon="-8.1300640">
        <ele>1000.0</ele>
        <time>2020-09-20T08:37:32Z</time>
      </trkpt>
      <trkpt lat="40.8208290" lon="-8.1302030">
        <ele>1001.2</ele>
        <time>2020-09-20T08:37:38Z</time>
      </trkpt>
      <trkpt lat="40.8208790" lon="-8.1303180">
        <ele>1002.0</ele>
        <time>2020-09-20T08:37:43Z</time>
      </trkpt>
      <trkpt lat="40.8208880" lon="-8.1303420">
        <ele>1002.8</ele>
        <time>2020-09-20T08:37:44Z</time>
      </trkpt>
      <trkpt lat="40.8209180" lon="-8.1304190">
        <ele>1004.0</ele>
        <time>2020-09-20T08:37:47Z</time>
      </trkpt>
      <trkpt lat="40.8209410" lon="-8.1304700">
        <ele>1005.0</ele>
        <time>2020-09-20T08:37:49Z</time>
      </trkpt>
      <trkpt lat="40.8210450" lon="-8.1306840">
        <ele>1006.0</ele>
        <time>2020-09-20T08:37:59Z</time>
      </trkpt>
      <trkpt lat="40.8210570" lon="-8.1307060">
        <ele>1006.4</ele>
        <time>2020-09-20T08:38:00Z</time>
      </trkpt>
      <trkpt lat="40.8211130" lon="-8.1307820">
        <ele>1007.4</ele>
        <time>2020-09-20T08:38:04Z</time>
      </trkpt>
      <trkpt lat="40.8211540" lon="-8.1308420">
        <ele>1008.6</ele>
        <time>2020-09-20T08:38:07Z</time>
      </trkpt>
      <trkpt lat="40.8212720" lon="-8.1310330">
        <ele>1009.6</ele>
        <time>2020-09-20T08:38:16Z</time>
      </trkpt>
      <trkpt lat="40.8212950" lon="-8.1310810">
        <ele>1009.8</ele>
        <time>2020-09-20T08:38:18Z</time>
      </trkpt>
      <trkpt lat="40.8213800" lon="-8.1312390">
        <ele>1011.0</ele>
        <time>2020-09-20T08:38:25Z</time>
      </trkpt>
      <trkpt lat="40.8214460" lon="-8.1313520">
        <ele>1012.0</ele>
        <time>2020-09-20T08:38:30Z</time>
      </trkpt>
      <trkpt lat="40.8215560" lon="-8.1314380">
        <ele>1013.0</ele>
        <time>2020-09-20T08:38:36Z</time>
      </trkpt>
      <trkpt lat="40.8217150" lon="-8.1314630">
        <ele>1014.0</ele>
        <time>2020-09-20T08:38:43Z</time>
      </trkpt>
      <trkpt lat="40.8218420" lon="-8.1314850">
        <ele>1015.2</ele>
        <time>2020-09-20T08:38:48Z</time>
      </trkpt>
      <trkpt lat="40.8219770" lon="-8.1315420">
        <ele>1016.2</ele>
        <time>2020-09-20T08:38:54Z</time>
      </trkpt>
      <trkpt lat="40.8221140" lon="-8.1316450">
        <ele>1017.6</ele>
        <time>2020-09-20T08:39:01Z</time>
      </trkpt>
      <trkpt lat="40.8222680" lon="-8.1317900">
        <ele>1018.6</ele>
        <time>2020-09-20T08:39:10Z</time>
      </trkpt>
      <trkpt lat="40.8222860" lon="-8.1318070">
        <ele>1018.6</ele>
        <time>2020-09-20T08:39:11Z</time>
      </trkpt>
      <trkpt lat="40.8223860" lon="-8.1319250">
        <ele>1019.2</ele>
        <time>2020-09-20T08:39:17Z</time>
      </trkpt>
      <trkpt lat="40.8224000" lon="-8.1319480">
        <ele>1019.4</ele>
        <time>2020-09-20T08:39:18Z</time>
      </trkpt>
      <trkpt lat="40.8224290" lon="-8.1319970">
        <ele>1019.6</ele>
        <time>2020-09-20T08:39:20Z</time>
      </trkpt>
      <trkpt lat="40.8224440" lon="-8.1320210">
        <ele>1019.6</ele>
        <time>2020-09-20T08:39:21Z</time>
      </trkpt>
      <trkpt lat="40.8225370" lon="-8.1321580">
        <ele>1020.6</ele>
        <time>2020-09-20T08:39:27Z</time>
      </trkpt>
      <trkpt lat="40.8225990" lon="-8.1322470">
        <ele>1021.8</ele>
        <time>2020-09-20T08:39:31Z</time>
      </trkpt>
      <trkpt lat="40.8227120" lon="-8.1324100">
        <ele>1023.0</ele>
        <time>2020-09-20T08:39:38Z</time>
      </trkpt>
      <trkpt lat="40.8227550" lon="-8.1324820">
        <ele>1024.0</ele>
        <time>2020-09-20T08:39:41Z</time>
      </trkpt>
      <trkpt lat="40.8228440" lon="-8.1326230">
        <ele>1025.0</ele>
        <time>2020-09-20T08:39:47Z</time>
      </trkpt>
      <trkpt lat="40.8229550" lon="-8.1328190">
        <ele>1025.8</ele>
        <time>2020-09-20T08:39:55Z</time>
      </trkpt>
      <trkpt lat="40.8229930" lon="-8.1328950">
        <ele>1026.0</ele>
        <time>2020-09-20T08:39:58Z</time>
      </trkpt>
      <trkpt lat="40.8230200" lon="-8.1329140">
        <ele>990.0</ele>
        <time>2020-09-20T08:43:04Z</time>
      </trkpt>
      <trkpt lat="40.8230220" lon="-8.1329290">
        <ele>990.6</ele>
        <time>2020-09-20T08:43:05Z</time>
      </trkpt>
      <trkpt lat="40.8230800" lon="-8.1330790">
        <ele>990.2</ele>
        <time>2020-09-20T08:43:10Z</time>
      </trkpt>
      <trkpt lat="40.8231390" lon="-8.1332730">
        <ele>991.0</ele>
        <time>2020-09-20T08:43:15Z</time>
      </trkpt>
      <trkpt lat="40.8231490" lon="-8.1333120">
        <ele>991.6</ele>
        <time>2020-09-20T08:43:16Z</time>
      </trkpt>
      <trkpt lat="40.8231790" lon="-8.1334270">
        <ele>991.4</ele>
        <time>2020-09-20T08:43:19Z</time>
      </trkpt>
      <trkpt lat="40.8232240" lon="-8.1336120">
        <ele>990.6</ele>
        <time>2020-09-20T08:43:24Z</time>
      </trkpt>
      <trkpt lat="40.8232740" lon="-8.1338550">
        <ele>991.0</ele>
        <time>2020-09-20T08:43:30Z</time>
      </trkpt>
      <trkpt lat="40.8233090" lon="-8.1340110">
        <ele>991.2</ele>
        <time>2020-09-20T08:43:34Z</time>
      </trkpt>
      <trkpt lat="40.8234090" lon="-8.1342110">
        <ele>991.0</ele>
        <time>2020-09-20T08:43:40Z</time>
      </trkpt>
      <trkpt lat="40.8235430" lon="-8.1343760">
        <ele>991.0</ele>
        <time>2020-09-20T08:43:46Z</time>
      </trkpt>
      <trkpt lat="40.8236880" lon="-8.1345280">
        <ele>991.4</ele>
        <time>2020-09-20T08:43:53Z</time>
      </trkpt>
      <trkpt lat="40.8238530" lon="-8.1346650">
        <ele>991.8</ele>
        <time>2020-09-20T08:44:00Z</time>
      </trkpt>
      <trkpt lat="40.8240200" lon="-8.1348120">
        <ele>992.2</ele>
        <time>2020-09-20T08:44:07Z</time>
      </trkpt>
      <trkpt lat="40.8241930" lon="-8.1349570">
        <ele>991.8</ele>
        <time>2020-09-20T08:44:14Z</time>
      </trkpt>
      <trkpt lat="40.8243520" lon="-8.1351090">
        <ele>991.8</ele>
        <time>2020-09-20T08:44:21Z</time>
      </trkpt>
      <trkpt lat="40.8245250" lon="-8.1352410">
        <ele>991.6</ele>
        <time>2020-09-20T08:44:28Z</time>
      </trkpt>
      <trkpt lat="40.8246860" lon="-8.1353900">
        <ele>991.6</ele>
        <time>2020-09-20T08:44:35Z</time>
      </trkpt>
      <trkpt lat="40.8248530" lon="-8.1355440">
        <ele>991.8</ele>
        <time>2020-09-20T08:44:42Z</time>
      </trkpt>
      <trkpt lat="40.8250230" lon="-8.1356990">
        <ele>992.0</ele>
        <time>2020-09-20T08:44:49Z</time>
      </trkpt>
      <trkpt lat="40.8251920" lon="-8.1358590">
        <ele>992.2</ele>
        <time>2020-09-20T08:44:56Z</time>
      </trkpt>
      <trkpt lat="40.8252400" lon="-8.1359040">
        <ele>992.2</ele>
        <time>2020-09-20T08:44:58Z</time>
      </trkpt>
      <trkpt lat="40.8254040" lon="-8.1360650">
        <ele>992.6</ele>
        <time>2020-09-20T08:45:05Z</time>
      </trkpt>
      <trkpt lat="40.8254490" lon="-8.1361060">
        <ele>992.6</ele>
        <time>2020-09-20T08:45:07Z</time>
      </trkpt>
      <trkpt lat="40.8256150" lon="-8.1362340">
        <ele>992.6</ele>
        <time>2020-09-20T08:45:14Z</time>
      </trkpt>
      <trkpt lat="40.8257750" lon="-8.1363730">
        <ele>992.8</ele>
        <time>2020-09-20T08:45:21Z</time>
      </trkpt>
      <trkpt lat="40.8259370" lon="-8.1365170">
        <ele>993.2</ele>
        <time>2020-09-20T08:45:28Z</time>
      </trkpt>
      <trkpt lat="40.8260990" lon="-8.1366760">
        <ele>993.2</ele>
        <time>2020-09-20T08:45:35Z</time>
      </trkpt>
      <trkpt lat="40.8262000" lon="-8.1368060">
        <ele>993.6</ele>
        <time>2020-09-20T08:45:40Z</time>
      </trkpt>
      <trkpt lat="40.8263480" lon="-8.1369710">
        <ele>993.6</ele>
        <time>2020-09-20T08:45:47Z</time>
      </trkpt>
      <trkpt lat="40.8265000" lon="-8.1371290">
        <ele>994.2</ele>
        <time>2020-09-20T08:45:54Z</time>
      </trkpt>
      <trkpt lat="40.8266530" lon="-8.1372820">
        <ele>994.6</ele>
        <time>2020-09-20T08:46:01Z</time>
      </trkpt>
      <trkpt lat="40.8268060" lon="-8.1374350">
        <ele>995.4</ele>
        <time>2020-09-20T08:46:08Z</time>
      </trkpt>
      <trkpt lat="40.8269270" lon="-8.1375320">
        <ele>995.6</ele>
        <time>2020-09-20T08:46:13Z</time>
      </trkpt>
      <trkpt lat="40.8270920" lon="-8.1376740">
        <ele>996.6</ele>
        <time>2020-09-20T08:46:20Z</time>
      </trkpt>
      <trkpt lat="40.8271550" lon="-8.1377430">
        <ele>996.8</ele>
        <time>2020-09-20T08:46:23Z</time>
      </trkpt>
      <trkpt lat="40.8271900" lon="-8.1379740">
        <ele>996.2</ele>
        <time>2020-09-20T08:46:30Z</time>
      </trkpt>
      <trkpt lat="40.8271650" lon="-8.1381440">
        <ele>995.6</ele>
        <time>2020-09-20T08:46:34Z</time>
      </trkpt>
      <trkpt lat="40.8271420" lon="-8.1383460">
        <ele>994.4</ele>
        <time>2020-09-20T08:46:39Z</time>
      </trkpt>
      <trkpt lat="40.8271300" lon="-8.1385610">
        <ele>993.4</ele>
        <time>2020-09-20T08:46:44Z</time>
      </trkpt>
      <trkpt lat="40.8271240" lon="-8.1387210">
        <ele>992.0</ele>
        <time>2020-09-20T08:46:48Z</time>
      </trkpt>
      <trkpt lat="40.8271100" lon="-8.1388490">
        <ele>990.8</ele>
        <time>2020-09-20T08:46:51Z</time>
      </trkpt>
      <trkpt lat="40.8271040" lon="-8.1389690">
        <ele>989.8</ele>
        <time>2020-09-20T08:46:54Z</time>
      </trkpt>
      <trkpt lat="40.8270960" lon="-8.1391330">
        <ele>988.4</ele>
        <time>2020-09-20T08:46:58Z</time>
      </trkpt>
      <trkpt lat="40.8270950" lon="-8.1393390">
        <ele>987.2</ele>
        <time>2020-09-20T08:47:03Z</time>
      </trkpt>
      <trkpt lat="40.8270790" lon="-8.1395030">
        <ele>986.2</ele>
        <time>2020-09-20T08:47:07Z</time>
      </trkpt>
      <trkpt lat="40.8270710" lon="-8.1396640">
        <ele>985.0</ele>
        <time>2020-09-20T08:47:11Z</time>
      </trkpt>
      <trkpt lat="40.8270690" lon="-8.1398410">
        <ele>984.0</ele>
        <time>2020-09-20T08:47:16Z</time>
      </trkpt>
      <trkpt lat="40.8270830" lon="-8.1400890">
        <ele>982.8</ele>
        <time>2020-09-20T08:47:22Z</time>
      </trkpt>
      <trkpt lat="40.8270820" lon="-8.1403370">
        <ele>982.0</ele>
        <time>2020-09-20T08:47:28Z</time>
      </trkpt>
      <trkpt lat="40.8270800" lon="-8.1404220">
        <ele>981.8</ele>
        <time>2020-09-20T08:47:30Z</time>
      </trkpt>
      <trkpt lat="40.8270780" lon="-8.1406850">
        <ele>981.0</ele>
        <time>2020-09-20T08:47:37Z</time>
      </trkpt>
      <trkpt lat="40.8270740" lon="-8.1408410">
        <ele>980.6</ele>
        <time>2020-09-20T08:47:41Z</time>
      </trkpt>
      <trkpt lat="40.8270890" lon="-8.1410730">
        <ele>979.6</ele>
        <time>2020-09-20T08:47:47Z</time>
      </trkpt>
      <trkpt lat="40.8271090" lon="-8.1413090">
        <ele>978.6</ele>
        <time>2020-09-20T08:47:53Z</time>
      </trkpt>
      <trkpt lat="40.8271150" lon="-8.1413470">
        <ele>978.2</ele>
        <time>2020-09-20T08:47:54Z</time>
      </trkpt>
      <trkpt lat="40.8271530" lon="-8.1415890">
        <ele>977.6</ele>
        <time>2020-09-20T08:48:00Z</time>
      </trkpt>
      <trkpt lat="40.8271740" lon="-8.1417050">
        <ele>977.2</ele>
        <time>2020-09-20T08:48:03Z</time>
      </trkpt>
      <trkpt lat="40.8272440" lon="-8.1419670">
        <ele>976.4</ele>
        <time>2020-09-20T08:48:10Z</time>
      </trkpt>
      <trkpt lat="40.8272690" lon="-8.1420410">
        <ele>976.2</ele>
        <time>2020-09-20T08:48:12Z</time>
      </trkpt>
      <trkpt lat="40.8272830" lon="-8.1420770">
        <ele>976.0</ele>
        <time>2020-09-20T08:48:13Z</time>
      </trkpt>
      <trkpt lat="40.8273890" lon="-8.1423130">
        <ele>975.8</ele>
        <time>2020-09-20T08:48:20Z</time>
      </trkpt>
      <trkpt lat="40.8274150" lon="-8.1423770">
        <ele>975.4</ele>
        <time>2020-09-20T08:48:22Z</time>
      </trkpt>
      <trkpt lat="40.8274450" lon="-8.1424470">
        <ele>975.2</ele>
        <time>2020-09-20T08:48:24Z</time>
      </trkpt>
      <trkpt lat="40.8275400" lon="-8.1426550">
        <ele>974.2</ele>
        <time>2020-09-20T08:48:30Z</time>
      </trkpt>
      <trkpt lat="40.8275560" lon="-8.1426930">
        <ele>973.8</ele>
        <time>2020-09-20T08:48:31Z</time>
      </trkpt>
      <trkpt lat="40.8276380" lon="-8.1428700">
        <ele>972.8</ele>
        <time>2020-09-20T08:48:36Z</time>
      </trkpt>
      <trkpt lat="40.8277360" lon="-8.1430790">
        <ele>971.6</ele>
        <time>2020-09-20T08:48:42Z</time>
      </trkpt>
      <trkpt lat="40.8278300" lon="-8.1433030">
        <ele>970.6</ele>
        <time>2020-09-20T08:48:48Z</time>
      </trkpt>
      <trkpt lat="40.8278470" lon="-8.1433400">
        <ele>970.4</ele>
        <time>2020-09-20T08:48:49Z</time>
      </trkpt>
      <trkpt lat="40.8279250" lon="-8.1435140">
        <ele>969.4</ele>
        <time>2020-09-20T08:48:54Z</time>
      </trkpt>
      <trkpt lat="40.8279900" lon="-8.1436570">
        <ele>968.8</ele>
        <time>2020-09-20T08:48:58Z</time>
      </trkpt>
      <trkpt lat="40.8280230" lon="-8.1437270">
        <ele>968.2</ele>
        <time>2020-09-20T08:49:00Z</time>
      </trkpt>
      <trkpt lat="40.8281220" lon="-8.1439360">
        <ele>967.2</ele>
        <time>2020-09-20T08:49:06Z</time>
      </trkpt>
      <trkpt lat="40.8282200" lon="-8.1441450">
        <ele>966.2</ele>
        <time>2020-09-20T08:49:12Z</time>
      </trkpt>
      <trkpt lat="40.8282710" lon="-8.1442470">
        <ele>964.8</ele>
        <time>2020-09-20T08:49:15Z</time>
      </trkpt>
      <trkpt lat="40.8283520" lon="-8.1444280">
        <ele>963.6</ele>
        <time>2020-09-20T08:49:20Z</time>
      </trkpt>
      <trkpt lat="40.8284410" lon="-8.1445930">
        <ele>962.4</ele>
        <time>2020-09-20T08:49:25Z</time>
      </trkpt>
      <trkpt lat="40.8285170" lon="-8.1447210">
        <ele>961.2</ele>
        <time>2020-09-20T08:49:29Z</time>
      </trkpt>
      <trkpt lat="40.8285940" lon="-8.1448470">
        <ele>960.2</ele>
        <time>2020-09-20T08:49:33Z</time>
      </trkpt>
      <trkpt lat="40.8287080" lon="-8.1450300">
        <ele>959.2</ele>
        <time>2020-09-20T08:49:39Z</time>
      </trkpt>
      <trkpt lat="40.8287660" lon="-8.1451670">
        <ele>958.2</ele>
        <time>2020-09-20T08:49:43Z</time>
      </trkpt>
      <trkpt lat="40.8287970" lon="-8.1453130">
        <ele>957.0</ele>
        <time>2020-09-20T08:49:47Z</time>
      </trkpt>
      <trkpt lat="40.8287540" lon="-8.1455660">
        <ele>956.0</ele>
        <time>2020-09-20T08:49:54Z</time>
      </trkpt>
      <trkpt lat="40.8287390" lon="-8.1455990">
        <ele>955.8</ele>
        <time>2020-09-20T08:49:55Z</time>
      </trkpt>
      <trkpt lat="40.8286210" lon="-8.1458150">
        <ele>954.8</ele>
        <time>2020-09-20T08:50:02Z</time>
      </trkpt>
      <trkpt lat="40.8285110" lon="-8.1460180">
        <ele>954.0</ele>
        <time>2020-09-20T08:50:09Z</time>
      </trkpt>
      <trkpt lat="40.8283750" lon="-8.1461900">
        <ele>953.8</ele>
        <time>2020-09-20T08:50:15Z</time>
      </trkpt>
      <trkpt lat="40.8283510" lon="-8.1462160">
        <ele>953.6</ele>
        <time>2020-09-20T08:50:16Z</time>
      </trkpt>
      <trkpt lat="40.8282070" lon="-8.1463740">
        <ele>953.4</ele>
        <time>2020-09-20T08:50:22Z</time>
      </trkpt>
      <trkpt lat="40.8280550" lon="-8.1465300">
        <ele>953.2</ele>
        <time>2020-09-20T08:50:28Z</time>
      </trkpt>
      <trkpt lat="40.8280060" lon="-8.1465730">
        <ele>952.6</ele>
        <time>2020-09-20T08:50:30Z</time>
      </trkpt>
      <trkpt lat="40.8278560" lon="-8.1467160">
        <ele>951.8</ele>
        <time>2020-09-20T08:50:36Z</time>
      </trkpt>
      <trkpt lat="40.8278080" lon="-8.1467610">
        <ele>951.6</ele>
        <time>2020-09-20T08:50:38Z</time>
      </trkpt>
      <trkpt lat="40.8277090" lon="-8.1469080">
        <ele>950.4</ele>
        <time>2020-09-20T08:50:43Z</time>
      </trkpt>
      <trkpt lat="40.8275980" lon="-8.1471150">
        <ele>949.4</ele>
        <time>2020-09-20T08:50:50Z</time>
      </trkpt>
      <trkpt lat="40.8274830" lon="-8.1473180">
        <ele>949.4</ele>
        <time>2020-09-20T08:50:57Z</time>
      </trkpt>
      <trkpt lat="40.8273690" lon="-8.1475160">
        <ele>950.2</ele>
        <time>2020-09-20T08:51:04Z</time>
      </trkpt>
      <trkpt lat="40.8273400" lon="-8.1475740">
        <ele>950.4</ele>
        <time>2020-09-20T08:51:06Z</time>
      </trkpt>
      <trkpt lat="40.8272740" lon="-8.1477270">
        <ele>951.8</ele>
        <time>2020-09-20T08:51:11Z</time>
      </trkpt>
      <trkpt lat="40.8272160" lon="-8.1478320">
        <ele>953.2</ele>
        <time>2020-09-20T08:51:15Z</time>
      </trkpt>
      <trkpt lat="40.8271570" lon="-8.1478960">
        <ele>954.2</ele>
        <time>2020-09-20T08:51:18Z</time>
      </trkpt>
      <trkpt lat="40.8270910" lon="-8.1479220">
        <ele>954.4</ele>
        <time>2020-09-20T08:51:21Z</time>
      </trkpt>
      <trkpt lat="40.8270830" lon="-8.1479210">
        <ele>953.8</ele>
        <time>2020-09-20T08:52:09Z</time>
      </trkpt>
      <trkpt lat="40.8271000" lon="-8.1479200">
        <ele>953.8</ele>
        <time>2020-09-20T08:52:10Z</time>
      </trkpt>
      <trkpt lat="40.8272880" lon="-8.1477990">
        <ele>954.2</ele>
        <time>2020-09-20T08:52:17Z</time>
      </trkpt>
      <trkpt lat="40.8273980" lon="-8.1476160">
        <ele>953.0</ele>
        <time>2020-09-20T08:52:22Z</time>
      </trkpt>
      <trkpt lat="40.8275210" lon="-8.1473940">
        <ele>952.0</ele>
        <time>2020-09-20T08:52:28Z</time>
      </trkpt>
      <trkpt lat="40.8275390" lon="-8.1473550">
        <ele>951.0</ele>
        <time>2020-09-20T08:52:29Z</time>
      </trkpt>
      <trkpt lat="40.8275570" lon="-8.1473160">
        <ele>952.2</ele>
        <time>2020-09-20T08:52:30Z</time>
      </trkpt>
      <trkpt lat="40.8276340" lon="-8.1471630">
        <ele>952.6</ele>
        <time>2020-09-20T08:52:34Z</time>
      </trkpt>
      <trkpt lat="40.8277280" lon="-8.1469780">
        <ele>951.0</ele>
        <time>2020-09-20T08:52:39Z</time>
      </trkpt>
      <trkpt lat="40.8278620" lon="-8.1467700">
        <ele>949.8</ele>
        <time>2020-09-20T08:52:46Z</time>
      </trkpt>
      <trkpt lat="40.8280140" lon="-8.1466290">
        <ele>949.2</ele>
        <time>2020-09-20T08:52:52Z</time>
      </trkpt>
      <trkpt lat="40.8281790" lon="-8.1464790">
        <ele>949.4</ele>
        <time>2020-09-20T08:52:59Z</time>
      </trkpt>
      <trkpt lat="40.8282990" lon="-8.1463330">
        <ele>951.0</ele>
        <time>2020-09-20T08:53:05Z</time>
      </trkpt>
      <trkpt lat="40.8283840" lon="-8.1462280">
        <ele>952.0</ele>
        <time>2020-09-20T08:53:09Z</time>
      </trkpt>
      <trkpt lat="40.8285130" lon="-8.1460760">
        <ele>952.4</ele>
        <time>2020-09-20T08:53:15Z</time>
      </trkpt>
      <trkpt lat="40.8286330" lon="-8.1458820">
        <ele>953.0</ele>
        <time>2020-09-20T08:53:22Z</time>
      </trkpt>
      <trkpt lat="40.8287290" lon="-8.1456690">
        <ele>953.0</ele>
        <time>2020-09-20T08:53:29Z</time>
      </trkpt>
      <trkpt lat="40.8287470" lon="-8.1456410">
        <ele>953.4</ele>
        <time>2020-09-20T08:53:30Z</time>
      </trkpt>
      <trkpt lat="40.8288290" lon="-8.1454280">
        <ele>954.2</ele>
        <time>2020-09-20T08:53:36Z</time>
      </trkpt>
      <trkpt lat="40.8288220" lon="-8.1451910">
        <ele>954.2</ele>
        <time>2020-09-20T08:53:42Z</time>
      </trkpt>
      <trkpt lat="40.8287750" lon="-8.1450410">
        <ele>954.4</ele>
        <time>2020-09-20T08:53:46Z</time>
      </trkpt>
      <trkpt lat="40.8286820" lon="-8.1448090">
        <ele>955.4</ele>
        <time>2020-09-20T08:53:53Z</time>
      </trkpt>
      <trkpt lat="40.8286630" lon="-8.1447800">
        <ele>955.4</ele>
        <time>2020-09-20T08:53:54Z</time>
      </trkpt>
      <trkpt lat="40.8285530" lon="-8.1446130">
        <ele>956.4</ele>
        <time>2020-09-20T08:54:00Z</time>
      </trkpt>
      <trkpt lat="40.8285020" lon="-8.1445320">
        <ele>957.2</ele>
        <time>2020-09-20T08:54:03Z</time>
      </trkpt>
      <trkpt lat="40.8284850" lon="-8.1445040">
        <ele>957.6</ele>
        <time>2020-09-20T08:54:04Z</time>
      </trkpt>
      <trkpt lat="40.8283770" lon="-8.1443030">
        <ele>958.2</ele>
        <time>2020-09-20T08:54:11Z</time>
      </trkpt>
      <trkpt lat="40.8283420" lon="-8.1442170">
        <ele>958.8</ele>
        <time>2020-09-20T08:54:14Z</time>
      </trkpt>
      <trkpt lat="40.8282720" lon="-8.1440790">
        <ele>960.0</ele>
        <time>2020-09-20T08:54:19Z</time>
      </trkpt>
      <trkpt lat="40.8282350" lon="-8.1439950">
        <ele>961.0</ele>
        <time>2020-09-20T08:54:22Z</time>
      </trkpt>
      <trkpt lat="40.8281870" lon="-8.1438830">
        <ele>962.2</ele>
        <time>2020-09-20T08:54:26Z</time>
      </trkpt>
      <trkpt lat="40.8281310" lon="-8.1437780">
        <ele>963.4</ele>
        <time>2020-09-20T08:54:30Z</time>
      </trkpt>
      <trkpt lat="40.8280950" lon="-8.1437020">
        <ele>963.8</ele>
        <time>2020-09-20T08:54:33Z</time>
      </trkpt>
      <trkpt lat="40.8279980" lon="-8.1434860">
        <ele>964.4</ele>
        <time>2020-09-20T08:54:41Z</time>
      </trkpt>
      <trkpt lat="40.8279870" lon="-8.1434570">
        <ele>964.6</ele>
        <time>2020-09-20T08:54:42Z</time>
      </trkpt>
      <trkpt lat="40.8279330" lon="-8.1433460">
        <ele>966.0</ele>
        <time>2020-09-20T08:54:46Z</time>
      </trkpt>
      <trkpt lat="40.8278910" lon="-8.1432670">
        <ele>967.0</ele>
        <time>2020-09-20T08:54:49Z</time>
      </trkpt>
      <trkpt lat="40.8277870" lon="-8.1430550">
        <ele>968.0</ele>
        <time>2020-09-20T08:54:57Z</time>
      </trkpt>
      <trkpt lat="40.8277750" lon="-8.1430280">
        <ele>968.0</ele>
        <time>2020-09-20T08:54:58Z</time>
      </trkpt>
      <trkpt lat="40.8276890" lon="-8.1428130">
        <ele>968.6</ele>
        <time>2020-09-20T08:55:06Z</time>
      </trkpt>
      <trkpt lat="40.8276400" lon="-8.1426980">
        <ele>969.0</ele>
        <time>2020-09-20T08:55:10Z</time>
      </trkpt>
      <trkpt lat="40.8275740" lon="-8.1425650">
        <ele>970.2</ele>
        <time>2020-09-20T08:55:15Z</time>
      </trkpt>
      <trkpt lat="40.8275350" lon="-8.1424820">
        <ele>971.2</ele>
        <time>2020-09-20T08:55:18Z</time>
      </trkpt>
      <trkpt lat="40.8274440" lon="-8.1422640">
        <ele>971.8</ele>
        <time>2020-09-20T08:55:26Z</time>
      </trkpt>
      <trkpt lat="40.8273590" lon="-8.1420690">
        <ele>972.4</ele>
        <time>2020-09-20T08:55:33Z</time>
      </trkpt>
      <trkpt lat="40.8273260" lon="-8.1419710">
        <ele>973.4</ele>
        <time>2020-09-20T08:55:36Z</time>
      </trkpt>
      <trkpt lat="40.8272620" lon="-8.1417430">
        <ele>974.0</ele>
        <time>2020-09-20T08:55:43Z</time>
      </trkpt>
      <trkpt lat="40.8272300" lon="-8.1415760">
        <ele>974.6</ele>
        <time>2020-09-20T08:55:48Z</time>
      </trkpt>
      <trkpt lat="40.8271930" lon="-8.1413400">
        <ele>975.0</ele>
        <time>2020-09-20T08:55:55Z</time>
      </trkpt>
      <trkpt lat="40.8271600" lon="-8.1410710">
        <ele>975.4</ele>
        <time>2020-09-20T08:56:03Z</time>
      </trkpt>
      <trkpt lat="40.8271440" lon="-8.1408390">
        <ele>975.6</ele>
        <time>2020-09-20T08:56:10Z</time>
      </trkpt>
      <trkpt lat="40.8271460" lon="-8.1407430">
        <ele>976.0</ele>
        <time>2020-09-20T08:56:13Z</time>
      </trkpt>
      <trkpt lat="40.8271420" lon="-8.1406760">
        <ele>976.6</ele>
        <time>2020-09-20T08:56:15Z</time>
      </trkpt>
      <trkpt lat="40.8271040" lon="-8.1404220">
        <ele>977.6</ele>
        <time>2020-09-20T08:56:23Z</time>
      </trkpt>
      <trkpt lat="40.8269800" lon="-8.1402190">
        <ele>978.2</ele>
        <time>2020-09-20T08:56:31Z</time>
      </trkpt>
      <trkpt lat="40.8269320" lon="-8.1399810">
        <ele>978.6</ele>
        <time>2020-09-20T08:56:39Z</time>
      </trkpt>
      <trkpt lat="40.8269080" lon="-8.1398870">
        <ele>978.8</ele>
        <time>2020-09-20T08:56:42Z</time>
      </trkpt>
      <trkpt lat="40.8268630" lon="-8.1396360">
        <ele>979.8</ele>
        <time>2020-09-20T08:56:50Z</time>
      </trkpt>
      <trkpt lat="40.8268390" lon="-8.1395460">
        <ele>981.2</ele>
        <time>2020-09-20T08:56:53Z</time>
      </trkpt>
      <trkpt lat="40.8268020" lon="-8.1393960">
        <ele>982.4</ele>
        <time>2020-09-20T08:56:58Z</time>
      </trkpt>
      <trkpt lat="40.8267440" lon="-8.1391580">
        <ele>982.8</ele>
        <time>2020-09-20T08:57:06Z</time>
      </trkpt>
      <trkpt lat="40.8267130" lon="-8.1390340">
        <ele>983.4</ele>
        <time>2020-09-20T08:57:10Z</time>
      </trkpt>
      <trkpt lat="40.8266830" lon="-8.1389090">
        <ele>984.4</ele>
        <time>2020-09-20T08:57:14Z</time>
      </trkpt>
      <trkpt lat="40.8266570" lon="-8.1387930">
        <ele>985.6</ele>
        <time>2020-09-20T08:57:18Z</time>
      </trkpt>
      <trkpt lat="40.8265920" lon="-8.1385860">
        <ele>986.6</ele>
        <time>2020-09-20T08:57:25Z</time>
      </trkpt>
      <trkpt lat="40.8265040" lon="-8.1383460">
        <ele>987.0</ele>
        <time>2020-09-20T08:57:33Z</time>
      </trkpt>
      <trkpt lat="40.8264470" lon="-8.1382570">
        <ele>987.6</ele>
        <time>2020-09-20T08:57:36Z</time>
      </trkpt>
      <trkpt lat="40.8263790" lon="-8.1381310">
        <ele>988.8</ele>
        <time>2020-09-20T08:57:40Z</time>
      </trkpt>
      <trkpt lat="40.8262710" lon="-8.1379110">
        <ele>989.6</ele>
        <time>2020-09-20T08:57:47Z</time>
      </trkpt>
      <trkpt lat="40.8262250" lon="-8.1377840">
        <ele>989.8</ele>
        <time>2020-09-20T08:57:51Z</time>
      </trkpt>
      <trkpt lat="40.8261450" lon="-8.1375410">
        <ele>989.8</ele>
        <time>2020-09-20T08:57:58Z</time>
      </trkpt>
      <trkpt lat="40.8260770" lon="-8.1372890">
        <ele>989.6</ele>
        <time>2020-09-20T08:58:05Z</time>
      </trkpt>
      <trkpt lat="40.8260070" lon="-8.1370310">
        <ele>989.0</ele>
        <time>2020-09-20T08:58:12Z</time>
      </trkpt>
      <trkpt lat="40.8259920" lon="-8.1369950">
        <ele>988.8</ele>
        <time>2020-09-20T08:58:13Z</time>
      </trkpt>
      <trkpt lat="40.8258930" lon="-8.1367880">
        <ele>988.4</ele>
        <time>2020-09-20T08:58:19Z</time>
      </trkpt>
      <trkpt lat="40.8258330" lon="-8.1366990">
        <ele>987.6</ele>
        <time>2020-09-20T08:58:22Z</time>
      </trkpt>
      <trkpt lat="40.8257150" lon="-8.1365150">
        <ele>987.0</ele>
        <time>2020-09-20T08:58:29Z</time>
      </trkpt>
      <trkpt lat="40.8255960" lon="-8.1363170">
        <ele>987.8</ele>
        <time>2020-09-20T08:58:37Z</time>
      </trkpt>
      <trkpt lat="40.8255370" lon="-8.1361640">
        <ele>988.8</ele>
        <time>2020-09-20T08:58:43Z</time>
      </trkpt>
      <trkpt lat="40.8254710" lon="-8.1360640">
        <ele>989.8</ele>
        <time>2020-09-20T08:58:47Z</time>
      </trkpt>
      <trkpt lat="40.8253020" lon="-8.1359040">
        <ele>990.4</ele>
        <time>2020-09-20T08:58:54Z</time>
      </trkpt>
      <trkpt lat="40.8251530" lon="-8.1357670">
        <ele>990.2</ele>
        <time>2020-09-20T08:59:00Z</time>
      </trkpt>
      <trkpt lat="40.8249870" lon="-8.1356070">
        <ele>990.2</ele>
        <time>2020-09-20T08:59:07Z</time>
      </trkpt>
      <trkpt lat="40.8248300" lon="-8.1354490">
        <ele>989.8</ele>
        <time>2020-09-20T08:59:14Z</time>
      </trkpt>
      <trkpt lat="40.8246570" lon="-8.1353110">
        <ele>989.6</ele>
        <time>2020-09-20T08:59:21Z</time>
      </trkpt>
      <trkpt lat="40.8244900" lon="-8.1351660">
        <ele>989.6</ele>
        <time>2020-09-20T08:59:28Z</time>
      </trkpt>
      <trkpt lat="40.8243250" lon="-8.1350130">
        <ele>989.6</ele>
        <time>2020-09-20T08:59:35Z</time>
      </trkpt>
      <trkpt lat="40.8241550" lon="-8.1348490">
        <ele>989.4</ele>
        <time>2020-09-20T08:59:42Z</time>
      </trkpt>
      <trkpt lat="40.8240360" lon="-8.1347250">
        <ele>989.4</ele>
        <time>2020-09-20T08:59:47Z</time>
      </trkpt>
      <trkpt lat="40.8238660" lon="-8.1345700">
        <ele>989.0</ele>
        <time>2020-09-20T08:59:54Z</time>
      </trkpt>
      <trkpt lat="40.8236920" lon="-8.1344350">
        <ele>989.4</ele>
        <time>2020-09-20T09:00:01Z</time>
      </trkpt>
      <trkpt lat="40.8235310" lon="-8.1342710">
        <ele>989.2</ele>
        <time>2020-09-20T09:00:08Z</time>
      </trkpt>
      <trkpt lat="40.8234020" lon="-8.1340980">
        <ele>989.0</ele>
        <time>2020-09-20T09:00:14Z</time>
      </trkpt>
      <trkpt lat="40.8233280" lon="-8.1339670">
        <ele>988.8</ele>
        <time>2020-09-20T09:00:18Z</time>
      </trkpt>
      <trkpt lat="40.8232630" lon="-8.1337190">
        <ele>988.0</ele>
        <time>2020-09-20T09:00:25Z</time>
      </trkpt>
      <trkpt lat="40.8231990" lon="-8.1334640">
        <ele>987.8</ele>
        <time>2020-09-20T09:00:32Z</time>
      </trkpt>
      <trkpt lat="40.8231710" lon="-8.1333460">
        <ele>987.8</ele>
        <time>2020-09-20T09:00:35Z</time>
      </trkpt>
      <trkpt lat="40.8231030" lon="-8.1331150">
        <ele>988.4</ele>
        <time>2020-09-20T09:00:41Z</time>
      </trkpt>
      <trkpt lat="40.8230260" lon="-8.1328920">
        <ele>987.8</ele>
        <time>2020-09-20T09:00:47Z</time>
      </trkpt>
      <trkpt lat="40.8229280" lon="-8.1326790">
        <ele>987.8</ele>
        <time>2020-09-20T09:00:53Z</time>
      </trkpt>
      <trkpt lat="40.8228190" lon="-8.1324780">
        <ele>987.0</ele>
        <time>2020-09-20T09:00:59Z</time>
      </trkpt>
      <trkpt lat="40.8227540" lon="-8.1323770">
        <ele>986.6</ele>
        <time>2020-09-20T09:01:02Z</time>
      </trkpt>
      <trkpt lat="40.8226250" lon="-8.1321930">
        <ele>985.6</ele>
        <time>2020-09-20T09:01:08Z</time>
      </trkpt>
      <trkpt lat="40.8226030" lon="-8.1321620">
        <ele>985.4</ele>
        <time>2020-09-20T09:01:09Z</time>
      </trkpt>
      <trkpt lat="40.8224650" lon="-8.1319690">
        <ele>984.4</ele>
        <time>2020-09-20T09:01:15Z</time>
      </trkpt>
      <trkpt lat="40.8223770" lon="-8.1318420">
        <ele>983.2</ele>
        <time>2020-09-20T09:01:19Z</time>
      </trkpt>
      <trkpt lat="40.8222700" lon="-8.1316940">
        <ele>982.2</ele>
        <time>2020-09-20T09:01:24Z</time>
      </trkpt>
      <trkpt lat="40.8221480" lon="-8.1315800">
        <ele>981.2</ele>
        <time>2020-09-20T09:01:29Z</time>
      </trkpt>
      <trkpt lat="40.8220040" lon="-8.1314830">
        <ele>980.4</ele>
        <time>2020-09-20T09:01:34Z</time>
      </trkpt>
      <trkpt lat="40.8219470" lon="-8.1314510">
        <ele>979.8</ele>
        <time>2020-09-20T09:01:36Z</time>
      </trkpt>
      <trkpt lat="40.8217970" lon="-8.1313880">
        <ele>978.8</ele>
        <time>2020-09-20T09:01:41Z</time>
      </trkpt>
      <trkpt lat="40.8216080" lon="-8.1313600">
        <ele>977.6</ele>
        <time>2020-09-20T09:01:47Z</time>
      </trkpt>
      <trkpt lat="40.8214440" lon="-8.1312420">
        <ele>976.2</ele>
        <time>2020-09-20T09:01:53Z</time>
      </trkpt>
      <trkpt lat="40.8213650" lon="-8.1311110">
        <ele>975.2</ele>
        <time>2020-09-20T09:01:57Z</time>
      </trkpt>
      <trkpt lat="40.8212700" lon="-8.1309340">
        <ele>974.0</ele>
        <time>2020-09-20T09:02:02Z</time>
      </trkpt>
      <trkpt lat="40.8211760" lon="-8.1307570">
        <ele>973.0</ele>
        <time>2020-09-20T09:02:07Z</time>
      </trkpt>
      <trkpt lat="40.8210840" lon="-8.1305790">
        <ele>971.6</ele>
        <time>2020-09-20T09:02:12Z</time>
      </trkpt>
      <trkpt lat="40.8210220" lon="-8.1304300">
        <ele>970.6</ele>
        <time>2020-09-20T09:02:16Z</time>
      </trkpt>
      <trkpt lat="40.8209730" lon="-8.1303220">
        <ele>969.6</ele>
        <time>2020-09-20T09:02:19Z</time>
      </trkpt>
      <trkpt lat="40.8209130" lon="-8.1301850">
        <ele>968.2</ele>
        <time>2020-09-20T09:02:23Z</time>
      </trkpt>
      <trkpt lat="40.8208480" lon="-8.1300420">
        <ele>967.0</ele>
        <time>2020-09-20T09:02:27Z</time>
      </trkpt>
      <trkpt lat="40.8207960" lon="-8.1298920">
        <ele>965.4</ele>
        <time>2020-09-20T09:02:31Z</time>
      </trkpt>
      <trkpt lat="40.8207190" lon="-8.1296970">
        <ele>963.8</ele>
        <time>2020-09-20T09:02:36Z</time>
      </trkpt>
      <trkpt lat="40.8206350" lon="-8.1295170">
        <ele>962.2</ele>
        <time>2020-09-20T09:02:41Z</time>
      </trkpt>
      <trkpt lat="40.8205610" lon="-8.1293670">
        <ele>961.0</ele>
        <time>2020-09-20T09:02:45Z</time>
      </trkpt>
      <trkpt lat="40.8205240" lon="-8.1292920">
        <ele>960.0</ele>
        <time>2020-09-20T09:02:47Z</time>
      </trkpt>
      <trkpt lat="40.8204640" lon="-8.1291700">
        <ele>958.4</ele>
        <time>2020-09-20T09:02:50Z</time>
      </trkpt>
      <trkpt lat="40.8203780" lon="-8.1290310">
        <ele>957.4</ele>
        <time>2020-09-20T09:02:54Z</time>
      </trkpt>
      <trkpt lat="40.8202870" lon="-8.1289100">
        <ele>955.6</ele>
        <time>2020-09-20T09:02:58Z</time>
      </trkpt>
      <trkpt lat="40.8201790" lon="-8.1288080">
        <ele>954.4</ele>
        <time>2020-09-20T09:03:02Z</time>
      </trkpt>
      <trkpt lat="40.8200860" lon="-8.1287540">
        <ele>953.2</ele>
        <time>2020-09-20T09:03:05Z</time>
      </trkpt>
      <trkpt lat="40.8199680" lon="-8.1286730">
        <ele>951.6</ele>
        <time>2020-09-20T09:03:09Z</time>
      </trkpt>
      <trkpt lat="40.8198770" lon="-8.1286100">
        <ele>950.6</ele>
        <time>2020-09-20T09:03:12Z</time>
      </trkpt>
      <trkpt lat="40.8197840" lon="-8.1285750">
        <ele>949.2</ele>
        <time>2020-09-20T09:03:15Z</time>
      </trkpt>
      <trkpt lat="40.8195910" lon="-8.1285910">
        <ele>947.2</ele>
        <time>2020-09-20T09:03:21Z</time>
      </trkpt>
      <trkpt lat="40.8194040" lon="-8.1286760">
        <ele>946.0</ele>
        <time>2020-09-20T09:03:27Z</time>
      </trkpt>
      <trkpt lat="40.8192890" lon="-8.1287320">
        <ele>945.0</ele>
        <time>2020-09-20T09:03:30Z</time>
      </trkpt>
      <trkpt lat="40.8191450" lon="-8.1287950">
        <ele>943.8</ele>
        <time>2020-09-20T09:03:37Z</time>
      </trkpt>
      <trkpt lat="40.8189430" lon="-8.1287960">
        <ele>943.0</ele>
        <time>2020-09-20T09:03:44Z</time>
      </trkpt>
      <trkpt lat="40.8189140" lon="-8.1287830">
        <ele>942.6</ele>
        <time>2020-09-20T09:03:45Z</time>
      </trkpt>
      <trkpt lat="40.8188180" lon="-8.1285760">
        <ele>941.6</ele>
        <time>2020-09-20T09:03:51Z</time>
      </trkpt>
      <trkpt lat="40.8187920" lon="-8.1283510">
        <ele>940.6</ele>
        <time>2020-09-20T09:03:56Z</time>
      </trkpt>
      <trkpt lat="40.8187890" lon="-8.1281770">
        <ele>939.4</ele>
        <time>2020-09-20T09:04:00Z</time>
      </trkpt>
      <trkpt lat="40.8187900" lon="-8.1280500">
        <ele>938.4</ele>
        <time>2020-09-20T09:04:03Z</time>
      </trkpt>
      <trkpt lat="40.8188050" lon="-8.1279270">
        <ele>937.0</ele>
        <time>2020-09-20T09:04:06Z</time>
      </trkpt>
      <trkpt lat="40.8188400" lon="-8.1278140">
        <ele>935.8</ele>
        <time>2020-09-20T09:04:09Z</time>
      </trkpt>
      <trkpt lat="40.8189460" lon="-8.1276680">
        <ele>934.4</ele>
        <time>2020-09-20T09:04:14Z</time>
      </trkpt>
      <trkpt lat="40.8190010" lon="-8.1275600">
        <ele>933.2</ele>
        <time>2020-09-20T09:04:17Z</time>
      </trkpt>
      <trkpt lat="40.8189780" lon="-8.1272990">
        <ele>932.0</ele>
        <time>2020-09-20T09:04:23Z</time>
      </trkpt>
      <trkpt lat="40.8189080" lon="-8.1271980">
        <ele>930.8</ele>
        <time>2020-09-20T09:04:26Z</time>
      </trkpt>
      <trkpt lat="40.8187660" lon="-8.1270770">
        <ele>929.4</ele>
        <time>2020-09-20T09:04:31Z</time>
      </trkpt>
      <trkpt lat="40.8187370" lon="-8.1270510">
        <ele>928.2</ele>
        <time>2020-09-20T09:04:32Z</time>
      </trkpt>
      <trkpt lat="40.8186750" lon="-8.1270050">
        <ele>927.0</ele>
        <time>2020-09-20T09:04:34Z</time>
      </trkpt>
      <trkpt lat="40.8186180" lon="-8.1269810">
        <ele>922.0</ele>
        <time>2020-09-20T09:04:44Z</time>
      </trkpt>
      <trkpt lat="40.8185230" lon="-8.1269140">
        <ele>920.8</ele>
        <time>2020-09-20T09:04:49Z</time>
      </trkpt>
      <trkpt lat="40.8183690" lon="-8.1267850">
        <ele>920.0</ele>
        <time>2020-09-20T09:04:54Z</time>
      </trkpt>
      <trkpt lat="40.8183400" lon="-8.1267560">
        <ele>919.8</ele>
        <time>2020-09-20T09:04:55Z</time>
      </trkpt>
      <trkpt lat="40.8181830" lon="-8.1266180">
        <ele>919.0</ele>
        <time>2020-09-20T09:05:00Z</time>
      </trkpt>
      <trkpt lat="40.8181480" lon="-8.1266030">
        <ele>918.4</ele>
        <time>2020-09-20T09:05:01Z</time>
      </trkpt>
      <trkpt lat="40.8180420" lon="-8.1265600">
        <ele>917.0</ele>
        <time>2020-09-20T09:05:04Z</time>
      </trkpt>
      <trkpt lat="40.8179090" lon="-8.1264870">
        <ele>916.0</ele>
        <time>2020-09-20T09:05:08Z</time>
      </trkpt>
      <trkpt lat="40.8178130" lon="-8.1264210">
        <ele>914.4</ele>
        <time>2020-09-20T09:05:11Z</time>
      </trkpt>
      <trkpt lat="40.8177150" lon="-8.1263780">
        <ele>913.4</ele>
        <time>2020-09-20T09:05:14Z</time>
      </trkpt>
      <trkpt lat="40.8175440" lon="-8.1263690">
        <ele>912.0</ele>
        <time>2020-09-20T09:05:19Z</time>
      </trkpt>
      <trkpt lat="40.8174760" lon="-8.1263840">
        <ele>910.8</ele>
        <time>2020-09-20T09:05:21Z</time>
      </trkpt>
      <trkpt lat="40.8173020" lon="-8.1264330">
        <ele>909.8</ele>
        <time>2020-09-20T09:05:26Z</time>
      </trkpt>
      <trkpt lat="40.8172340" lon="-8.1264630">
        <ele>908.2</ele>
        <time>2020-09-20T09:05:28Z</time>
      </trkpt>
      <trkpt lat="40.8171360" lon="-8.1265160">
        <ele>907.0</ele>
        <time>2020-09-20T09:05:31Z</time>
      </trkpt>
      <trkpt lat="40.8170370" lon="-8.1265510">
        <ele>905.0</ele>
        <time>2020-09-20T09:05:34Z</time>
      </trkpt>
      <trkpt lat="40.8169720" lon="-8.1265650">
        <ele>904.0</ele>
        <time>2020-09-20T09:05:36Z</time>
      </trkpt>
      <trkpt lat="40.8168450" lon="-8.1266150">
        <ele>903.0</ele>
        <time>2020-09-20T09:05:40Z</time>
      </trkpt>
      <trkpt lat="40.8167810" lon="-8.1266450">
        <ele>901.8</ele>
        <time>2020-09-20T09:05:42Z</time>
      </trkpt>
      <trkpt lat="40.8166620" lon="-8.1267270">
        <ele>900.4</ele>
        <time>2020-09-20T09:05:46Z</time>
      </trkpt>
      <trkpt lat="40.8165750" lon="-8.1267990">
        <ele>899.0</ele>
        <time>2020-09-20T09:05:49Z</time>
      </trkpt>
      <trkpt lat="40.8164940" lon="-8.1268870">
        <ele>897.6</ele>
        <time>2020-09-20T09:05:52Z</time>
      </trkpt>
      <trkpt lat="40.8163830" lon="-8.1270640">
        <ele>896.4</ele>
        <time>2020-09-20T09:05:57Z</time>
      </trkpt>
      <trkpt lat="40.8163550" lon="-8.1271430">
        <ele>895.8</ele>
        <time>2020-09-20T09:05:59Z</time>
      </trkpt>
      <trkpt lat="40.8163410" lon="-8.1271830">
        <ele>895.2</ele>
        <time>2020-09-20T09:06:00Z</time>
      </trkpt>
      <trkpt lat="40.8162710" lon="-8.1273310">
        <ele>893.8</ele>
        <time>2020-09-20T09:06:04Z</time>
      </trkpt>
      <trkpt lat="40.8161750" lon="-8.1273940">
        <ele>892.6</ele>
        <time>2020-09-20T09:06:08Z</time>
      </trkpt>
      <trkpt lat="40.8160480" lon="-8.1273230">
        <ele>891.4</ele>
        <time>2020-09-20T09:06:13Z</time>
      </trkpt>
      <trkpt lat="40.8159060" lon="-8.1272560">
        <ele>890.2</ele>
        <time>2020-09-20T09:06:18Z</time>
      </trkpt>
      <trkpt lat="40.8157370" lon="-8.1271430">
        <ele>889.0</ele>
        <time>2020-09-20T09:06:24Z</time>
      </trkpt>
      <trkpt lat="40.8155880" lon="-8.1270580">
        <ele>887.8</ele>
        <time>2020-09-20T09:06:29Z</time>
      </trkpt>
      <trkpt lat="40.8154950" lon="-8.1270130">
        <ele>886.8</ele>
        <time>2020-09-20T09:06:32Z</time>
      </trkpt>
      <trkpt lat="40.8153340" lon="-8.1269770">
        <ele>885.4</ele>
        <time>2020-09-20T09:06:37Z</time>
      </trkpt>
      <trkpt lat="40.8151340" lon="-8.1269420">
        <ele>884.0</ele>
        <time>2020-09-20T09:06:43Z</time>
      </trkpt>
      <trkpt lat="40.8149970" lon="-8.1269350">
        <ele>882.8</ele>
        <time>2020-09-20T09:06:47Z</time>
      </trkpt>
      <trkpt lat="40.8148950" lon="-8.1269350">
        <ele>881.0</ele>
        <time>2020-09-20T09:06:50Z</time>
      </trkpt>
      <trkpt lat="40.8148270" lon="-8.1269310">
        <ele>880.0</ele>
        <time>2020-09-20T09:06:52Z</time>
      </trkpt>
      <trkpt lat="40.8146940" lon="-8.1269210">
        <ele>878.8</ele>
        <time>2020-09-20T09:06:56Z</time>
      </trkpt>
      <trkpt lat="40.8146280" lon="-8.1269120">
        <ele>877.6</ele>
        <time>2020-09-20T09:06:58Z</time>
      </trkpt>
      <trkpt lat="40.8144320" lon="-8.1268560">
        <ele>876.4</ele>
        <time>2020-09-20T09:07:04Z</time>
      </trkpt>
      <trkpt lat="40.8143680" lon="-8.1268370">
        <ele>875.2</ele>
        <time>2020-09-20T09:07:06Z</time>
      </trkpt>
      <trkpt lat="40.8142320" lon="-8.1268120">
        <ele>874.0</ele>
        <time>2020-09-20T09:07:10Z</time>
      </trkpt>
      <trkpt lat="40.8141030" lon="-8.1267750">
        <ele>873.0</ele>
        <time>2020-09-20T09:07:14Z</time>
      </trkpt>
      <trkpt lat="40.8139760" lon="-8.1267400">
        <ele>871.8</ele>
        <time>2020-09-20T09:07:18Z</time>
      </trkpt>
      <trkpt lat="40.8138410" lon="-8.1267000">
        <ele>870.4</ele>
        <time>2020-09-20T09:07:22Z</time>
      </trkpt>
      <trkpt lat="40.8137410" lon="-8.1266660">
        <ele>869.2</ele>
        <time>2020-09-20T09:07:25Z</time>
      </trkpt>
      <trkpt lat="40.8136410" lon="-8.1266460">
        <ele>868.2</ele>
        <time>2020-09-20T09:07:28Z</time>
      </trkpt>
      <trkpt lat="40.8135030" lon="-8.1266400">
        <ele>866.8</ele>
        <time>2020-09-20T09:07:32Z</time>
      </trkpt>
      <trkpt lat="40.8134330" lon="-8.1266340">
        <ele>865.6</ele>
        <time>2020-09-20T09:07:34Z</time>
      </trkpt>
      <trkpt lat="40.8133360" lon="-8.1266300">
        <ele>864.0</ele>
        <time>2020-09-20T09:07:37Z</time>
      </trkpt>
      <trkpt lat="40.8132080" lon="-8.1266470">
        <ele>862.6</ele>
        <time>2020-09-20T09:07:41Z</time>
      </trkpt>
      <trkpt lat="40.8130790" lon="-8.1266520">
        <ele>861.4</ele>
        <time>2020-09-20T09:07:45Z</time>
      </trkpt>
      <trkpt lat="40.8129550" lon="-8.1266540">
        <ele>860.0</ele>
        <time>2020-09-20T09:07:49Z</time>
      </trkpt>
      <trkpt lat="40.8128910" lon="-8.1266450">
        <ele>858.4</ele>
        <time>2020-09-20T09:07:51Z</time>
      </trkpt>
      <trkpt lat="40.8127960" lon="-8.1266160">
        <ele>857.2</ele>
        <time>2020-09-20T09:07:54Z</time>
      </trkpt>
      <trkpt lat="40.8127330" lon="-8.1266040">
        <ele>856.2</ele>
        <time>2020-09-20T09:07:56Z</time>
      </trkpt>
      <trkpt lat="40.8126370" lon="-8.1265820">
        <ele>854.6</ele>
        <time>2020-09-20T09:07:59Z</time>
      </trkpt>
      <trkpt lat="40.8125450" lon="-8.1265640">
        <ele>853.4</ele>
        <time>2020-09-20T09:08:02Z</time>
      </trkpt>
      <trkpt lat="40.8124510" lon="-8.1265380">
        <ele>851.8</ele>
        <time>2020-09-20T09:08:05Z</time>
      </trkpt>
      <trkpt lat="40.8123600" lon="-8.1265140">
        <ele>850.6</ele>
        <time>2020-09-20T09:08:08Z</time>
      </trkpt>
      <trkpt lat="40.8122670" lon="-8.1264880">
        <ele>849.4</ele>
        <time>2020-09-20T09:08:11Z</time>
      </trkpt>
      <trkpt lat="40.8122270" lon="-8.1264580">
        <ele>848.4</ele>
        <time>2020-09-20T09:08:13Z</time>
      </trkpt>
      <trkpt lat="40.8122220" lon="-8.1264350">
        <ele>848.0</ele>
        <time>2020-09-20T09:08:14Z</time>
      </trkpt>
      <trkpt lat="40.8122470" lon="-8.1263790">
        <ele>847.6</ele>
        <time>2020-09-20T09:08:16Z</time>
      </trkpt>
      <trkpt lat="40.8122720" lon="-8.1263560">
        <ele>847.2</ele>
        <time>2020-09-20T09:08:17Z</time>
      </trkpt>
      <trkpt lat="40.8123230" lon="-8.1263120">
        <ele>846.2</ele>
        <time>2020-09-20T09:08:19Z</time>
      </trkpt>
      <trkpt lat="40.8124340" lon="-8.1262220">
        <ele>844.6</ele>
        <time>2020-09-20T09:08:23Z</time>
      </trkpt>
      <trkpt lat="40.8125950" lon="-8.1261320">
        <ele>843.4</ele>
        <time>2020-09-20T09:08:28Z</time>
      </trkpt>
      <trkpt lat="40.8127520" lon="-8.1260350">
        <ele>842.4</ele>
        <time>2020-09-20T09:08:33Z</time>
      </trkpt>
      <trkpt lat="40.8129420" lon="-8.1259320">
        <ele>841.4</ele>
        <time>2020-09-20T09:08:39Z</time>
      </trkpt>
      <trkpt lat="40.8129720" lon="-8.1259160">
        <ele>841.2</ele>
        <time>2020-09-20T09:08:40Z</time>
      </trkpt>
      <trkpt lat="40.8131530" lon="-8.1258220">
        <ele>840.4</ele>
        <time>2020-09-20T09:08:46Z</time>
      </trkpt>
      <trkpt lat="40.8131830" lon="-8.1258110">
        <ele>840.2</ele>
        <time>2020-09-20T09:08:47Z</time>
      </trkpt>
      <trkpt lat="40.8133610" lon="-8.1257190">
        <ele>839.6</ele>
        <time>2020-09-20T09:08:53Z</time>
      </trkpt>
      <trkpt lat="40.8135060" lon="-8.1256320">
        <ele>839.2</ele>
        <time>2020-09-20T09:08:58Z</time>
      </trkpt>
      <trkpt lat="40.8136830" lon="-8.1255320">
        <ele>838.8</ele>
        <time>2020-09-20T09:09:04Z</time>
      </trkpt>
      <trkpt lat="40.8138630" lon="-8.1254440">
        <ele>838.6</ele>
        <time>2020-09-20T09:09:10Z</time>
      </trkpt>
      <trkpt lat="40.8139570" lon="-8.1254180">
        <ele>838.2</ele>
        <time>2020-09-20T09:09:13Z</time>
      </trkpt>
      <trkpt lat="40.8140520" lon="-8.1253820">
        <ele>837.8</ele>
        <time>2020-09-20T09:09:16Z</time>
      </trkpt>
      <trkpt lat="40.8141140" lon="-8.1253610">
        <ele>837.2</ele>
        <time>2020-09-20T09:09:18Z</time>
      </trkpt>
      <trkpt lat="40.8142680" lon="-8.1253240">
        <ele>836.0</ele>
        <time>2020-09-20T09:09:23Z</time>
      </trkpt>
      <trkpt lat="40.8144170" lon="-8.1253560">
        <ele>834.8</ele>
        <time>2020-09-20T09:09:28Z</time>
      </trkpt>
      <trkpt lat="40.8145680" lon="-8.1253760">
        <ele>833.6</ele>
        <time>2020-09-20T09:09:33Z</time>
      </trkpt>
      <trkpt lat="40.8147460" lon="-8.1253090">
        <ele>832.4</ele>
        <time>2020-09-20T09:09:39Z</time>
      </trkpt>
      <trkpt lat="40.8148280" lon="-8.1252810">
        <ele>831.2</ele>
        <time>2020-09-20T09:09:42Z</time>
      </trkpt>
      <trkpt lat="40.8149680" lon="-8.1252260">
        <ele>829.6</ele>
        <time>2020-09-20T09:09:47Z</time>
      </trkpt>
      <trkpt lat="40.8150260" lon="-8.1251940">
        <ele>828.0</ele>
        <time>2020-09-20T09:09:49Z</time>
      </trkpt>
      <trkpt lat="40.8151100" lon="-8.1251480">
        <ele>826.8</ele>
        <time>2020-09-20T09:09:52Z</time>
      </trkpt>
      <trkpt lat="40.8152230" lon="-8.1250870">
        <ele>825.8</ele>
        <time>2020-09-20T09:09:56Z</time>
      </trkpt>
      <trkpt lat="40.8154090" lon="-8.1249830">
        <ele>824.8</ele>
        <time>2020-09-20T09:10:03Z</time>
      </trkpt>
      <trkpt lat="40.8154310" lon="-8.1249630">
        <ele>824.6</ele>
        <time>2020-09-20T09:10:04Z</time>
      </trkpt>
      <trkpt lat="40.8155930" lon="-8.1248040">
        <ele>824.6</ele>
        <time>2020-09-20T09:10:11Z</time>
      </trkpt>
      <trkpt lat="40.8157660" lon="-8.1246810">
        <ele>825.0</ele>
        <time>2020-09-20T09:10:18Z</time>
      </trkpt>
      <trkpt lat="40.8158340" lon="-8.1246340">
        <ele>826.0</ele>
        <time>2020-09-20T09:10:21Z</time>
      </trkpt>
      <trkpt lat="40.8159520" lon="-8.1245470">
        <ele>827.0</ele>
        <time>2020-09-20T09:10:26Z</time>
      </trkpt>
      <trkpt lat="40.8161410" lon="-8.1245780">
        <ele>827.8</ele>
        <time>2020-09-20T09:10:34Z</time>
      </trkpt>
      <trkpt lat="40.8161620" lon="-8.1245950">
        <ele>828.0</ele>
        <time>2020-09-20T09:10:35Z</time>
      </trkpt>
      <trkpt lat="40.8163130" lon="-8.1247400">
        <ele>828.4</ele>
        <time>2020-09-20T09:10:42Z</time>
      </trkpt>
      <trkpt lat="40.8164090" lon="-8.1248320">
        <ele>829.0</ele>
        <time>2020-09-20T09:10:46Z</time>
      </trkpt>
      <trkpt lat="40.8165650" lon="-8.1249580">
        <ele>829.4</ele>
        <time>2020-09-20T09:10:52Z</time>
      </trkpt>
      <trkpt lat="40.8167420" lon="-8.1249380">
        <ele>830.0</ele>
        <time>2020-09-20T09:10:58Z</time>
      </trkpt>
      <trkpt lat="40.8168260" lon="-8.1248820">
        <ele>830.0</ele>
        <time>2020-09-20T09:11:01Z</time>
      </trkpt>
      <trkpt lat="40.8169940" lon="-8.1247640">
        <ele>830.0</ele>
        <time>2020-09-20T09:11:07Z</time>
      </trkpt>
      <trkpt lat="40.8171340" lon="-8.1246780">
        <ele>829.6</ele>
        <time>2020-09-20T09:11:13Z</time>
      </trkpt>
      <trkpt lat="40.8172170" lon="-8.1246900">
        <ele>828.8</ele>
        <time>2020-09-20T09:11:16Z</time>
      </trkpt>
      <trkpt lat="40.8172740" lon="-8.1246970">
        <ele>827.6</ele>
        <time>2020-09-20T09:11:18Z</time>
      </trkpt>
      <trkpt lat="40.8173300" lon="-8.1246850">
        <ele>825.8</ele>
        <time>2020-09-20T09:11:20Z</time>
      </trkpt>
      <trkpt lat="40.8173860" lon="-8.1246650">
        <ele>824.4</ele>
        <time>2020-09-20T09:11:22Z</time>
      </trkpt>
      <trkpt lat="40.8174450" lon="-8.1246300">
        <ele>822.8</ele>
        <time>2020-09-20T09:11:24Z</time>
      </trkpt>
      <trkpt lat="40.8175250" lon="-8.1245930">
        <ele>821.8</ele>
        <time>2020-09-20T09:11:27Z</time>
      </trkpt>
      <trkpt lat="40.8177150" lon="-8.1245530">
        <ele>821.2</ele>
        <time>2020-09-20T09:11:35Z</time>
      </trkpt>
      <trkpt lat="40.8178870" lon="-8.1245360">
        <ele>820.8</ele>
        <time>2020-09-20T09:11:41Z</time>
      </trkpt>
      <trkpt lat="40.8179190" lon="-8.1245370">
        <ele>819.8</ele>
        <time>2020-09-20T09:11:42Z</time>
      </trkpt>
      <trkpt lat="40.8179790" lon="-8.1245360">
        <ele>818.8</ele>
        <time>2020-09-20T09:11:44Z</time>
      </trkpt>
      <trkpt lat="40.8180380" lon="-8.1245300">
        <ele>817.4</ele>
        <time>2020-09-20T09:11:46Z</time>
      </trkpt>
      <trkpt lat="40.8181210" lon="-8.1245210">
        <ele>815.8</ele>
        <time>2020-09-20T09:11:49Z</time>
      </trkpt>
      <trkpt lat="40.8181800" lon="-8.1245040">
        <ele>814.6</ele>
        <time>2020-09-20T09:11:51Z</time>
      </trkpt>
      <trkpt lat="40.8182700" lon="-8.1244610">
        <ele>813.6</ele>
        <time>2020-09-20T09:11:54Z</time>
      </trkpt>
      <trkpt lat="40.8183680" lon="-8.1244160">
        <ele>812.4</ele>
        <time>2020-09-20T09:11:57Z</time>
      </trkpt>
      <trkpt lat="40.8184620" lon="-8.1243750">
        <ele>811.4</ele>
        <time>2020-09-20T09:12:00Z</time>
      </trkpt>
      <trkpt lat="40.8185250" lon="-8.1243460">
        <ele>810.2</ele>
        <time>2020-09-20T09:12:02Z</time>
      </trkpt>
      <trkpt lat="40.8186190" lon="-8.1243100">
        <ele>809.0</ele>
        <time>2020-09-20T09:12:05Z</time>
      </trkpt>
      <trkpt lat="40.8187060" lon="-8.1242840">
        <ele>807.6</ele>
        <time>2020-09-20T09:12:08Z</time>
      </trkpt>
      <trkpt lat="40.8187920" lon="-8.1242790">
        <ele>806.4</ele>
        <time>2020-09-20T09:12:11Z</time>
      </trkpt>
      <trkpt lat="40.8188700" lon="-8.1242740">
        <ele>805.2</ele>
        <time>2020-09-20T09:12:14Z</time>
      </trkpt>
      <trkpt lat="40.8189260" lon="-8.1242650">
        <ele>804.2</ele>
        <time>2020-09-20T09:12:16Z</time>
      </trkpt>
      <trkpt lat="40.8189510" lon="-8.1242470">
        <ele>803.6</ele>
        <time>2020-09-20T09:12:17Z</time>
      </trkpt>
      <trkpt lat="40.8189720" lon="-8.1242260">
        <ele>802.6</ele>
        <time>2020-09-20T09:12:18Z</time>
      </trkpt>
      <trkpt lat="40.8190100" lon="-8.1241590">
        <ele>801.4</ele>
        <time>2020-09-20T09:12:20Z</time>
      </trkpt>
      <trkpt lat="40.8190360" lon="-8.1240790">
        <ele>800.4</ele>
        <time>2020-09-20T09:12:22Z</time>
      </trkpt>
      <trkpt lat="40.8190500" lon="-8.1239930">
        <ele>799.2</ele>
        <time>2020-09-20T09:12:24Z</time>
      </trkpt>
      <trkpt lat="40.8190470" lon="-8.1239060">
        <ele>798.2</ele>
        <time>2020-09-20T09:12:26Z</time>
      </trkpt>
      <trkpt lat="40.8190220" lon="-8.1238300">
        <ele>796.4</ele>
        <time>2020-09-20T09:12:28Z</time>
      </trkpt>
      <trkpt lat="40.8190080" lon="-8.1237980">
        <ele>795.0</ele>
        <time>2020-09-20T09:12:29Z</time>
      </trkpt>
      <trkpt lat="40.8189720" lon="-8.1237460">
        <ele>793.0</ele>
        <time>2020-09-20T09:12:31Z</time>
      </trkpt>
      <trkpt lat="40.8189410" lon="-8.1237060">
        <ele>791.6</ele>
        <time>2020-09-20T09:12:33Z</time>
      </trkpt>
      <trkpt lat="40.8188860" lon="-8.1236500">
        <ele>790.6</ele>
        <time>2020-09-20T09:12:36Z</time>
      </trkpt>
      <trkpt lat="40.8188650" lon="-8.1236310">
        <ele>789.8</ele>
        <time>2020-09-20T09:12:37Z</time>
      </trkpt>
      <trkpt lat="40.8188450" lon="-8.1236130">
        <ele>788.4</ele>
        <time>2020-09-20T09:12:38Z</time>
      </trkpt>
      <trkpt lat="40.8188260" lon="-8.1235980">
        <ele>787.2</ele>
        <time>2020-09-20T09:12:39Z</time>
      </trkpt>
      <trkpt lat="40.8187890" lon="-8.1235690">
        <ele>785.8</ele>
        <time>2020-09-20T09:12:41Z</time>
      </trkpt>
      <trkpt lat="40.8187490" lon="-8.1235390">
        <ele>784.4</ele>
        <time>2020-09-20T09:12:43Z</time>
      </trkpt>
      <trkpt lat="40.8186800" lon="-8.1234930">
        <ele>783.2</ele>
        <time>2020-09-20T09:12:46Z</time>
      </trkpt>
      <trkpt lat="40.8186600" lon="-8.1234780">
        <ele>781.8</ele>
        <time>2020-09-20T09:12:47Z</time>
      </trkpt>
      <trkpt lat="40.8186230" lon="-8.1234450">
        <ele>780.2</ele>
        <time>2020-09-20T09:12:49Z</time>
      </trkpt>
      <trkpt lat="40.8186050" lon="-8.1234300">
        <ele>779.2</ele>
        <time>2020-09-20T09:12:50Z</time>
      </trkpt>
      <trkpt lat="40.8185870" lon="-8.1234170">
        <ele>778.0</ele>
        <time>2020-09-20T09:12:51Z</time>
      </trkpt>
      <trkpt lat="40.8185520" lon="-8.1233790">
        <ele>776.6</ele>
        <time>2020-09-20T09:12:53Z</time>
      </trkpt>
      <trkpt lat="40.8185340" lon="-8.1233530">
        <ele>775.6</ele>
        <time>2020-09-20T09:12:54Z</time>
      </trkpt>
      <trkpt lat="40.8184940" lon="-8.1232910">
        <ele>774.2</ele>
        <time>2020-09-20T09:12:56Z</time>
      </trkpt>
      <trkpt lat="40.8184210" lon="-8.1232080">
        <ele>772.6</ele>
        <time>2020-09-20T09:12:59Z</time>
      </trkpt>
      <trkpt lat="40.8183530" lon="-8.1231570">
        <ele>771.4</ele>
        <time>2020-09-20T09:13:02Z</time>
      </trkpt>
      <trkpt lat="40.8183330" lon="-8.1231430">
        <ele>770.2</ele>
        <time>2020-09-20T09:13:03Z</time>
      </trkpt>
      <trkpt lat="40.8183140" lon="-8.1231310">
        <ele>769.0</ele>
        <time>2020-09-20T09:13:04Z</time>
      </trkpt>
      <trkpt lat="40.8182760" lon="-8.1231050">
        <ele>767.0</ele>
        <time>2020-09-20T09:13:06Z</time>
      </trkpt>
      <trkpt lat="40.8182370" lon="-8.1230830">
        <ele>765.8</ele>
        <time>2020-09-20T09:13:08Z</time>
      </trkpt>
      <trkpt lat="40.8181960" lon="-8.1230590">
        <ele>764.2</ele>
        <time>2020-09-20T09:13:10Z</time>
      </trkpt>
      <trkpt lat="40.8181530" lon="-8.1230390">
        <ele>763.0</ele>
        <time>2020-09-20T09:13:12Z</time>
      </trkpt>
      <trkpt lat="40.8180990" lon="-8.1230130">
        <ele>761.8</ele>
        <time>2020-09-20T09:13:14Z</time>
      </trkpt>
      <trkpt lat="40.8180330" lon="-8.1229900">
        <ele>760.0</ele>
        <time>2020-09-20T09:13:16Z</time>
      </trkpt>
      <trkpt lat="40.8179980" lon="-8.1229830">
        <ele>759.0</ele>
        <time>2020-09-20T09:13:17Z</time>
      </trkpt>
      <trkpt lat="40.8179020" lon="-8.1229600">
        <ele>757.4</ele>
        <time>2020-09-20T09:13:20Z</time>
      </trkpt>
      <trkpt lat="40.8178400" lon="-8.1229340">
        <ele>756.4</ele>
        <time>2020-09-20T09:13:22Z</time>
      </trkpt>
      <trkpt lat="40.8177960" lon="-8.1228780">
        <ele>755.2</ele>
        <time>2020-09-20T09:13:24Z</time>
      </trkpt>
      <trkpt lat="40.8177800" lon="-8.1228460">
        <ele>754.2</ele>
        <time>2020-09-20T09:13:25Z</time>
      </trkpt>
      <trkpt lat="40.8177190" lon="-8.1227410">
        <ele>753.0</ele>
        <time>2020-09-20T09:13:28Z</time>
      </trkpt>
      <trkpt lat="40.8176320" lon="-8.1226200">
        <ele>752.0</ele>
        <time>2020-09-20T09:13:32Z</time>
      </trkpt>
      <trkpt lat="40.8176080" lon="-8.1225960">
        <ele>751.6</ele>
        <time>2020-09-20T09:13:33Z</time>
      </trkpt>
      <trkpt lat="40.8175320" lon="-8.1225300">
        <ele>750.2</ele>
        <time>2020-09-20T09:13:36Z</time>
      </trkpt>
      <trkpt lat="40.8174640" lon="-8.1224680">
        <ele>748.8</ele>
        <time>2020-09-20T09:13:39Z</time>
      </trkpt>
      <trkpt lat="40.8174220" lon="-8.1224330">
        <ele>747.4</ele>
        <time>2020-09-20T09:13:41Z</time>
      </trkpt>
      <trkpt lat="40.8173860" lon="-8.1224110">
        <ele>745.6</ele>
        <time>2020-09-20T09:13:43Z</time>
      </trkpt>
      <trkpt lat="40.8173290" lon="-8.1223860">
        <ele>744.4</ele>
        <time>2020-09-20T09:13:46Z</time>
      </trkpt>
      <trkpt lat="40.8173070" lon="-8.1223840">
        <ele>743.2</ele>
        <time>2020-09-20T09:13:47Z</time>
      </trkpt>
      <trkpt lat="40.8172570" lon="-8.1223730">
        <ele>741.0</ele>
        <time>2020-09-20T09:13:49Z</time>
      </trkpt>
      <trkpt lat="40.8172130" lon="-8.1223400">
        <ele>739.2</ele>
        <time>2020-09-20T09:13:51Z</time>
      </trkpt>
      <trkpt lat="40.8171950" lon="-8.1222710">
        <ele>737.8</ele>
        <time>2020-09-20T09:13:53Z</time>
      </trkpt>
      <trkpt lat="40.8171820" lon="-8.1221900">
        <ele>736.4</ele>
        <time>2020-09-20T09:13:55Z</time>
      </trkpt>
      <trkpt lat="40.8171510" lon="-8.1221170">
        <ele>735.4</ele>
        <time>2020-09-20T09:13:57Z</time>
      </trkpt>
      <trkpt lat="40.8170940" lon="-8.1220130">
        <ele>733.8</ele>
        <time>2020-09-20T09:14:00Z</time>
      </trkpt>
      <trkpt lat="40.8170330" lon="-8.1219050">
        <ele>732.4</ele>
        <time>2020-09-20T09:14:03Z</time>
      </trkpt>
      <trkpt lat="40.8169630" lon="-8.1217600">
        <ele>731.4</ele>
        <time>2020-09-20T09:14:07Z</time>
      </trkpt>
      <trkpt lat="40.8169250" lon="-8.1216420">
        <ele>729.8</ele>
        <time>2020-09-20T09:14:10Z</time>
      </trkpt>
      <trkpt lat="40.8168900" lon="-8.1215070">
        <ele>728.2</ele>
        <time>2020-09-20T09:14:13Z</time>
      </trkpt>
      <trkpt lat="40.8168360" lon="-8.1213930">
        <ele>727.0</ele>
        <time>2020-09-20T09:14:16Z</time>
      </trkpt>
      <trkpt lat="40.8167980" lon="-8.1213160">
        <ele>725.8</ele>
        <time>2020-09-20T09:14:18Z</time>
      </trkpt>
      <trkpt lat="40.8167750" lon="-8.1212850">
        <ele>724.8</ele>
        <time>2020-09-20T09:14:19Z</time>
      </trkpt>
      <trkpt lat="40.8167140" lon="-8.1211800">
        <ele>723.6</ele>
        <time>2020-09-20T09:14:22Z</time>
      </trkpt>
      <trkpt lat="40.8166760" lon="-8.1211040">
        <ele>722.0</ele>
        <time>2020-09-20T09:14:24Z</time>
      </trkpt>
      <trkpt lat="40.8166120" lon="-8.1210010">
        <ele>720.8</ele>
        <time>2020-09-20T09:14:27Z</time>
      </trkpt>
      <trkpt lat="40.8165670" lon="-8.1209320">
        <ele>719.6</ele>
        <time>2020-09-20T09:14:29Z</time>
      </trkpt>
      <trkpt lat="40.8165110" lon="-8.1208380">
        <ele>718.4</ele>
        <time>2020-09-20T09:14:32Z</time>
      </trkpt>
      <trkpt lat="40.8164750" lon="-8.1207770">
        <ele>717.0</ele>
        <time>2020-09-20T09:14:34Z</time>
      </trkpt>
      <trkpt lat="40.8164190" lon="-8.1206710">
        <ele>715.4</ele>
        <time>2020-09-20T09:14:37Z</time>
      </trkpt>
      <trkpt lat="40.8163670" lon="-8.1205570">
        <ele>713.6</ele>
        <time>2020-09-20T09:14:40Z</time>
      </trkpt>
      <trkpt lat="40.8163150" lon="-8.1204440">
        <ele>712.4</ele>
        <time>2020-09-20T09:14:43Z</time>
      </trkpt>
      <trkpt lat="40.8162740" lon="-8.1203750">
        <ele>710.8</ele>
        <time>2020-09-20T09:14:45Z</time>
      </trkpt>
      <trkpt lat="40.8162290" lon="-8.1203100">
        <ele>709.4</ele>
        <time>2020-09-20T09:14:47Z</time>
      </trkpt>
      <trkpt lat="40.8161560" lon="-8.1202270">
        <ele>707.6</ele>
        <time>2020-09-20T09:14:50Z</time>
      </trkpt>
      <trkpt lat="40.8160980" lon="-8.1201780">
        <ele>706.6</ele>
        <time>2020-09-20T09:14:52Z</time>
      </trkpt>
      <trkpt lat="40.8159850" lon="-8.1201590">
        <ele>704.8</ele>
        <time>2020-09-20T09:14:56Z</time>
      </trkpt>
      <trkpt lat="40.8159180" lon="-8.1201810">
        <ele>703.6</ele>
        <time>2020-09-20T09:14:58Z</time>
      </trkpt>
      <trkpt lat="40.8158180" lon="-8.1202220">
        <ele>702.4</ele>
        <time>2020-09-20T09:15:01Z</time>
      </trkpt>
      <trkpt lat="40.8157560" lon="-8.1202250">
        <ele>701.4</ele>
        <time>2020-09-20T09:15:03Z</time>
      </trkpt>
      <trkpt lat="40.8156870" lon="-8.1202330">
        <ele>700.0</ele>
        <time>2020-09-20T09:15:05Z</time>
      </trkpt>
      <trkpt lat="40.8155840" lon="-8.1202460">
        <ele>698.8</ele>
        <time>2020-09-20T09:15:08Z</time>
      </trkpt>
      <trkpt lat="40.8155180" lon="-8.1202470">
        <ele>697.6</ele>
        <time>2020-09-20T09:15:10Z</time>
      </trkpt>
      <trkpt lat="40.8154230" lon="-8.1202500">
        <ele>696.2</ele>
        <time>2020-09-20T09:15:13Z</time>
      </trkpt>
      <trkpt lat="40.8153620" lon="-8.1202520">
        <ele>695.2</ele>
        <time>2020-09-20T09:15:15Z</time>
      </trkpt>
      <trkpt lat="40.8152370" lon="-8.1202280">
        <ele>694.0</ele>
        <time>2020-09-20T09:15:19Z</time>
      </trkpt>
      <trkpt lat="40.8150470" lon="-8.1201610">
        <ele>693.2</ele>
        <time>2020-09-20T09:15:25Z</time>
      </trkpt>
      <trkpt lat="40.8149570" lon="-8.1201180">
        <ele>693.0</ele>
        <time>2020-09-20T09:15:28Z</time>
      </trkpt>
      <trkpt lat="40.8147870" lon="-8.1200060">
        <ele>692.8</ele>
        <time>2020-09-20T09:15:34Z</time>
      </trkpt>
      <trkpt lat="40.8146240" lon="-8.1198810">
        <ele>692.4</ele>
        <time>2020-09-20T09:15:40Z</time>
      </trkpt>
      <trkpt lat="40.8145180" lon="-8.1197830">
        <ele>692.0</ele>
        <time>2020-09-20T09:15:44Z</time>
      </trkpt>
      <trkpt lat="40.8143330" lon="-8.1196590">
        <ele>691.8</ele>
        <time>2020-09-20T09:15:51Z</time>
      </trkpt>
      <trkpt lat="40.8141700" lon="-8.1195470">
        <ele>691.4</ele>
        <time>2020-09-20T09:15:57Z</time>
      </trkpt>
      <trkpt lat="40.8140100" lon="-8.1194010">
        <ele>691.2</ele>
        <time>2020-09-20T09:16:03Z</time>
      </trkpt>
      <trkpt lat="40.8138870" lon="-8.1193230">
        <ele>690.6</ele>
        <time>2020-09-20T09:16:07Z</time>
      </trkpt>
      <trkpt lat="40.8137410" lon="-8.1192350">
        <ele>689.6</ele>
        <time>2020-09-20T09:16:12Z</time>
      </trkpt>
      <trkpt lat="40.8136280" lon="-8.1191370">
        <ele>688.6</ele>
        <time>2020-09-20T09:16:16Z</time>
      </trkpt>
      <trkpt lat="40.8134860" lon="-8.1190270">
        <ele>687.4</ele>
        <time>2020-09-20T09:16:21Z</time>
      </trkpt>
      <trkpt lat="40.8133820" lon="-8.1189210">
        <ele>686.4</ele>
        <time>2020-09-20T09:16:25Z</time>
      </trkpt>
      <trkpt lat="40.8132110" lon="-8.1187900">
        <ele>685.4</ele>
        <time>2020-09-20T09:16:31Z</time>
      </trkpt>
      <trkpt lat="40.8131520" lon="-8.1187690">
        <ele>685.4</ele>
        <time>2020-09-20T09:16:33Z</time>
      </trkpt>
      <trkpt lat="40.8130670" lon="-8.1187800">
        <ele>685.0</ele>
        <time>2020-09-20T09:16:36Z</time>
      </trkpt>
      <trkpt lat="40.8128900" lon="-8.1188370">
        <ele>684.8</ele>
        <time>2020-09-20T09:16:42Z</time>
      </trkpt>
      <trkpt lat="40.8127780" lon="-8.1187320">
        <ele>684.4</ele>
        <time>2020-09-20T09:16:47Z</time>
      </trkpt>
      <trkpt lat="40.8127390" lon="-8.1186620">
        <ele>683.4</ele>
        <time>2020-09-20T09:16:49Z</time>
      </trkpt>
      <trkpt lat="40.8127050" lon="-8.1185860">
        <ele>682.2</ele>
        <time>2020-09-20T09:16:51Z</time>
      </trkpt>
      <trkpt lat="40.8126620" lon="-8.1184670">
        <ele>680.6</ele>
        <time>2020-09-20T09:16:54Z</time>
      </trkpt>
      <trkpt lat="40.8126370" lon="-8.1183450">
        <ele>679.2</ele>
        <time>2020-09-20T09:16:57Z</time>
      </trkpt>
      <trkpt lat="40.8125560" lon="-8.1181030">
        <ele>678.6</ele>
        <time>2020-09-20T09:17:03Z</time>
      </trkpt>
      <trkpt lat="40.8124540" lon="-8.1178750">
        <ele>678.2</ele>
        <time>2020-09-20T09:17:09Z</time>
      </trkpt>
      <trkpt lat="40.8123550" lon="-8.1177580">
        <ele>676.8</ele>
        <time>2020-09-20T09:17:13Z</time>
      </trkpt>
      <trkpt lat="40.8121940" lon="-8.1176960">
        <ele>675.8</ele>
        <time>2020-09-20T09:17:18Z</time>
      </trkpt>
      <trkpt lat="40.8120720" lon="-8.1176110">
        <ele>674.6</ele>
        <time>2020-09-20T09:17:23Z</time>
      </trkpt>
      <trkpt lat="40.8120010" lon="-8.1174020">
        <ele>673.4</ele>
        <time>2020-09-20T09:17:29Z</time>
      </trkpt>
      <trkpt lat="40.8119810" lon="-8.1173290">
        <ele>672.2</ele>
        <time>2020-09-20T09:17:31Z</time>
      </trkpt>
      <trkpt lat="40.8119440" lon="-8.1172660">
        <ele>671.0</ele>
        <time>2020-09-20T09:17:33Z</time>
      </trkpt>
      <trkpt lat="40.8118640" lon="-8.1171800">
        <ele>669.6</ele>
        <time>2020-09-20T09:17:36Z</time>
      </trkpt>
      <trkpt lat="40.8118020" lon="-8.1171330">
        <ele>668.6</ele>
        <time>2020-09-20T09:17:38Z</time>
      </trkpt>
      <trkpt lat="40.8116540" lon="-8.1170230">
        <ele>667.2</ele>
        <time>2020-09-20T09:17:43Z</time>
      </trkpt>
      <trkpt lat="40.8115650" lon="-8.1169610">
        <ele>666.0</ele>
        <time>2020-09-20T09:17:46Z</time>
      </trkpt>
      <trkpt lat="40.8114160" lon="-8.1168720">
        <ele>664.8</ele>
        <time>2020-09-20T09:17:51Z</time>
      </trkpt>
      <trkpt lat="40.8113120" lon="-8.1167720">
        <ele>663.0</ele>
        <time>2020-09-20T09:17:55Z</time>
      </trkpt>
      <trkpt lat="40.8112650" lon="-8.1166750">
        <ele>662.0</ele>
        <time>2020-09-20T09:17:58Z</time>
      </trkpt>
      <trkpt lat="40.8112020" lon="-8.1165310">
        <ele>660.8</ele>
        <time>2020-09-20T09:18:02Z</time>
      </trkpt>
      <trkpt lat="40.8111450" lon="-8.1163370">
        <ele>659.6</ele>
        <time>2020-09-20T09:18:07Z</time>
      </trkpt>
      <trkpt lat="40.8110930" lon="-8.1162330">
        <ele>658.4</ele>
        <time>2020-09-20T09:18:10Z</time>
      </trkpt>
      <trkpt lat="40.8109840" lon="-8.1161200">
        <ele>656.8</ele>
        <time>2020-09-20T09:18:14Z</time>
      </trkpt>
      <trkpt lat="40.8108670" lon="-8.1160310">
        <ele>655.4</ele>
        <time>2020-09-20T09:18:18Z</time>
      </trkpt>
      <trkpt lat="40.8107400" lon="-8.1159790">
        <ele>654.4</ele>
        <time>2020-09-20T09:18:22Z</time>
      </trkpt>
      <trkpt lat="40.8105960" lon="-8.1159980">
        <ele>653.2</ele>
        <time>2020-09-20T09:18:27Z</time>
      </trkpt>
      <trkpt lat="40.8104420" lon="-8.1159560">
        <ele>652.0</ele>
        <time>2020-09-20T09:18:33Z</time>
      </trkpt>
      <trkpt lat="40.8103620" lon="-8.1159320">
        <ele>651.0</ele>
        <time>2020-09-20T09:18:36Z</time>
      </trkpt>
      <trkpt lat="40.8102800" lon="-8.1159140">
        <ele>649.2</ele>
        <time>2020-09-20T09:18:39Z</time>
      </trkpt>
      <trkpt lat="40.8102230" lon="-8.1159020">
        <ele>647.6</ele>
        <time>2020-09-20T09:18:41Z</time>
      </trkpt>
      <trkpt lat="40.8101380" lon="-8.1158880">
        <ele>645.8</ele>
        <time>2020-09-20T09:18:44Z</time>
      </trkpt>
      <trkpt lat="40.8100780" lon="-8.1158820">
        <ele>644.6</ele>
        <time>2020-09-20T09:18:46Z</time>
      </trkpt>
      <trkpt lat="40.8099850" lon="-8.1158770">
        <ele>643.2</ele>
        <time>2020-09-20T09:18:49Z</time>
      </trkpt>
      <trkpt lat="40.8099270" lon="-8.1158810">
        <ele>642.0</ele>
        <time>2020-09-20T09:18:51Z</time>
      </trkpt>
      <trkpt lat="40.8098700" lon="-8.1158910">
        <ele>640.8</ele>
        <time>2020-09-20T09:18:53Z</time>
      </trkpt>
      <trkpt lat="40.8097780" lon="-8.1158810">
        <ele>639.6</ele>
        <time>2020-09-20T09:18:56Z</time>
      </trkpt>
      <trkpt lat="40.8097140" lon="-8.1158680">
        <ele>638.6</ele>
        <time>2020-09-20T09:18:58Z</time>
      </trkpt>
      <trkpt lat="40.8096200" lon="-8.1158680">
        <ele>637.4</ele>
        <time>2020-09-20T09:19:01Z</time>
      </trkpt>
      <trkpt lat="40.8095600" lon="-8.1158690">
        <ele>636.2</ele>
        <time>2020-09-20T09:19:03Z</time>
      </trkpt>
      <trkpt lat="40.8094970" lon="-8.1158700">
        <ele>634.8</ele>
        <time>2020-09-20T09:19:05Z</time>
      </trkpt>
      <trkpt lat="40.8093700" lon="-8.1158670">
        <ele>633.2</ele>
        <time>2020-09-20T09:19:09Z</time>
      </trkpt>
      <trkpt lat="40.8093350" lon="-8.1158670">
        <ele>632.2</ele>
        <time>2020-09-20T09:19:10Z</time>
      </trkpt>
      <trkpt lat="40.8093000" lon="-8.1158710">
        <ele>631.6</ele>
        <time>2020-09-20T09:19:11Z</time>
      </trkpt>
      <trkpt lat="40.8092660" lon="-8.1158750">
        <ele>631.0</ele>
        <time>2020-09-20T09:19:12Z</time>
      </trkpt>
      <trkpt lat="40.8091640" lon="-8.1159040">
        <ele>629.4</ele>
        <time>2020-09-20T09:19:15Z</time>
      </trkpt>
      <trkpt lat="40.8090640" lon="-8.1159260">
        <ele>628.2</ele>
        <time>2020-09-20T09:19:18Z</time>
      </trkpt>
      <trkpt lat="40.8088960" lon="-8.1159910">
        <ele>626.6</ele>
        <time>2020-09-20T09:19:23Z</time>
      </trkpt>
      <trkpt lat="40.8087790" lon="-8.1160530">
        <ele>625.6</ele>
        <time>2020-09-20T09:19:27Z</time>
      </trkpt>
      <trkpt lat="40.8085980" lon="-8.1161060">
        <ele>624.6</ele>
        <time>2020-09-20T09:19:33Z</time>
      </trkpt>
      <trkpt lat="40.8085460" lon="-8.1160810">
        <ele>624.0</ele>
        <time>2020-09-20T09:19:35Z</time>
      </trkpt>
      <trkpt lat="40.8085180" lon="-8.1160190">
        <ele>623.6</ele>
        <time>2020-09-20T09:19:37Z</time>
      </trkpt>
      <trkpt lat="40.8085170" lon="-8.1159810">
        <ele>623.4</ele>
        <time>2020-09-20T09:19:38Z</time>
      </trkpt>
      <trkpt lat="40.8085300" lon="-8.1159010">
        <ele>622.2</ele>
        <time>2020-09-20T09:19:40Z</time>
      </trkpt>
      <trkpt lat="40.8085600" lon="-8.1157800">
        <ele>621.0</ele>
        <time>2020-09-20T09:19:43Z</time>
      </trkpt>
      <trkpt lat="40.8085710" lon="-8.1155430">
        <ele>619.4</ele>
        <time>2020-09-20T09:19:49Z</time>
      </trkpt>
      <trkpt lat="40.8084800" lon="-8.1154800">
        <ele>618.4</ele>
        <time>2020-09-20T09:19:52Z</time>
      </trkpt>
      <trkpt lat="40.8084150" lon="-8.1154680">
        <ele>617.2</ele>
        <time>2020-09-20T09:19:54Z</time>
      </trkpt>
      <trkpt lat="40.8083500" lon="-8.1154560">
        <ele>616.0</ele>
        <time>2020-09-20T09:19:56Z</time>
      </trkpt>
      <trkpt lat="40.8082490" lon="-8.1154220">
        <ele>614.8</ele>
        <time>2020-09-20T09:19:59Z</time>
      </trkpt>
      <trkpt lat="40.8080620" lon="-8.1154300">
        <ele>613.8</ele>
        <time>2020-09-20T09:20:05Z</time>
      </trkpt>
      <trkpt lat="40.8079180" lon="-8.1156250">
        <ele>613.2</ele>
        <time>2020-09-20T09:20:11Z</time>
      </trkpt>
      <trkpt lat="40.8078630" lon="-8.1157340">
        <ele>612.8</ele>
        <time>2020-09-20T09:20:14Z</time>
      </trkpt>
      <trkpt lat="40.8077760" lon="-8.1159670">
        <ele>612.2</ele>
        <time>2020-09-20T09:20:20Z</time>
      </trkpt>
      <trkpt lat="40.8077530" lon="-8.1160420">
        <ele>611.2</ele>
        <time>2020-09-20T09:20:22Z</time>
      </trkpt>
      <trkpt lat="40.8077030" lon="-8.1161460">
        <ele>610.0</ele>
        <time>2020-09-20T09:20:25Z</time>
      </trkpt>
      <trkpt lat="40.8076670" lon="-8.1162130">
        <ele>608.8</ele>
        <time>2020-09-20T09:20:27Z</time>
      </trkpt>
      <trkpt lat="40.8076190" lon="-8.1163170">
        <ele>607.6</ele>
        <time>2020-09-20T09:20:30Z</time>
      </trkpt>
      <trkpt lat="40.8075590" lon="-8.1164570">
        <ele>606.4</ele>
        <time>2020-09-20T09:20:34Z</time>
      </trkpt>
      <trkpt lat="40.8075170" lon="-8.1165720">
        <ele>604.6</ele>
        <time>2020-09-20T09:20:37Z</time>
      </trkpt>
      <trkpt lat="40.8074950" lon="-8.1166470">
        <ele>603.4</ele>
        <time>2020-09-20T09:20:39Z</time>
      </trkpt>
      <trkpt lat="40.8074550" lon="-8.1167580">
        <ele>602.2</ele>
        <time>2020-09-20T09:20:42Z</time>
      </trkpt>
      <trkpt lat="40.8074230" lon="-8.1168260">
        <ele>600.8</ele>
        <time>2020-09-20T09:20:44Z</time>
      </trkpt>
      <trkpt lat="40.8073850" lon="-8.1169520">
        <ele>599.8</ele>
        <time>2020-09-20T09:20:48Z</time>
      </trkpt>
      <trkpt lat="40.8073540" lon="-8.1170540">
        <ele>598.6</ele>
        <time>2020-09-20T09:20:51Z</time>
      </trkpt>
      <trkpt lat="40.8073290" lon="-8.1172150">
        <ele>597.2</ele>
        <time>2020-09-20T09:20:55Z</time>
      </trkpt>
      <trkpt lat="40.8072960" lon="-8.1173770">
        <ele>595.6</ele>
        <time>2020-09-20T09:20:59Z</time>
      </trkpt>
      <trkpt lat="40.8072630" lon="-8.1175360">
        <ele>594.6</ele>
        <time>2020-09-20T09:21:03Z</time>
      </trkpt>
      <trkpt lat="40.8072200" lon="-8.1177190">
        <ele>593.6</ele>
        <time>2020-09-20T09:21:08Z</time>
      </trkpt>
      <trkpt lat="40.8071800" lon="-8.1178280">
        <ele>592.4</ele>
        <time>2020-09-20T09:21:11Z</time>
      </trkpt>
      <trkpt lat="40.8071040" lon="-8.1180090">
        <ele>590.8</ele>
        <time>2020-09-20T09:21:16Z</time>
      </trkpt>
      <trkpt lat="40.8070480" lon="-8.1181030">
        <ele>589.8</ele>
        <time>2020-09-20T09:21:19Z</time>
      </trkpt>
      <trkpt lat="40.8069590" lon="-8.1182270">
        <ele>588.8</ele>
        <time>2020-09-20T09:21:23Z</time>
      </trkpt>
      <trkpt lat="40.8068890" lon="-8.1183630">
        <ele>587.6</ele>
        <time>2020-09-20T09:21:27Z</time>
      </trkpt>
      <trkpt lat="40.8068550" lon="-8.1184840">
        <ele>586.4</ele>
        <time>2020-09-20T09:21:30Z</time>
      </trkpt>
      <trkpt lat="40.8067910" lon="-8.1187210">
        <ele>585.8</ele>
        <time>2020-09-20T09:21:36Z</time>
      </trkpt>
      <trkpt lat="40.8067490" lon="-8.1188640">
        <ele>585.8</ele>
        <time>2020-09-20T09:21:40Z</time>
      </trkpt>
      <trkpt lat="40.8066650" lon="-8.1191180">
        <ele>586.2</ele>
        <time>2020-09-20T09:21:47Z</time>
      </trkpt>
      <trkpt lat="40.8065660" lon="-8.1193320">
        <ele>585.8</ele>
        <time>2020-09-20T09:21:53Z</time>
      </trkpt>
      <trkpt lat="40.8064310" lon="-8.1195340">
        <ele>585.8</ele>
        <time>2020-09-20T09:22:00Z</time>
      </trkpt>
      <trkpt lat="40.8062920" lon="-8.1197020">
        <ele>586.6</ele>
        <time>2020-09-20T09:22:07Z</time>
      </trkpt>
      <trkpt lat="40.8061440" lon="-8.1198630">
        <ele>587.0</ele>
        <time>2020-09-20T09:22:14Z</time>
      </trkpt>
      <trkpt lat="40.8060830" lon="-8.1199420">
        <ele>587.4</ele>
        <time>2020-09-20T09:22:17Z</time>
      </trkpt>
      <trkpt lat="40.8059950" lon="-8.1201760">
        <ele>588.4</ele>
        <time>2020-09-20T09:22:24Z</time>
      </trkpt>
      <trkpt lat="40.8059910" lon="-8.1202130">
        <ele>588.6</ele>
        <time>2020-09-20T09:22:25Z</time>
      </trkpt>
      <trkpt lat="40.8059950" lon="-8.1204800">
        <ele>589.4</ele>
        <time>2020-09-20T09:22:32Z</time>
      </trkpt>
      <trkpt lat="40.8059970" lon="-8.1205180">
        <ele>589.6</ele>
        <time>2020-09-20T09:22:33Z</time>
      </trkpt>
      <trkpt lat="40.8060230" lon="-8.1207810">
        <ele>589.6</ele>
        <time>2020-09-20T09:22:40Z</time>
      </trkpt>
      <trkpt lat="40.8060270" lon="-8.1210460">
        <ele>589.6</ele>
        <time>2020-09-20T09:22:47Z</time>
      </trkpt>
      <trkpt lat="40.8059560" lon="-8.1212690">
        <ele>589.2</ele>
        <time>2020-09-20T09:22:53Z</time>
      </trkpt>
      <trkpt lat="40.8058640" lon="-8.1214790">
        <ele>589.0</ele>
        <time>2020-09-20T09:22:59Z</time>
      </trkpt>
      <trkpt lat="40.8057490" lon="-8.1217090">
        <ele>588.6</ele>
        <time>2020-09-20T09:23:06Z</time>
      </trkpt>
      <trkpt lat="40.8056240" lon="-8.1218940">
        <ele>587.2</ele>
        <time>2020-09-20T09:23:12Z</time>
      </trkpt>
      <trkpt lat="40.8055890" lon="-8.1220030">
        <ele>586.2</ele>
        <time>2020-09-20T09:23:15Z</time>
      </trkpt>
      <trkpt lat="40.8055770" lon="-8.1221400">
        <ele>584.4</ele>
        <time>2020-09-20T09:23:18Z</time>
      </trkpt>
      <trkpt lat="40.8055610" lon="-8.1223230">
        <ele>583.0</ele>
        <time>2020-09-20T09:23:22Z</time>
      </trkpt>
      <trkpt lat="40.8055500" lon="-8.1224110">
        <ele>581.8</ele>
        <time>2020-09-20T09:23:24Z</time>
      </trkpt>
      <trkpt lat="40.8054220" lon="-8.1226180">
        <ele>581.2</ele>
        <time>2020-09-20T09:23:31Z</time>
      </trkpt>
      <trkpt lat="40.8052730" lon="-8.1227950">
        <ele>581.4</ele>
        <time>2020-09-20T09:23:38Z</time>
      </trkpt>
      <trkpt lat="40.8051710" lon="-8.1230210">
        <ele>582.0</ele>
        <time>2020-09-20T09:23:45Z</time>
      </trkpt>
      <trkpt lat="40.8051900" lon="-8.1232710">
        <ele>582.6</ele>
        <time>2020-09-20T09:23:52Z</time>
      </trkpt>
      <trkpt lat="40.8052030" lon="-8.1233030">
        <ele>582.8</ele>
        <time>2020-09-20T09:23:53Z</time>
      </trkpt>
      <trkpt lat="40.8053070" lon="-8.1235310">
        <ele>583.8</ele>
        <time>2020-09-20T09:24:00Z</time>
      </trkpt>
      <trkpt lat="40.8052880" lon="-8.1237090">
        <ele>584.8</ele>
        <time>2020-09-20T09:24:06Z</time>
      </trkpt>
      <trkpt lat="40.8052730" lon="-8.1237310">
        <ele>584.8</ele>
        <time>2020-09-20T09:24:07Z</time>
      </trkpt>
      <trkpt lat="40.8051710" lon="-8.1238780">
        <ele>585.8</ele>
        <time>2020-09-20T09:24:13Z</time>
      </trkpt>
      <trkpt lat="40.8050820" lon="-8.1240110">
        <ele>587.0</ele>
        <time>2020-09-20T09:24:18Z</time>
      </trkpt>
      <trkpt lat="40.8049640" lon="-8.1242060">
        <ele>587.6</ele>
        <time>2020-09-20T09:24:25Z</time>
      </trkpt>
      <trkpt lat="40.8049050" lon="-8.1243250">
        <ele>588.0</ele>
        <time>2020-09-20T09:24:29Z</time>
      </trkpt>
      <trkpt lat="40.8048660" lon="-8.1244170">
        <ele>588.6</ele>
        <time>2020-09-20T09:24:32Z</time>
      </trkpt>
      <trkpt lat="40.8047930" lon="-8.1245220">
        <ele>589.2</ele>
        <time>2020-09-20T09:24:36Z</time>
      </trkpt>
      <trkpt lat="40.8046380" lon="-8.1246230">
        <ele>590.2</ele>
        <time>2020-09-20T09:24:42Z</time>
      </trkpt>
      <trkpt lat="40.8045910" lon="-8.1246360">
        <ele>589.8</ele>
        <time>2020-09-20T09:25:07Z</time>
      </trkpt>
      <trkpt lat="40.8045720" lon="-8.1246370">
        <ele>590.0</ele>
        <time>2020-09-20T09:25:08Z</time>
      </trkpt>
      <trkpt lat="40.8045270" lon="-8.1246520">
        <ele>590.0</ele>
        <time>2020-09-20T09:25:10Z</time>
      </trkpt>
      <trkpt lat="40.8043360" lon="-8.1247390">
        <ele>589.4</ele>
        <time>2020-09-20T09:25:16Z</time>
      </trkpt>
      <trkpt lat="40.8041670" lon="-8.1248160">
        <ele>587.6</ele>
        <time>2020-09-20T09:25:21Z</time>
      </trkpt>
      <trkpt lat="40.8040650" lon="-8.1248420">
        <ele>586.4</ele>
        <time>2020-09-20T09:25:24Z</time>
      </trkpt>
      <trkpt lat="40.8039390" lon="-8.1248350">
        <ele>585.4</ele>
        <time>2020-09-20T09:25:28Z</time>
      </trkpt>
      <trkpt lat="40.8037690" lon="-8.1247780">
        <ele>584.4</ele>
        <time>2020-09-20T09:25:33Z</time>
      </trkpt>
      <trkpt lat="40.8037010" lon="-8.1247720">
        <ele>583.2</ele>
        <time>2020-09-20T09:25:35Z</time>
      </trkpt>
      <trkpt lat="40.8035280" lon="-8.1249230">
        <ele>582.2</ele>
        <time>2020-09-20T09:25:41Z</time>
      </trkpt>
      <trkpt lat="40.8035080" lon="-8.1249640">
        <ele>582.0</ele>
        <time>2020-09-20T09:25:42Z</time>
      </trkpt>
      <trkpt lat="40.8034410" lon="-8.1250800">
        <ele>581.0</ele>
        <time>2020-09-20T09:25:45Z</time>
      </trkpt>
      <trkpt lat="40.8033390" lon="-8.1252690">
        <ele>579.8</ele>
        <time>2020-09-20T09:25:50Z</time>
      </trkpt>
      <trkpt lat="40.8032520" lon="-8.1255130">
        <ele>579.6</ele>
        <time>2020-09-20T09:25:56Z</time>
      </trkpt>
      <trkpt lat="40.8031010" lon="-8.1256740">
        <ele>579.4</ele>
        <time>2020-09-20T09:26:02Z</time>
      </trkpt>
      <trkpt lat="40.8029360" lon="-8.1258130">
        <ele>579.2</ele>
        <time>2020-09-20T09:26:08Z</time>
      </trkpt>
      <trkpt lat="40.8027980" lon="-8.1259420">
        <ele>578.8</ele>
        <time>2020-09-20T09:26:13Z</time>
      </trkpt>
      <trkpt lat="40.8026270" lon="-8.1260420">
        <ele>578.2</ele>
        <time>2020-09-20T09:26:19Z</time>
      </trkpt>
      <trkpt lat="40.8024210" lon="-8.1260020">
        <ele>578.0</ele>
        <time>2020-09-20T09:26:26Z</time>
      </trkpt>
      <trkpt lat="40.8022520" lon="-8.1258700">
        <ele>578.2</ele>
        <time>2020-09-20T09:26:32Z</time>
      </trkpt>
      <trkpt lat="40.8020660" lon="-8.1258420">
        <ele>578.2</ele>
        <time>2020-09-20T09:26:38Z</time>
      </trkpt>
      <trkpt lat="40.8018810" lon="-8.1259600">
        <ele>578.0</ele>
        <time>2020-09-20T09:26:44Z</time>
      </trkpt>
      <trkpt lat="40.8017970" lon="-8.1259990">
        <ele>577.8</ele>
        <time>2020-09-20T09:26:47Z</time>
      </trkpt>
      <trkpt lat="40.8017390" lon="-8.1260230">
        <ele>576.6</ele>
        <time>2020-09-20T09:26:49Z</time>
      </trkpt>
      <trkpt lat="40.8015810" lon="-8.1260510">
        <ele>575.4</ele>
        <time>2020-09-20T09:26:54Z</time>
      </trkpt>
      <trkpt lat="40.8014570" lon="-8.1260760">
        <ele>574.4</ele>
        <time>2020-09-20T09:26:58Z</time>
      </trkpt>
      <trkpt lat="40.8013180" lon="-8.1261250">
        <ele>573.4</ele>
        <time>2020-09-20T09:27:02Z</time>
      </trkpt>
      <trkpt lat="40.8012470" lon="-8.1261470">
        <ele>572.2</ele>
        <time>2020-09-20T09:27:04Z</time>
      </trkpt>
      <trkpt lat="40.8011130" lon="-8.1261820">
        <ele>571.0</ele>
        <time>2020-09-20T09:27:08Z</time>
      </trkpt>
      <trkpt lat="40.8010470" lon="-8.1262710">
        <ele>569.2</ele>
        <time>2020-09-20T09:27:11Z</time>
      </trkpt>
      <trkpt lat="40.8010270" lon="-8.1263860">
        <ele>568.2</ele>
        <time>2020-09-20T09:27:14Z</time>
      </trkpt>
      <trkpt lat="40.8010990" lon="-8.1266340">
        <ele>567.8</ele>
        <time>2020-09-20T09:27:21Z</time>
      </trkpt>
      <trkpt lat="40.8011860" lon="-8.1268520">
        <ele>567.8</ele>
        <time>2020-09-20T09:27:27Z</time>
      </trkpt>
      <trkpt lat="40.8011440" lon="-8.1270940">
        <ele>567.4</ele>
        <time>2020-09-20T09:27:33Z</time>
      </trkpt>
      <trkpt lat="40.8011270" lon="-8.1272310">
        <ele>566.8</ele>
        <time>2020-09-20T09:27:36Z</time>
      </trkpt>
      <trkpt lat="40.8011150" lon="-8.1273200">
        <ele>565.6</ele>
        <time>2020-09-20T09:27:38Z</time>
      </trkpt>
      <trkpt lat="40.8010390" lon="-8.1274660">
        <ele>564.4</ele>
        <time>2020-09-20T09:27:42Z</time>
      </trkpt>
      <trkpt lat="40.8009620" lon="-8.1275720">
        <ele>563.2</ele>
        <time>2020-09-20T09:27:45Z</time>
      </trkpt>
      <trkpt lat="40.8008840" lon="-8.1276820">
        <ele>562.2</ele>
        <time>2020-09-20T09:27:48Z</time>
      </trkpt>
      <trkpt lat="40.8007940" lon="-8.1278130">
        <ele>560.6</ele>
        <time>2020-09-20T09:27:52Z</time>
      </trkpt>
      <trkpt lat="40.8006410" lon="-8.1278130">
        <ele>559.4</ele>
        <time>2020-09-20T09:27:57Z</time>
      </trkpt>
      <trkpt lat="40.8005530" lon="-8.1278630">
        <ele>558.2</ele>
        <time>2020-09-20T09:28:00Z</time>
      </trkpt>
      <trkpt lat="40.8005160" lon="-8.1279830">
        <ele>557.0</ele>
        <time>2020-09-20T09:28:03Z</time>
      </trkpt>
      <trkpt lat="40.8005120" lon="-8.1282010">
        <ele>555.8</ele>
        <time>2020-09-20T09:28:08Z</time>
      </trkpt>
      <trkpt lat="40.8005480" lon="-8.1283270">
        <ele>554.6</ele>
        <time>2020-09-20T09:28:11Z</time>
      </trkpt>
      <trkpt lat="40.8006590" lon="-8.1285230">
        <ele>554.0</ele>
        <time>2020-09-20T09:28:16Z</time>
      </trkpt>
      <trkpt lat="40.8007380" lon="-8.1287080">
        <ele>553.6</ele>
        <time>2020-09-20T09:28:21Z</time>
      </trkpt>
      <trkpt lat="40.8007420" lon="-8.1289510">
        <ele>553.2</ele>
        <time>2020-09-20T09:28:27Z</time>
      </trkpt>
      <trkpt lat="40.8008390" lon="-8.1291470">
        <ele>553.2</ele>
        <time>2020-09-20T09:28:33Z</time>
      </trkpt>
      <trkpt lat="40.8009770" lon="-8.1293270">
        <ele>552.6</ele>
        <time>2020-09-20T09:28:39Z</time>
      </trkpt>
      <trkpt lat="40.8010100" lon="-8.1294390">
        <ele>552.4</ele>
        <time>2020-09-20T09:28:42Z</time>
      </trkpt>
      <trkpt lat="40.8010120" lon="-8.1296800">
        <ele>552.4</ele>
        <time>2020-09-20T09:28:48Z</time>
      </trkpt>
      <trkpt lat="40.8010310" lon="-8.1299240">
        <ele>553.0</ele>
        <time>2020-09-20T09:28:55Z</time>
      </trkpt>
      <trkpt lat="40.8010210" lon="-8.1300330">
        <ele>553.6</ele>
        <time>2020-09-20T09:28:58Z</time>
      </trkpt>
      <trkpt lat="40.8009670" lon="-8.1302970">
        <ele>554.0</ele>
        <time>2020-09-20T09:29:05Z</time>
      </trkpt>
      <trkpt lat="40.8009510" lon="-8.1304590">
        <ele>554.6</ele>
        <time>2020-09-20T09:29:09Z</time>
      </trkpt>
      <trkpt lat="40.8009250" lon="-8.1307070">
        <ele>554.8</ele>
        <time>2020-09-20T09:29:15Z</time>
      </trkpt>
      <trkpt lat="40.8008900" lon="-8.1309470">
        <ele>554.0</ele>
        <time>2020-09-20T09:29:21Z</time>
      </trkpt>
      <trkpt lat="40.8007730" lon="-8.1311310">
        <ele>553.8</ele>
        <time>2020-09-20T09:29:28Z</time>
      </trkpt>
      <trkpt lat="40.8006110" lon="-8.1311410">
        <ele>553.6</ele>
        <time>2020-09-20T09:29:34Z</time>
      </trkpt>
      <trkpt lat="40.8004170" lon="-8.1311540">
        <ele>552.8</ele>
        <time>2020-09-20T09:29:41Z</time>
      </trkpt>
      <trkpt lat="40.8002980" lon="-8.1311400">
        <ele>552.4</ele>
        <time>2020-09-20T09:29:45Z</time>
      </trkpt>
      <trkpt lat="40.8001590" lon="-8.1310640">
        <ele>551.2</ele>
        <time>2020-09-20T09:29:50Z</time>
      </trkpt>
      <trkpt lat="40.7999910" lon="-8.1309540">
        <ele>549.6</ele>
        <time>2020-09-20T09:29:56Z</time>
      </trkpt>
      <trkpt lat="40.7998820" lon="-8.1308600">
        <ele>548.6</ele>
        <time>2020-09-20T09:30:00Z</time>
      </trkpt>
      <trkpt lat="40.7997250" lon="-8.1306730">
        <ele>547.4</ele>
        <time>2020-09-20T09:30:06Z</time>
      </trkpt>
      <trkpt lat="40.7995690" lon="-8.1305520">
        <ele>546.4</ele>
        <time>2020-09-20T09:30:12Z</time>
      </trkpt>
      <trkpt lat="40.7995240" lon="-8.1304880">
        <ele>546.0</ele>
        <time>2020-09-20T09:30:14Z</time>
      </trkpt>
      <trkpt lat="40.7994530" lon="-8.1303840">
        <ele>544.6</ele>
        <time>2020-09-20T09:30:17Z</time>
      </trkpt>
      <trkpt lat="40.7993220" lon="-8.1302240">
        <ele>543.0</ele>
        <time>2020-09-20T09:30:22Z</time>
      </trkpt>
      <trkpt lat="40.7992340" lon="-8.1301410">
        <ele>541.8</ele>
        <time>2020-09-20T09:30:25Z</time>
      </trkpt>
      <trkpt lat="40.7990680" lon="-8.1300480">
        <ele>541.0</ele>
        <time>2020-09-20T09:30:30Z</time>
      </trkpt>
      <trkpt lat="40.7990360" lon="-8.1300400">
        <ele>540.8</ele>
        <time>2020-09-20T09:30:31Z</time>
      </trkpt>
      <trkpt lat="40.7989410" lon="-8.1300190">
        <ele>539.6</ele>
        <time>2020-09-20T09:30:34Z</time>
      </trkpt>
      <trkpt lat="40.7987760" lon="-8.1300590">
        <ele>538.6</ele>
        <time>2020-09-20T09:30:39Z</time>
      </trkpt>
      <trkpt lat="40.7986100" lon="-8.1301220">
        <ele>537.0</ele>
        <time>2020-09-20T09:30:44Z</time>
      </trkpt>
      <trkpt lat="40.7985070" lon="-8.1301640">
        <ele>536.0</ele>
        <time>2020-09-20T09:30:47Z</time>
      </trkpt>
      <trkpt lat="40.7984740" lon="-8.1301830">
        <ele>534.8</ele>
        <time>2020-09-20T09:30:48Z</time>
      </trkpt>
      <trkpt lat="40.7984120" lon="-8.1302210">
        <ele>533.8</ele>
        <time>2020-09-20T09:30:50Z</time>
      </trkpt>
      <trkpt lat="40.7983580" lon="-8.1302680">
        <ele>532.6</ele>
        <time>2020-09-20T09:30:52Z</time>
      </trkpt>
      <trkpt lat="40.7982740" lon="-8.1304380">
        <ele>531.4</ele>
        <time>2020-09-20T09:30:57Z</time>
      </trkpt>
      <trkpt lat="40.7981640" lon="-8.1305780">
        <ele>531.0</ele>
        <time>2020-09-20T09:31:02Z</time>
      </trkpt>
      <trkpt lat="40.7980810" lon="-8.1306200">
        <ele>530.4</ele>
        <time>2020-09-20T09:31:05Z</time>
      </trkpt>
      <trkpt lat="40.7979000" lon="-8.1306890">
        <ele>529.8</ele>
        <time>2020-09-20T09:31:11Z</time>
      </trkpt>
      <trkpt lat="40.7977910" lon="-8.1307500">
        <ele>529.0</ele>
        <time>2020-09-20T09:31:15Z</time>
      </trkpt>
      <trkpt lat="40.7977340" lon="-8.1307470">
        <ele>528.0</ele>
        <time>2020-09-20T09:31:18Z</time>
      </trkpt>
      <trkpt lat="40.7977000" lon="-8.1306940">
        <ele>526.8</ele>
        <time>2020-09-20T09:31:24Z</time>
      </trkpt>
      <trkpt lat="40.7976690" lon="-8.1306350">
        <ele>525.6</ele>
        <time>2020-09-20T09:31:28Z</time>
      </trkpt>
      <trkpt lat="40.7976340" lon="-8.1305410">
        <ele>524.2</ele>
        <time>2020-09-20T09:31:33Z</time>
      </trkpt>
      <trkpt lat="40.7976290" lon="-8.1305240">
        <ele>523.2</ele>
        <time>2020-09-20T09:31:34Z</time>
      </trkpt>
      <trkpt lat="40.7976080" lon="-8.1304710">
        <ele>521.8</ele>
        <time>2020-09-20T09:31:37Z</time>
      </trkpt>
      <trkpt lat="40.7975860" lon="-8.1304240">
        <ele>520.8</ele>
        <time>2020-09-20T09:31:40Z</time>
      </trkpt>
      <trkpt lat="40.7975710" lon="-8.1303870">
        <ele>519.6</ele>
        <time>2020-09-20T09:31:42Z</time>
      </trkpt>
      <trkpt lat="40.7975300" lon="-8.1303390">
        <ele>518.4</ele>
        <time>2020-09-20T09:31:45Z</time>
      </trkpt>
      <trkpt lat="40.7974870" lon="-8.1303300">
        <ele>517.4</ele>
        <time>2020-09-20T09:31:47Z</time>
      </trkpt>
      <trkpt lat="40.7974630" lon="-8.1303370">
        <ele>517.2</ele>
        <time>2020-09-20T09:31:48Z</time>
      </trkpt>
      <trkpt lat="40.7972660" lon="-8.1303550">
        <ele>516.8</ele>
        <time>2020-09-20T09:31:55Z</time>
      </trkpt>
      <trkpt lat="40.7972050" lon="-8.1303680">
        <ele>516.8</ele>
        <time>2020-09-20T09:31:57Z</time>
      </trkpt>
      <trkpt lat="40.7970260" lon="-8.1304060">
        <ele>517.2</ele>
        <time>2020-09-20T09:32:03Z</time>
      </trkpt>
      <trkpt lat="40.7968310" lon="-8.1304550">
        <ele>517.4</ele>
        <time>2020-09-20T09:32:09Z</time>
      </trkpt>
      <trkpt lat="40.7966840" lon="-8.1305210">
        <ele>517.4</ele>
        <time>2020-09-20T09:32:14Z</time>
      </trkpt>
      <trkpt lat="40.7965010" lon="-8.1305790">
        <ele>517.6</ele>
        <time>2020-09-20T09:32:20Z</time>
      </trkpt>
      <trkpt lat="40.7963170" lon="-8.1306120">
        <ele>517.6</ele>
        <time>2020-09-20T09:32:26Z</time>
      </trkpt>
      <trkpt lat="40.7961280" lon="-8.1305180">
        <ele>517.0</ele>
        <time>2020-09-20T09:32:33Z</time>
      </trkpt>
      <trkpt lat="40.7960620" lon="-8.1304720">
        <ele>516.2</ele>
        <time>2020-09-20T09:32:35Z</time>
      </trkpt>
      <trkpt lat="40.7959350" lon="-8.1303680">
        <ele>515.0</ele>
        <time>2020-09-20T09:32:39Z</time>
      </trkpt>
      <trkpt lat="40.7957990" lon="-8.1302800">
        <ele>513.8</ele>
        <time>2020-09-20T09:32:43Z</time>
      </trkpt>
      <trkpt lat="40.7956690" lon="-8.1301850">
        <ele>512.4</ele>
        <time>2020-09-20T09:32:47Z</time>
      </trkpt>
      <trkpt lat="40.7955740" lon="-8.1301200">
        <ele>510.8</ele>
        <time>2020-09-20T09:32:50Z</time>
      </trkpt>
      <trkpt lat="40.7954750" lon="-8.1300490">
        <ele>509.8</ele>
        <time>2020-09-20T09:32:53Z</time>
      </trkpt>
      <trkpt lat="40.7954420" lon="-8.1300230">
        <ele>508.6</ele>
        <time>2020-09-20T09:32:54Z</time>
      </trkpt>
      <trkpt lat="40.7953510" lon="-8.1299490">
        <ele>507.6</ele>
        <time>2020-09-20T09:32:57Z</time>
      </trkpt>
      <trkpt lat="40.7952470" lon="-8.1299300">
        <ele>506.8</ele>
        <time>2020-09-20T09:33:00Z</time>
      </trkpt>
      <trkpt lat="40.7952150" lon="-8.1299480">
        <ele>505.8</ele>
        <time>2020-09-20T09:33:01Z</time>
      </trkpt>
      <trkpt lat="40.7951640" lon="-8.1300170">
        <ele>504.6</ele>
        <time>2020-09-20T09:33:03Z</time>
      </trkpt>
      <trkpt lat="40.7951040" lon="-8.1302050">
        <ele>503.0</ele>
        <time>2020-09-20T09:33:07Z</time>
      </trkpt>
      <trkpt lat="40.7950630" lon="-8.1303450">
        <ele>501.2</ele>
        <time>2020-09-20T09:33:10Z</time>
      </trkpt>
      <trkpt lat="40.7949910" lon="-8.1304380">
        <ele>499.6</ele>
        <time>2020-09-20T09:33:13Z</time>
      </trkpt>
      <trkpt lat="40.7949290" lon="-8.1304590">
        <ele>498.2</ele>
        <time>2020-09-20T09:33:15Z</time>
      </trkpt>
      <trkpt lat="40.7948290" lon="-8.1304640">
        <ele>497.0</ele>
        <time>2020-09-20T09:33:18Z</time>
      </trkpt>
      <trkpt lat="40.7947290" lon="-8.1304500">
        <ele>495.4</ele>
        <time>2020-09-20T09:33:21Z</time>
      </trkpt>
      <trkpt lat="40.7946260" lon="-8.1304330">
        <ele>494.0</ele>
        <time>2020-09-20T09:33:24Z</time>
      </trkpt>
      <trkpt lat="40.7945600" lon="-8.1304240">
        <ele>492.8</ele>
        <time>2020-09-20T09:33:26Z</time>
      </trkpt>
      <trkpt lat="40.7944590" lon="-8.1304080">
        <ele>491.4</ele>
        <time>2020-09-20T09:33:29Z</time>
      </trkpt>
      <trkpt lat="40.7943920" lon="-8.1303950">
        <ele>490.4</ele>
        <time>2020-09-20T09:33:31Z</time>
      </trkpt>
      <trkpt lat="40.7943230" lon="-8.1303870">
        <ele>488.8</ele>
        <time>2020-09-20T09:33:33Z</time>
      </trkpt>
      <trkpt lat="40.7942550" lon="-8.1303820">
        <ele>487.8</ele>
        <time>2020-09-20T09:33:35Z</time>
      </trkpt>
      <trkpt lat="40.7941470" lon="-8.1303750">
        <ele>486.2</ele>
        <time>2020-09-20T09:33:38Z</time>
      </trkpt>
      <trkpt lat="40.7940770" lon="-8.1303640">
        <ele>484.8</ele>
        <time>2020-09-20T09:33:40Z</time>
      </trkpt>
      <trkpt lat="40.7939440" lon="-8.1303370">
        <ele>483.6</ele>
        <time>2020-09-20T09:33:44Z</time>
      </trkpt>
      <trkpt lat="40.7938760" lon="-8.1303230">
        <ele>482.4</ele>
        <time>2020-09-20T09:33:46Z</time>
      </trkpt>
      <trkpt lat="40.7937790" lon="-8.1302920">
        <ele>481.4</ele>
        <time>2020-09-20T09:33:49Z</time>
      </trkpt>
      <trkpt lat="40.7936220" lon="-8.1302030">
        <ele>480.0</ele>
        <time>2020-09-20T09:33:54Z</time>
      </trkpt>
      <trkpt lat="40.7934670" lon="-8.1300880">
        <ele>479.0</ele>
        <time>2020-09-20T09:33:59Z</time>
      </trkpt>
      <trkpt lat="40.7933010" lon="-8.1299880">
        <ele>478.2</ele>
        <time>2020-09-20T09:34:04Z</time>
      </trkpt>
      <trkpt lat="40.7932680" lon="-8.1299690">
        <ele>477.6</ele>
        <time>2020-09-20T09:34:05Z</time>
      </trkpt>
      <trkpt lat="40.7932310" lon="-8.1299580">
        <ele>477.2</ele>
        <time>2020-09-20T09:34:06Z</time>
      </trkpt>
      <trkpt lat="40.7931980" lon="-8.1299450">
        <ele>476.6</ele>
        <time>2020-09-20T09:34:07Z</time>
      </trkpt>
      <trkpt lat="40.7931300" lon="-8.1299220">
        <ele>475.4</ele>
        <time>2020-09-20T09:34:09Z</time>
      </trkpt>
      <trkpt lat="40.7930640" lon="-8.1298990">
        <ele>474.2</ele>
        <time>2020-09-20T09:34:11Z</time>
      </trkpt>
      <trkpt lat="40.7929970" lon="-8.1298880">
        <ele>472.6</ele>
        <time>2020-09-20T09:34:13Z</time>
      </trkpt>
      <trkpt lat="40.7928870" lon="-8.1299040">
        <ele>471.2</ele>
        <time>2020-09-20T09:34:16Z</time>
      </trkpt>
      <trkpt lat="40.7928150" lon="-8.1299310">
        <ele>469.8</ele>
        <time>2020-09-20T09:34:18Z</time>
      </trkpt>
      <trkpt lat="40.7927110" lon="-8.1299870">
        <ele>468.6</ele>
        <time>2020-09-20T09:34:21Z</time>
      </trkpt>
      <trkpt lat="40.7926790" lon="-8.1300110">
        <ele>467.6</ele>
        <time>2020-09-20T09:34:22Z</time>
      </trkpt>
      <trkpt lat="40.7926220" lon="-8.1300780">
        <ele>466.4</ele>
        <time>2020-09-20T09:34:24Z</time>
      </trkpt>
      <trkpt lat="40.7925660" lon="-8.1302100">
        <ele>464.8</ele>
        <time>2020-09-20T09:34:27Z</time>
      </trkpt>
      <trkpt lat="40.7925440" lon="-8.1303100">
        <ele>463.0</ele>
        <time>2020-09-20T09:34:29Z</time>
      </trkpt>
      <trkpt lat="40.7925020" lon="-8.1304450">
        <ele>461.8</ele>
        <time>2020-09-20T09:34:32Z</time>
      </trkpt>
      <trkpt lat="40.7924660" lon="-8.1305300">
        <ele>460.4</ele>
        <time>2020-09-20T09:34:34Z</time>
      </trkpt>
      <trkpt lat="40.7923520" lon="-8.1306320">
        <ele>459.2</ele>
        <time>2020-09-20T09:34:38Z</time>
      </trkpt>
      <trkpt lat="40.7922900" lon="-8.1306330">
        <ele>457.6</ele>
        <time>2020-09-20T09:34:40Z</time>
      </trkpt>
      <trkpt lat="40.7922270" lon="-8.1306120">
        <ele>456.6</ele>
        <time>2020-09-20T09:34:42Z</time>
      </trkpt>
      <trkpt lat="40.7921030" lon="-8.1305360">
        <ele>455.4</ele>
        <time>2020-09-20T09:34:46Z</time>
      </trkpt>
      <trkpt lat="40.7920110" lon="-8.1304660">
        <ele>454.2</ele>
        <time>2020-09-20T09:34:49Z</time>
      </trkpt>
      <trkpt lat="40.7919220" lon="-8.1303840">
        <ele>452.8</ele>
        <time>2020-09-20T09:34:52Z</time>
      </trkpt>
      <trkpt lat="40.7918620" lon="-8.1303330">
        <ele>451.8</ele>
        <time>2020-09-20T09:34:54Z</time>
      </trkpt>
      <trkpt lat="40.7918040" lon="-8.1302740">
        <ele>450.8</ele>
        <time>2020-09-20T09:34:56Z</time>
      </trkpt>
      <trkpt lat="40.7916440" lon="-8.1300950">
        <ele>449.8</ele>
        <time>2020-09-20T09:35:02Z</time>
      </trkpt>
      <trkpt lat="40.7915450" lon="-8.1300530">
        <ele>448.4</ele>
        <time>2020-09-20T09:35:05Z</time>
      </trkpt>
      <trkpt lat="40.7914400" lon="-8.1300780">
        <ele>447.4</ele>
        <time>2020-09-20T09:35:08Z</time>
      </trkpt>
      <trkpt lat="40.7912800" lon="-8.1301850">
        <ele>446.8</ele>
        <time>2020-09-20T09:35:13Z</time>
      </trkpt>
      <trkpt lat="40.7912220" lon="-8.1302480">
        <ele>445.8</ele>
        <time>2020-09-20T09:35:15Z</time>
      </trkpt>
      <trkpt lat="40.7911130" lon="-8.1303860">
        <ele>444.8</ele>
        <time>2020-09-20T09:35:19Z</time>
      </trkpt>
      <trkpt lat="40.7910170" lon="-8.1305260">
        <ele>443.4</ele>
        <time>2020-09-20T09:35:23Z</time>
      </trkpt>
      <trkpt lat="40.7909710" lon="-8.1307030">
        <ele>442.0</ele>
        <time>2020-09-20T09:35:27Z</time>
      </trkpt>
      <trkpt lat="40.7910100" lon="-8.1308410">
        <ele>441.2</ele>
        <time>2020-09-20T09:35:30Z</time>
      </trkpt>
      <trkpt lat="40.7910290" lon="-8.1308810">
        <ele>440.2</ele>
        <time>2020-09-20T09:35:31Z</time>
      </trkpt>
      <trkpt lat="40.7910650" lon="-8.1309650">
        <ele>439.0</ele>
        <time>2020-09-20T09:35:33Z</time>
      </trkpt>
      <trkpt lat="40.7910820" lon="-8.1310910">
        <ele>438.0</ele>
        <time>2020-09-20T09:35:36Z</time>
      </trkpt>
      <trkpt lat="40.7910610" lon="-8.1311720">
        <ele>436.4</ele>
        <time>2020-09-20T09:35:38Z</time>
      </trkpt>
      <trkpt lat="40.7909930" lon="-8.1312450">
        <ele>435.2</ele>
        <time>2020-09-20T09:35:41Z</time>
      </trkpt>
      <trkpt lat="40.7909040" lon="-8.1312570">
        <ele>433.8</ele>
        <time>2020-09-20T09:35:44Z</time>
      </trkpt>
      <trkpt lat="40.7908380" lon="-8.1312420">
        <ele>432.4</ele>
        <time>2020-09-20T09:35:46Z</time>
      </trkpt>
      <trkpt lat="40.7907110" lon="-8.1311930">
        <ele>431.4</ele>
        <time>2020-09-20T09:35:50Z</time>
      </trkpt>
      <trkpt lat="40.7905940" lon="-8.1311200">
        <ele>430.2</ele>
        <time>2020-09-20T09:35:54Z</time>
      </trkpt>
      <trkpt lat="40.7904080" lon="-8.1310160">
        <ele>429.2</ele>
        <time>2020-09-20T09:36:00Z</time>
      </trkpt>
      <trkpt lat="40.7903780" lon="-8.1309980">
        <ele>429.2</ele>
        <time>2020-09-20T09:36:01Z</time>
      </trkpt>
      <trkpt lat="40.7902560" lon="-8.1309060">
        <ele>428.0</ele>
        <time>2020-09-20T09:36:05Z</time>
      </trkpt>
      <trkpt lat="40.7901310" lon="-8.1308250">
        <ele>426.8</ele>
        <time>2020-09-20T09:36:09Z</time>
      </trkpt>
      <trkpt lat="40.7900020" lon="-8.1307500">
        <ele>425.6</ele>
        <time>2020-09-20T09:36:13Z</time>
      </trkpt>
      <trkpt lat="40.7899070" lon="-8.1306940">
        <ele>424.4</ele>
        <time>2020-09-20T09:36:16Z</time>
      </trkpt>
      <trkpt lat="40.7898150" lon="-8.1306350">
        <ele>423.2</ele>
        <time>2020-09-20T09:36:19Z</time>
      </trkpt>
      <trkpt lat="40.7897240" lon="-8.1305730">
        <ele>422.2</ele>
        <time>2020-09-20T09:36:22Z</time>
      </trkpt>
      <trkpt lat="40.7895440" lon="-8.1304690">
        <ele>421.0</ele>
        <time>2020-09-20T09:36:28Z</time>
      </trkpt>
      <trkpt lat="40.7894190" lon="-8.1304080">
        <ele>420.0</ele>
        <time>2020-09-20T09:36:32Z</time>
      </trkpt>
      <trkpt lat="40.7892790" lon="-8.1303420">
        <ele>419.2</ele>
        <time>2020-09-20T09:36:37Z</time>
      </trkpt>
      <trkpt lat="40.7892230" lon="-8.1303140">
        <ele>419.0</ele>
        <time>2020-09-20T09:36:39Z</time>
      </trkpt>
      <trkpt lat="40.7891430" lon="-8.1302700">
        <ele>418.6</ele>
        <time>2020-09-20T09:36:42Z</time>
      </trkpt>
      <trkpt lat="40.7890310" lon="-8.1302140">
        <ele>418.0</ele>
        <time>2020-09-20T09:36:46Z</time>
      </trkpt>
      <trkpt lat="40.7888600" lon="-8.1300930">
        <ele>417.2</ele>
        <time>2020-09-20T09:36:52Z</time>
      </trkpt>
      <trkpt lat="40.7886780" lon="-8.1299620">
        <ele>417.2</ele>
        <time>2020-09-20T09:36:58Z</time>
      </trkpt>
      <trkpt lat="40.7885010" lon="-8.1298490">
        <ele>417.8</ele>
        <time>2020-09-20T09:37:04Z</time>
      </trkpt>
      <trkpt lat="40.7883560" lon="-8.1297520">
        <ele>419.0</ele>
        <time>2020-09-20T09:37:09Z</time>
      </trkpt>
      <trkpt lat="40.7882040" lon="-8.1296040">
        <ele>419.2</ele>
        <time>2020-09-20T09:37:15Z</time>
      </trkpt>
      <trkpt lat="40.7880640" lon="-8.1294440">
        <ele>419.2</ele>
        <time>2020-09-20T09:37:21Z</time>
      </trkpt>
      <trkpt lat="40.7878930" lon="-8.1293430">
        <ele>419.0</ele>
        <time>2020-09-20T09:37:27Z</time>
      </trkpt>
      <trkpt lat="40.7876950" lon="-8.1293980">
        <ele>418.8</ele>
        <time>2020-09-20T09:37:33Z</time>
      </trkpt>
      <trkpt lat="40.7875450" lon="-8.1295520">
        <ele>418.6</ele>
        <time>2020-09-20T09:37:38Z</time>
      </trkpt>
      <trkpt lat="40.7874190" lon="-8.1296650">
        <ele>417.8</ele>
        <time>2020-09-20T09:37:42Z</time>
      </trkpt>
      <trkpt lat="40.7873220" lon="-8.1297060">
        <ele>416.8</ele>
        <time>2020-09-20T09:37:45Z</time>
      </trkpt>
      <trkpt lat="40.7872240" lon="-8.1297260">
        <ele>415.6</ele>
        <time>2020-09-20T09:37:48Z</time>
      </trkpt>
      <trkpt lat="40.7870910" lon="-8.1297310">
        <ele>414.2</ele>
        <time>2020-09-20T09:37:52Z</time>
      </trkpt>
      <trkpt lat="40.7869590" lon="-8.1297510">
        <ele>413.0</ele>
        <time>2020-09-20T09:37:56Z</time>
      </trkpt>
      <trkpt lat="40.7868900" lon="-8.1297700">
        <ele>412.0</ele>
        <time>2020-09-20T09:37:58Z</time>
      </trkpt>
      <trkpt lat="40.7867880" lon="-8.1297940">
        <ele>411.0</ele>
        <time>2020-09-20T09:38:01Z</time>
      </trkpt>
      <trkpt lat="40.7866560" lon="-8.1298330">
        <ele>409.6</ele>
        <time>2020-09-20T09:38:05Z</time>
      </trkpt>
      <trkpt lat="40.7865550" lon="-8.1298660">
        <ele>408.4</ele>
        <time>2020-09-20T09:38:08Z</time>
      </trkpt>
      <trkpt lat="40.7864580" lon="-8.1299010">
        <ele>407.4</ele>
        <time>2020-09-20T09:38:11Z</time>
      </trkpt>
      <trkpt lat="40.7862640" lon="-8.1299650">
        <ele>406.2</ele>
        <time>2020-09-20T09:38:17Z</time>
      </trkpt>
      <trkpt lat="40.7861680" lon="-8.1299910">
        <ele>405.2</ele>
        <time>2020-09-20T09:38:20Z</time>
      </trkpt>
      <trkpt lat="40.7860640" lon="-8.1300090">
        <ele>404.0</ele>
        <time>2020-09-20T09:38:23Z</time>
      </trkpt>
      <trkpt lat="40.7858620" lon="-8.1300530">
        <ele>403.4</ele>
        <time>2020-09-20T09:38:29Z</time>
      </trkpt>
      <trkpt lat="40.7858300" lon="-8.1300580">
        <ele>403.2</ele>
        <time>2020-09-20T09:38:30Z</time>
      </trkpt>
      <trkpt lat="40.7857640" lon="-8.1300740">
        <ele>403.0</ele>
        <time>2020-09-20T09:38:32Z</time>
      </trkpt>
      <trkpt lat="40.7856370" lon="-8.1301110">
        <ele>401.8</ele>
        <time>2020-09-20T09:38:36Z</time>
      </trkpt>
      <trkpt lat="40.7854290" lon="-8.1301590">
        <ele>400.8</ele>
        <time>2020-09-20T09:38:42Z</time>
      </trkpt>
      <trkpt lat="40.7852370" lon="-8.1302160">
        <ele>399.8</ele>
        <time>2020-09-20T09:38:48Z</time>
      </trkpt>
      <trkpt lat="40.7852040" lon="-8.1302230">
        <ele>399.8</ele>
        <time>2020-09-20T09:38:49Z</time>
      </trkpt>
      <trkpt lat="40.7850120" lon="-8.1302350">
        <ele>399.6</ele>
        <time>2020-09-20T09:38:55Z</time>
      </trkpt>
      <trkpt lat="40.7848100" lon="-8.1301750">
        <ele>399.6</ele>
        <time>2020-09-20T09:39:01Z</time>
      </trkpt>
      <trkpt lat="40.7846030" lon="-8.1301400">
        <ele>399.4</ele>
        <time>2020-09-20T09:39:07Z</time>
      </trkpt>
      <trkpt lat="40.7844330" lon="-8.1301520">
        <ele>398.8</ele>
        <time>2020-09-20T09:39:12Z</time>
      </trkpt>
      <trkpt lat="40.7842330" lon="-8.1301860">
        <ele>398.2</ele>
        <time>2020-09-20T09:39:18Z</time>
      </trkpt>
      <trkpt lat="40.7840440" lon="-8.1302960">
        <ele>397.8</ele>
        <time>2020-09-20T09:39:24Z</time>
      </trkpt>
      <trkpt lat="40.7840170" lon="-8.1303150">
        <ele>397.8</ele>
        <time>2020-09-20T09:39:25Z</time>
      </trkpt>
      <trkpt lat="40.7838430" lon="-8.1303100">
        <ele>396.4</ele>
        <time>2020-09-20T09:39:31Z</time>
      </trkpt>
      <trkpt lat="40.7836940" lon="-8.1302450">
        <ele>395.4</ele>
        <time>2020-09-20T09:39:36Z</time>
      </trkpt>
      <trkpt lat="40.7835160" lon="-8.1301170">
        <ele>395.0</ele>
        <time>2020-09-20T09:39:42Z</time>
      </trkpt>
      <trkpt lat="40.7834220" lon="-8.1300470">
        <ele>394.4</ele>
        <time>2020-09-20T09:39:45Z</time>
      </trkpt>
      <trkpt lat="40.7832750" lon="-8.1299380">
        <ele>393.2</ele>
        <time>2020-09-20T09:39:50Z</time>
      </trkpt>
      <trkpt lat="40.7831060" lon="-8.1297990">
        <ele>392.8</ele>
        <time>2020-09-20T09:39:56Z</time>
      </trkpt>
      <trkpt lat="40.7829350" lon="-8.1296690">
        <ele>392.6</ele>
        <time>2020-09-20T09:40:02Z</time>
      </trkpt>
      <trkpt lat="40.7828490" lon="-8.1296840">
        <ele>392.2</ele>
        <time>2020-09-20T09:40:05Z</time>
      </trkpt>
      <trkpt lat="40.7827670" lon="-8.1298810">
        <ele>391.0</ele>
        <time>2020-09-20T09:40:10Z</time>
      </trkpt>
      <trkpt lat="40.7827200" lon="-8.1301490">
        <ele>390.6</ele>
        <time>2020-09-20T09:40:16Z</time>
      </trkpt>
      <trkpt lat="40.7826860" lon="-8.1304030">
        <ele>390.4</ele>
        <time>2020-09-20T09:40:22Z</time>
      </trkpt>
      <trkpt lat="40.7826530" lon="-8.1306520">
        <ele>390.4</ele>
        <time>2020-09-20T09:40:28Z</time>
      </trkpt>
      <trkpt lat="40.7826190" lon="-8.1308910">
        <ele>390.4</ele>
        <time>2020-09-20T09:40:34Z</time>
      </trkpt>
      <trkpt lat="40.7825860" lon="-8.1311450">
        <ele>390.4</ele>
        <time>2020-09-20T09:40:40Z</time>
      </trkpt>
      <trkpt lat="40.7825550" lon="-8.1313090">
        <ele>390.0</ele>
        <time>2020-09-20T09:40:44Z</time>
      </trkpt>
      <trkpt lat="40.7824980" lon="-8.1315470">
        <ele>389.6</ele>
        <time>2020-09-20T09:40:50Z</time>
      </trkpt>
      <trkpt lat="40.7824340" lon="-8.1317900">
        <ele>389.4</ele>
        <time>2020-09-20T09:40:56Z</time>
      </trkpt>
      <trkpt lat="40.7823910" lon="-8.1319920">
        <ele>388.8</ele>
        <time>2020-09-20T09:41:01Z</time>
      </trkpt>
      <trkpt lat="40.7823480" lon="-8.1322470">
        <ele>388.0</ele>
        <time>2020-09-20T09:41:07Z</time>
      </trkpt>
      <trkpt lat="40.7823240" lon="-8.1323750">
        <ele>387.8</ele>
        <time>2020-09-20T09:41:10Z</time>
      </trkpt>
      <trkpt lat="40.7822740" lon="-8.1326270">
        <ele>386.8</ele>
        <time>2020-09-20T09:41:16Z</time>
      </trkpt>
      <trkpt lat="40.7821990" lon="-8.1328750">
        <ele>386.0</ele>
        <time>2020-09-20T09:41:22Z</time>
      </trkpt>
      <trkpt lat="40.7821390" lon="-8.1330300">
        <ele>385.6</ele>
        <time>2020-09-20T09:41:26Z</time>
      </trkpt>
      <trkpt lat="40.7820390" lon="-8.1331840">
        <ele>384.4</ele>
        <time>2020-09-20T09:41:31Z</time>
      </trkpt>
      <trkpt lat="40.7818740" lon="-8.1332980">
        <ele>384.2</ele>
        <time>2020-09-20T09:41:37Z</time>
      </trkpt>
      <trkpt lat="40.7816680" lon="-8.1333500">
        <ele>383.8</ele>
        <time>2020-09-20T09:41:44Z</time>
      </trkpt>
      <trkpt lat="40.7814840" lon="-8.1333490">
        <ele>383.6</ele>
        <time>2020-09-20T09:41:50Z</time>
      </trkpt>
      <trkpt lat="40.7812960" lon="-8.1333520">
        <ele>383.6</ele>
        <time>2020-09-20T09:41:56Z</time>
      </trkpt>
      <trkpt lat="40.7810940" lon="-8.1333550">
        <ele>384.2</ele>
        <time>2020-09-20T09:42:03Z</time>
      </trkpt>
      <trkpt lat="40.7808930" lon="-8.1333970">
        <ele>385.4</ele>
        <time>2020-09-20T09:42:10Z</time>
      </trkpt>
      <trkpt lat="40.7807280" lon="-8.1334490">
        <ele>385.4</ele>
        <time>2020-09-20T09:42:16Z</time>
      </trkpt>
      <trkpt lat="40.7805430" lon="-8.1335300">
        <ele>385.6</ele>
        <time>2020-09-20T09:42:23Z</time>
      </trkpt>
      <trkpt lat="40.7803730" lon="-8.1336290">
        <ele>386.0</ele>
        <time>2020-09-20T09:42:30Z</time>
      </trkpt>
      <trkpt lat="40.7803250" lon="-8.1336560">
        <ele>386.6</ele>
        <time>2020-09-20T09:42:32Z</time>
      </trkpt>
      <trkpt lat="40.7801870" lon="-8.1337440">
        <ele>387.2</ele>
        <time>2020-09-20T09:42:38Z</time>
      </trkpt>
      <trkpt lat="40.7801450" lon="-8.1337820">
        <ele>387.8</ele>
        <time>2020-09-20T09:42:40Z</time>
      </trkpt>
      <trkpt lat="40.7800720" lon="-8.1338270">
        <ele>388.4</ele>
        <time>2020-09-20T09:42:43Z</time>
      </trkpt>
      <trkpt lat="40.7800470" lon="-8.1338400">
        <ele>388.8</ele>
        <time>2020-09-20T09:42:44Z</time>
      </trkpt>
      <trkpt lat="40.7799730" lon="-8.1338750">
        <ele>389.4</ele>
        <time>2020-09-20T09:42:47Z</time>
      </trkpt>
      <trkpt lat="40.7799460" lon="-8.1338880">
        <ele>390.0</ele>
        <time>2020-09-20T09:42:48Z</time>
      </trkpt>
      <trkpt lat="40.7798500" lon="-8.1339500">
        <ele>391.2</ele>
        <time>2020-09-20T09:42:52Z</time>
      </trkpt>
      <trkpt lat="40.7796770" lon="-8.1340550">
        <ele>392.2</ele>
        <time>2020-09-20T09:42:59Z</time>
      </trkpt>
      <trkpt lat="40.7796510" lon="-8.1340710">
        <ele>392.2</ele>
        <time>2020-09-20T09:43:00Z</time>
      </trkpt>
      <trkpt lat="40.7794680" lon="-8.1341700">
        <ele>392.8</ele>
        <time>2020-09-20T09:43:07Z</time>
      </trkpt>
      <trkpt lat="40.7793340" lon="-8.1342440">
        <ele>393.2</ele>
        <time>2020-09-20T09:43:12Z</time>
      </trkpt>
      <trkpt lat="40.7791970" lon="-8.1343170">
        <ele>394.4</ele>
        <time>2020-09-20T09:43:17Z</time>
      </trkpt>
      <trkpt lat="40.7790010" lon="-8.1344190">
        <ele>395.0</ele>
        <time>2020-09-20T09:43:24Z</time>
      </trkpt>
      <trkpt lat="40.7788100" lon="-8.1344760">
        <ele>395.0</ele>
        <time>2020-09-20T09:43:31Z</time>
      </trkpt>
      <trkpt lat="40.7786220" lon="-8.1345040">
        <ele>394.4</ele>
        <time>2020-09-20T09:43:37Z</time>
      </trkpt>
      <trkpt lat="40.7784290" lon="-8.1345270">
        <ele>394.0</ele>
        <time>2020-09-20T09:43:43Z</time>
      </trkpt>
      <trkpt lat="40.7782270" lon="-8.1345330">
        <ele>393.4</ele>
        <time>2020-09-20T09:43:49Z</time>
      </trkpt>
      <trkpt lat="40.7781950" lon="-8.1345270">
        <ele>393.0</ele>
        <time>2020-09-20T09:43:50Z</time>
      </trkpt>
      <trkpt lat="40.7780950" lon="-8.1345030">
        <ele>391.8</ele>
        <time>2020-09-20T09:43:53Z</time>
      </trkpt>
      <trkpt lat="40.7779980" lon="-8.1344860">
        <ele>390.8</ele>
        <time>2020-09-20T09:43:56Z</time>
      </trkpt>
      <trkpt lat="40.7777970" lon="-8.1344310">
        <ele>389.8</ele>
        <time>2020-09-20T09:44:02Z</time>
      </trkpt>
      <trkpt lat="40.7776650" lon="-8.1343990">
        <ele>388.4</ele>
        <time>2020-09-20T09:44:06Z</time>
      </trkpt>
      <trkpt lat="40.7775020" lon="-8.1343740">
        <ele>387.2</ele>
        <time>2020-09-20T09:44:11Z</time>
      </trkpt>
      <trkpt lat="40.7773330" lon="-8.1344050">
        <ele>385.8</ele>
        <time>2020-09-20T09:44:16Z</time>
      </trkpt>
      <trkpt lat="40.7771240" lon="-8.1344320">
        <ele>384.4</ele>
        <time>2020-09-20T09:44:22Z</time>
      </trkpt>
      <trkpt lat="40.7770210" lon="-8.1344060">
        <ele>383.4</ele>
        <time>2020-09-20T09:44:25Z</time>
      </trkpt>
      <trkpt lat="40.7769180" lon="-8.1343860">
        <ele>382.4</ele>
        <time>2020-09-20T09:44:28Z</time>
      </trkpt>
      <trkpt lat="40.7767870" lon="-8.1343880">
        <ele>382.0</ele>
        <time>2020-09-20T09:44:32Z</time>
      </trkpt>
      <trkpt lat="40.7766860" lon="-8.1346210">
        <ele>381.8</ele>
        <time>2020-09-20T09:44:38Z</time>
      </trkpt>
      <trkpt lat="40.7766150" lon="-8.1348320">
        <ele>381.2</ele>
        <time>2020-09-20T09:44:43Z</time>
      </trkpt>
      <trkpt lat="40.7765630" lon="-8.1349490">
        <ele>380.2</ele>
        <time>2020-09-20T09:44:46Z</time>
      </trkpt>
      <trkpt lat="40.7764730" lon="-8.1351970">
        <ele>379.6</ele>
        <time>2020-09-20T09:44:52Z</time>
      </trkpt>
      <trkpt lat="40.7764200" lon="-8.1353640">
        <ele>379.0</ele>
        <time>2020-09-20T09:44:56Z</time>
      </trkpt>
      <trkpt lat="40.7763880" lon="-8.1356380">
        <ele>378.6</ele>
        <time>2020-09-20T09:45:02Z</time>
      </trkpt>
      <trkpt lat="40.7763730" lon="-8.1359020">
        <ele>378.0</ele>
        <time>2020-09-20T09:45:08Z</time>
      </trkpt>
      <trkpt lat="40.7763700" lon="-8.1359440">
        <ele>378.0</ele>
        <time>2020-09-20T09:45:09Z</time>
      </trkpt>
      <trkpt lat="40.7763230" lon="-8.1361980">
        <ele>377.6</ele>
        <time>2020-09-20T09:45:15Z</time>
      </trkpt>
      <trkpt lat="40.7762520" lon="-8.1364520">
        <ele>377.8</ele>
        <time>2020-09-20T09:45:21Z</time>
      </trkpt>
      <trkpt lat="40.7761930" lon="-8.1367030">
        <ele>377.8</ele>
        <time>2020-09-20T09:45:27Z</time>
      </trkpt>
      <trkpt lat="40.7761360" lon="-8.1369450">
        <ele>378.0</ele>
        <time>2020-09-20T09:45:33Z</time>
      </trkpt>
      <trkpt lat="40.7760660" lon="-8.1371950">
        <ele>378.0</ele>
        <time>2020-09-20T09:45:39Z</time>
      </trkpt>
      <trkpt lat="40.7759650" lon="-8.1374120">
        <ele>378.0</ele>
        <time>2020-09-20T09:45:45Z</time>
      </trkpt>
      <trkpt lat="40.7759200" lon="-8.1376620">
        <ele>378.0</ele>
        <time>2020-09-20T09:45:51Z</time>
      </trkpt>
      <trkpt lat="40.7758640" lon="-8.1379240">
        <ele>378.4</ele>
        <time>2020-09-20T09:45:57Z</time>
      </trkpt>
      <trkpt lat="40.7757680" lon="-8.1381410">
        <ele>378.8</ele>
        <time>2020-09-20T09:46:03Z</time>
      </trkpt>
      <trkpt lat="40.7755920" lon="-8.1382170">
        <ele>378.8</ele>
        <time>2020-09-20T09:46:09Z</time>
      </trkpt>
      <trkpt lat="40.7753790" lon="-8.1381890">
        <ele>378.2</ele>
        <time>2020-09-20T09:46:15Z</time>
      </trkpt>
      <trkpt lat="40.7751910" lon="-8.1381530">
        <ele>377.6</ele>
        <time>2020-09-20T09:46:20Z</time>
      </trkpt>
      <trkpt lat="40.7750850" lon="-8.1381380">
        <ele>376.8</ele>
        <time>2020-09-20T09:46:23Z</time>
      </trkpt>
      <trkpt lat="40.7749780" lon="-8.1381350">
        <ele>375.6</ele>
        <time>2020-09-20T09:46:26Z</time>
      </trkpt>
      <trkpt lat="40.7748060" lon="-8.1381520">
        <ele>374.6</ele>
        <time>2020-09-20T09:46:31Z</time>
      </trkpt>
      <trkpt lat="40.7747480" lon="-8.1381970">
        <ele>373.2</ele>
        <time>2020-09-20T09:46:33Z</time>
      </trkpt>
      <trkpt lat="40.7746170" lon="-8.1383680">
        <ele>372.2</ele>
        <time>2020-09-20T09:46:38Z</time>
      </trkpt>
      <trkpt lat="40.7745950" lon="-8.1384060">
        <ele>372.2</ele>
        <time>2020-09-20T09:46:39Z</time>
      </trkpt>
      <trkpt lat="40.7744920" lon="-8.1385780">
        <ele>370.8</ele>
        <time>2020-09-20T09:46:44Z</time>
      </trkpt>
      <trkpt lat="40.7743660" lon="-8.1387830">
        <ele>369.8</ele>
        <time>2020-09-20T09:46:50Z</time>
      </trkpt>
      <trkpt lat="40.7743240" lon="-8.1388520">
        <ele>369.6</ele>
        <time>2020-09-20T09:46:52Z</time>
      </trkpt>
      <trkpt lat="40.7742050" lon="-8.1390740">
        <ele>368.6</ele>
        <time>2020-09-20T09:46:58Z</time>
      </trkpt>
      <trkpt lat="40.7741860" lon="-8.1391150">
        <ele>368.6</ele>
        <time>2020-09-20T09:46:59Z</time>
      </trkpt>
      <trkpt lat="40.7740910" lon="-8.1393530">
        <ele>367.8</ele>
        <time>2020-09-20T09:47:05Z</time>
      </trkpt>
      <trkpt lat="40.7739720" lon="-8.1395650">
        <ele>367.8</ele>
        <time>2020-09-20T09:47:11Z</time>
      </trkpt>
      <trkpt lat="40.7738300" lon="-8.1397300">
        <ele>367.6</ele>
        <time>2020-09-20T09:47:17Z</time>
      </trkpt>
      <trkpt lat="40.7737190" lon="-8.1398070">
        <ele>367.6</ele>
        <time>2020-09-20T09:47:21Z</time>
      </trkpt>
      <trkpt lat="40.7735360" lon="-8.1399270">
        <ele>367.2</ele>
        <time>2020-09-20T09:47:28Z</time>
      </trkpt>
      <trkpt lat="40.7733670" lon="-8.1400610">
        <ele>367.8</ele>
        <time>2020-09-20T09:47:35Z</time>
      </trkpt>
      <trkpt lat="40.7732380" lon="-8.1401460">
        <ele>368.6</ele>
        <time>2020-09-20T09:47:40Z</time>
      </trkpt>
      <trkpt lat="40.7731160" lon="-8.1402240">
        <ele>369.8</ele>
        <time>2020-09-20T09:47:45Z</time>
      </trkpt>
      <trkpt lat="40.7730290" lon="-8.1402960">
        <ele>371.0</ele>
        <time>2020-09-20T09:47:49Z</time>
      </trkpt>
      <trkpt lat="40.7729870" lon="-8.1403330">
        <ele>371.6</ele>
        <time>2020-09-20T09:47:51Z</time>
      </trkpt>
      <trkpt lat="40.7728800" lon="-8.1404670">
        <ele>372.0</ele>
        <time>2020-09-20T09:47:56Z</time>
      </trkpt>
      <trkpt lat="40.7727870" lon="-8.1406950">
        <ele>372.2</ele>
        <time>2020-09-20T09:48:03Z</time>
      </trkpt>
      <trkpt lat="40.7727570" lon="-8.1408510">
        <ele>373.0</ele>
        <time>2020-09-20T09:48:07Z</time>
      </trkpt>
      <trkpt lat="40.7727400" lon="-8.1410160">
        <ele>374.4</ele>
        <time>2020-09-20T09:48:11Z</time>
      </trkpt>
      <trkpt lat="40.7726900" lon="-8.1412620">
        <ele>375.4</ele>
        <time>2020-09-20T09:48:17Z</time>
      </trkpt>
      <trkpt lat="40.7726280" lon="-8.1414990">
        <ele>375.4</ele>
        <time>2020-09-20T09:48:23Z</time>
      </trkpt>
      <trkpt lat="40.7725180" lon="-8.1417080">
        <ele>374.8</ele>
        <time>2020-09-20T09:48:31Z</time>
      </trkpt>
      <trkpt lat="40.7724690" lon="-8.1417920">
        <ele>374.4</ele>
        <time>2020-09-20T09:48:34Z</time>
      </trkpt>
    </trkseg>
  </trk>
</gpx>
